[[{"header":{"parameterUnit":"m.s-1","parameterCategory":1,"la1":31.0,"la2":29.5877,"lo1":-88.7671,"lo2":-86.6584,"dy":0.0162,"dx":0.0185,"nx":115,"ny":88,"refTime":"2026-03-04T00:00:00:Z","depth":0,"parameterNumber":2,"parameterNumberName":"U-component_of_WINDS"},"data":[0.0,0.0,0.0,0.0,0.0,0.0,0.0,0.0,0.0,0.0,0.0,0.0,0.0,0.0,0.0,0.0,0.0,0.0,0.0,0.0,0.0,0.0,0.0,0.0,0.0,0.0,0.0,0.0,0.0,0.0,0.0,0.0,0.0,0.0,0.0,0.0,0.0,0.0,0.0,0.0,0.0,0.0,0.0,0.0,0.0,0.0,0.0,0.0,0.0,0.0,0.0,0.0,0.0,0.0,0.0,0.0,0.0,0.0,0.0,0.0,0.0,0.0,0.0,0.0,0.0,0.0,0.0,0.0,0.0,0.0,0.0,0.0,0.0,0.0,0.0,0.0,0.0,0.0,0.0,0.0,0.0,0.0,0.0,0.0,0.0,0.0,0.0,0.0,0.0,0.0,0.0,0.0,0.0,0.0,0.0,0.0,0.0,0.0,0.0,0.0,0.0,0.0,0.0,0.0,0.0,0.0,0.0,0.0,0.0,0.0,0.0,0.0,0.0,0.0,0.0,0.0,0.0,0.0,0.0,0.0,0.0,0.0,0.0,0.0,0.0,0.0,0.0,0.0,0.0,0.0,0.0,0.0,0.0,0.0,0.0,0.0,0.0,0.0,0.0,0.0,0.0,0.0,0.0,0.0,0.0,0.0,0.0,0.0,0.0,0.0,0.0,0.0,0.0,0.0,0.0,0.0,0.0,0.0,0.0,0.0,0.0,0.0,0.0,0.0,0.0,0.0,0.0,0.0,0.0,0.0,0.0,0.0,0.0,0.0,0.0,0.0,0.0,0.0,0.0,0.0,0.0,0.0,0.0,0.0,0.0,0.0,0.0,0.0,0.0,0.0,0.0,0.0,0.0,0.0,0.0,0.0,0.0,0.0,0.0,0.0,0.0,0.0,0.0,0.0,0.0,0.0,0.0,0.0,0.0,0.0,0.0,0.0,0.0,0.0,0.0,0.0,0.0,0.0,0.0,0.0,0.0,0.0,0.0,0.0,0.0,0.0,0.0,0.0,0.0,0.0,0.0,0.0,0.0,0.0,0.0,0.0,0.0,0.0,0.0,0.0,0.0,0.0,0.0,0.0,0.0,0.0,0.0,0.0,0.0,0.0,0.0,0.0,0.0,0.0,0.0,0.0,0.0,0.0,0.0,0.0,0.0,0.0,0.0,0.0,0.0,0.0,0.0,0.0,0.0,0.0,0.0,0.0,0.0,0.0,0.0,0.0,0.0,0.0,0.0,0.0,0.0,0.0,0.0,0.0,0.0,0.0,0.0,0.0,0.0,0.0,0.0,0.0,0.0,0.0,0.0,0.0,0.0,0.0,0.0,0.0,0.0,0.0,0.0,0.0,0.0,0.0,0.0,0.0,0.0,0.0,0.0,0.0,0.0,0.0,0.0,0.0,0.0,0.0,0.0,0.0,0.0,0.0,0.0,0.0,0.0,0.0,0.0,0.0,0.0,0.0,0.0,0.0,0.0,0.0,0.0,0.0,0.0,0.0,0.0,0.0,0.0,0.0,0.0,0.0,0.0,0.0,0.0,0.0,0.0,0.0,0.0,0.0,0.0,0.0,0.0,0.0,0.0,0.0,0.0,0.0,0.0,0.0,0.0,0.0,0.0,0.0,0.0,0.0,0.0,0.0,0.0,0.0,0.0,0.0,0.0,0.0,0.0,0.0,0.0,0.0,0.0,0.0,0.0,0.0,0.0,0.0,0.0,0.0,0.0,0.0,0.0,0.0,0.0,0.0,0.0,0.0,0.0,0.0,0.0,0.0,0.0,0.0,0.0,0.0,0.0,0.0,0.0,0.0,0.0,0.0,0.0,0.0,0.0,0.0,0.0,0.0,0.0,0.0,0.0,0.0,0.0,0.0,0.0,0.0,0.0,0.0,0.0,0.0,0.0,0.0,0.0,0.0,0.0,0.0,0.0,0.0,0.0,0.0,0.0,0.0,0.0,0.0,0.0,0.0,0.0,0.0,0.0,0.0,0.0,0.0,0.0,0.0,0.0,0.0,0.0,0.0,0.0,0.0,0.0,0.0,0.0,0.0,0.0,0.0,0.0,0.0,0.0,0.0,0.0,0.0,0.0,0.0,0.0,0.0,0.0,0.0,0.0,0.0,0.0,0.0,0.0,0.0,0.0,0.0,0.0,0.0,0.0,0.0,0.0,0.0,0.0,0.0,0.0,0.0,0.0,0.0,0.0,0.0,0.0,0.0,0.0,0.0,0.0,0.0,0.0,0.0,0.0,0.0,0.0,0.0,0.0,0.0,0.0,0.0,0.0,0.0,0.0,0.0,0.0,0.0,0.0,0.0,0.0,0.0,0.0,0.0,0.0,0.0,0.0,0.0,0.0,0.0,0.0,0.0,0.0,0.0,0.0,0.0,0.0,0.0,0.0,0.0,0.0,0.0,0.0,0.0,0.0,0.0,0.0,0.0,0.0,0.0,0.0,0.0,0.0,0.0,0.0,0.0,0.0,0.0,0.0,0.0,0.0,0.0,0.0,0.0,0.0,0.0,0.0,0.0,0.0,0.0,0.0,0.0,0.0,0.0,0.0,0.0,0.0,0.0,0.0,0.0,0.0,0.0,0.0,0.0,0.0,0.0,0.0,0.0,0.0,0.0,0.0,0.0,0.0,0.0,0.0,0.0,0.0,0.0,0.0,0.0,0.0,0.0,0.0,0.0,0.0,0.0,0.0,0.0,0.0,0.0,0.0,0.0,0.0,0.0,0.0,0.0,0.0,0.0,0.0,0.0,0.0,0.0,0.0,0.0,0.0,0.0,0.0,0.0,0.0,0.0,0.0,0.0,0.0,0.0,0.0,0.0,0.0,0.0,0.0,0.0,0.0,0.0,0.0,0.0,0.0,0.0,0.0,0.0,0.0,0.0,0.0,0.0,0.0,0.0,0.0,0.0,0.0,0.0,0.0,0.0,0.0,0.0,0.0,0.0,0.0,0.0,0.0,0.0,0.0,0.0,0.0,0.0,0.0,0.0,0.0,0.0,0.0,0.0,0.0,0.0,0.0,0.0,0.0,0.0,0.0,0.0,0.0,0.0,0.0,0.0,0.0,0.0,0.0,0.0,0.0,0.0,0.0,0.0,0.0,0.0,0.0,0.0,0.0,0.0,0.0,0.0,0.0,0.0,0.0,0.0,0.0,0.0,0.0,0.0,0.0,0.0,0.0,0.0,0.0,0.0,0.0,0.0,0.0,0.0,0.0,0.0,0.0,0.0,0.0,0.0,0.0,0.0,0.0,0.0,0.0,0.0,0.0,0.0,0.0,0.0,0.0,0.0,0.0,0.0,0.0,0.0,0.0,0.0,0.0,0.0,0.0,0.0,0.0,0.0,0.0,0.0,0.0,0.0,0.0,0.0,0.0,0.0,0.0,0.0,0.0,0.0,0.0,0.0,0.0,0.0,0.0,0.0,0.0,0.0,0.0,0.0,0.0,0.0,0.0,0.0,0.0,0.0,0.0,0.0,0.0,0.0,0.0,0.0,0.0,0.0,0.0,0.0,0.0,0.0,0.0,0.0,0.0,0.0,0.0,0.0,0.0,0.0,0.0,0.0,0.0,0.0,0.0,0.0,0.0,0.0,0.0,0.0,0.0,0.0,0.0,0.0,0.0,0.0,0.0,0.0,0.0,0.0,0.0,0.0,0.0,0.0,0.0,0.0,0.0,0.0,0.0,0.0,0.0,0.0,0.0,0.0,0.0,0.0,0.0,0.0,0.0,0.0,0.0,0.0,0.0,0.0,0.0,0.0,0.0,0.0,0.0,0.0,0.0,0.0,0.0,0.0,0.0,0.0,0.0,0.0,0.0,0.0,0.0,0.0,0.0,0.0,0.0,0.0,0.0,0.0,0.0,0.0,0.0,0.0,0.0,0.0,0.0,0.0,0.0,0.0,0.0,0.0,0.0,0.0,0.0,0.0,0.0,0.0,0.0,0.0,0.0,0.0,0.0,0.0,0.0,0.0,0.0,0.0,0.0,0.0,0.0,0.0,0.0,0.0,0.0,0.0,0.0,0.0,0.0,0.0,0.0,0.0,0.0,0.0,0.0,0.0,0.0,0.0,0.0,0.0,0.0,0.0,0.0,0.0,0.0,0.0,0.0,0.0,0.0,0.0,0.0,0.0,0.0,0.0,0.0,0.0,0.0,0.0,0.0,0.0,0.0,0.0,0.0,0.0,0.0,0.0,0.0,0.0,0.0,0.0,0.0,0.0,0.0,0.0,0.0,0.0,0.0,0.0,0.0,0.0,0.0,0.0,0.0,0.0,-1.7911,0.0,0.0,0.0,0.0,0.0,0.0,0.0,0.0,0.0,0.0,0.0,0.0,0.0,0.0,0.0,0.0,0.0,0.0,0.0,0.0,0.0,0.0,0.0,0.0,0.0,0.0,0.0,0.0,0.0,0.0,0.0,0.0,0.0,0.0,0.0,0.0,0.0,0.0,0.0,0.0,0.0,0.0,0.0,0.0,0.0,0.0,0.0,0.0,0.0,0.0,0.0,0.0,0.0,0.0,0.0,0.0,0.0,0.0,0.0,0.0,0.0,0.0,0.0,0.0,0.0,0.0,0.0,0.0,0.0,0.0,0.0,0.0,0.0,0.0,0.0,0.0,0.0,0.0,0.0,0.0,0.0,0.0,0.0,0.0,0.0,0.0,0.0,0.0,0.0,0.0,0.0,0.0,0.0,0.0,0.0,0.0,0.0,0.0,0.0,0.0,0.0,0.0,0.0,0.0,0.0,0.0,0.0,0.0,0.0,0.0,-1.9246,-1.9105,-1.884,-1.8535,-1.8187,0.0,0.0,0.0,0.0,0.0,0.0,0.0,0.0,0.0,0.0,0.0,0.0,0.0,0.0,0.0,0.0,0.0,0.0,0.0,0.0,0.0,0.0,0.0,0.0,0.0,0.0,0.0,0.0,0.0,0.0,0.0,0.0,0.0,0.0,0.0,0.0,0.0,0.0,0.0,0.0,0.0,0.0,0.0,0.0,0.0,0.0,0.0,0.0,0.0,0.0,0.0,0.0,0.0,0.0,0.0,0.0,0.0,0.0,0.0,0.0,0.0,0.0,0.0,0.0,0.0,0.0,0.0,0.0,0.0,0.0,0.0,0.0,0.0,0.0,0.0,0.0,0.0,0.0,0.0,0.0,0.0,0.0,0.0,0.0,0.0,0.0,0.0,0.0,0.0,0.0,0.0,0.0,0.0,0.0,0.0,0.0,0.0,0.0,0.0,0.0,0.0,0.0,0.0,0.0,0.0,0.0,0.0,0.0,0.0,0.0,0.0,0.0,-1.9116,-1.8738,-1.7998,0.0,0.0,0.0,0.0,0.0,0.0,0.0,0.0,0.0,0.0,0.0,0.0,0.0,0.0,0.0,0.0,0.0,0.0,0.0,0.0,0.0,0.0,0.0,0.0,0.0,0.0,0.0,0.0,0.0,0.0,0.0,0.0,0.0,0.0,0.0,0.0,0.0,0.0,0.0,0.0,0.0,0.0,0.0,0.0,0.0,0.0,0.0,0.0,0.0,0.0,0.0,0.0,0.0,0.0,0.0,0.0,0.0,0.0,0.0,0.0,0.0,0.0,0.0,0.0,0.0,0.0,0.0,0.0,0.0,0.0,0.0,0.0,0.0,0.0,0.0,0.0,0.0,0.0,0.0,0.0,0.0,0.0,0.0,0.0,0.0,0.0,0.0,0.0,0.0,0.0,0.0,0.0,0.0,0.0,0.0,0.0,0.0,0.0,0.0,0.0,0.0,0.0,0.0,0.0,0.0,0.0,0.0,0.0,0.0,0.0,-1.912,-1.9101,-1.9116,0.0,-1.7403,0.0,0.0,0.0,0.0,0.0,0.0,0.0,0.0,0.0,0.0,0.0,0.0,0.0,0.0,0.0,0.0,0.0,0.0,0.0,0.0,0.0,0.0,0.0,0.0,0.0,0.0,0.0,0.0,0.0,0.0,0.0,0.0,0.0,0.0,0.0,0.0,0.0,0.0,0.0,0.0,0.0,0.0,0.0,0.0,0.0,0.0,0.0,0.0,0.0,0.0,0.0,0.0,0.0,0.0,0.0,0.0,0.0,0.0,0.0,0.0,0.0,0.0,0.0,0.0,0.0,0.0,0.0,0.0,0.0,0.0,0.0,0.0,0.0,0.0,0.0,0.0,0.0,0.0,0.0,0.0,0.0,0.0,0.0,0.0,0.0,0.0,0.0,0.0,0.0,0.0,0.0,0.0,0.0,0.0,0.0,0.0,0.0,0.0,0.0,0.0,0.0,0.0,0.0,0.0,0.0,0.0,0.0,0.0,0.0,0.0,-1.929,-1.9682,-1.9696,-1.8912,0.0,0.0,0.0,0.0,0.0,0.0,0.0,0.0,0.0,0.0,0.0,0.0,0.0,0.0,0.0,0.0,0.0,0.0,0.0,0.0,0.0,0.0,0.0,0.0,0.0,0.0,0.0,0.0,0.0,0.0,0.0,0.0,0.0,0.0,0.0,0.0,0.0,0.0,0.0,0.0,0.0,0.0,0.0,0.0,0.0,0.0,0.0,0.0,0.0,0.0,0.0,0.0,0.0,0.0,0.0,0.0,0.0,0.0,0.0,0.0,0.0,0.0,0.0,0.0,0.0,0.0,0.0,0.0,0.0,0.0,0.0,0.0,0.0,0.0,0.0,0.0,0.0,0.0,0.0,0.0,0.0,0.0,0.0,0.0,0.0,0.0,0.0,0.0,0.0,0.0,0.0,0.0,0.0,0.0,0.0,0.0,0.0,0.0,0.0,0.0,0.0,0.0,0.0,0.0,0.0,0.0,0.0,0.0,0.0,0.0,-1.9116,0.0,-1.9798,-1.9827,-1.8999,-1.7272,0.0,0.0,0.0,0.0,0.0,0.0,0.0,0.0,0.0,0.0,0.0,0.0,0.0,0.0,0.0,0.0,0.0,0.0,0.0,0.0,0.0,0.0,0.0,0.0,0.0,0.0,0.0,0.0,0.0,0.0,0.0,0.0,0.0,0.0,0.0,0.0,0.0,0.0,0.0,0.0,0.0,0.0,0.0,0.0,0.0,0.0,0.0,0.0,0.0,0.0,0.0,0.0,0.0,0.0,0.0,0.0,0.0,0.0,0.0,0.0,0.0,0.0,0.0,0.0,0.0,0.0,0.0,0.0,0.0,0.0,0.0,0.0,0.0,0.0,0.0,0.0,0.0,0.0,0.0,0.0,0.0,0.0,0.0,0.0,0.0,0.0,0.0,0.0,0.0,0.0,0.0,0.0,0.0,0.0,0.0,0.0,0.0,0.0,0.0,0.0,0.0,0.0,0.0,0.0,0.0,0.0,0.0,0.0,0.0,-1.9116,-1.9116,-1.9159,-1.9145,-1.8535,0.0,0.0,0.0,0.0,0.0,0.0,0.0,0.0,0.0,0.0,0.0,0.0,0.0,0.0,0.0,0.0,0.0,0.0,0.0,0.0,0.0,0.0,0.0,0.0,0.0,0.0,0.0,0.0,0.0,0.0,0.0,0.0,0.0,0.0,0.0,0.0,0.0,0.0,0.0,0.0,0.0,0.0,0.0,0.0,0.0,0.0,0.0,0.0,0.0,0.0,0.0,0.0,0.0,0.0,0.0,0.0,0.0,0.0,0.0,0.0,0.0,0.0,0.0,0.0,0.0,0.0,0.0,0.0,0.0,0.0,0.0,0.0,0.0,0.0,0.0,0.0,0.0,0.0,0.0,0.0,0.0,0.0,0.0,0.0,0.0,0.0,0.0,0.0,0.0,0.0,0.0,0.0,0.0,0.0,0.0,0.0,0.0,0.0,0.0,0.0,0.0,0.0,0.0,0.0,0.0,0.0,0.0,0.0,0.0,-1.9116,-1.9508,-1.9522,-1.913,-1.9508,-1.8941,0.0,0.0,0.0,0.0,0.0,0.0,0.0,0.0,0.0,0.0,0.0,0.0,0.0,0.0,0.0,0.0,0.0,0.0,0.0,0.0,0.0,0.0,0.0,0.0,0.0,0.0,0.0,0.0,0.0,0.0,0.0,0.0,0.0,0.0,0.0,0.0,0.0,0.0,0.0,0.0,0.0,0.0,0.0,0.0,0.0,0.0,0.0,0.0,0.0,0.0,0.0,0.0,0.0,0.0,0.0,0.0,0.0,0.0,0.0,0.0,0.0,0.0,0.0,0.0,0.0,0.0,0.0,0.0,0.0,0.0,0.0,0.0,0.0,0.0,0.0,0.0,0.0,0.0,0.0,0.0,0.0,0.0,0.0,0.0,0.0,0.0,0.0,0.0,0.0,0.0,0.0,0.0,0.0,0.0,0.0,0.0,0.0,0.0,0.0,0.0,0.0,0.0,0.0,0.0,0.0,0.0,0.0,0.0,0.0,-1.9093,0.0,-1.9508,0.0,-1.944,-1.8863,0.0,0.0,0.0,0.0,0.0,0.0,0.0,0.0,0.0,0.0,0.0,0.0,0.0,0.0,0.0,0.0,0.0,0.0,0.0,0.0,0.0,0.0,0.0,0.0,0.0,0.0,0.0,0.0,0.0,0.0,0.0,0.0,0.0,0.0,0.0,0.0,0.0,0.0,0.0,0.0,0.0,0.0,0.0,0.0,0.0,0.0,0.0,0.0,0.0,0.0,0.0,0.0,0.0,0.0,0.0,0.0,0.0,0.0,0.0,0.0,0.0,0.0,0.0,0.0,0.0,0.0,0.0,0.0,0.0,0.0,0.0,0.0,0.0,0.0,0.0,0.0,0.0,0.0,0.0,0.0,0.0,0.0,0.0,0.0,0.0,0.0,0.0,0.0,0.0,0.0,0.0,0.0,0.0,0.0,0.0,0.0,0.0,0.0,0.0,0.0,0.0,0.0,0.0,0.0,0.0,0.0,0.0,0.0,-1.9059,-1.9012,-1.8993,-1.897,-1.8803,-1.8831,-1.8212,0.0,0.0,0.0,0.0,0.0,0.0,0.0,0.0,0.0,0.0,0.0,0.0,0.0,0.0,0.0,0.0,0.0,0.0,0.0,0.0,0.0,0.0,0.0,0.0,0.0,0.0,0.0,0.0,0.0,0.0,0.0,0.0,0.0,0.0,0.0,0.0,0.0,0.0,0.0,0.0,0.0,0.0,0.0,0.0,0.0,0.0,0.0,0.0,0.0,0.0,0.0,0.0,0.0,0.0,0.0,0.0,0.0,0.0,0.0,0.0,0.0,0.0,0.0,0.0,0.0,0.0,0.0,0.0,0.0,0.0,0.0,0.0,0.0,0.0,0.0,0.0,0.0,0.0,0.0,0.0,0.0,0.0,0.0,0.0,0.0,0.0,0.0,0.0,0.0,0.0,0.0,0.0,0.0,0.0,0.0,0.0,0.0,0.0,0.0,0.0,0.0,0.0,0.0,0.0,0.0,0.0,0.0,0.0,0.0,-1.9008,-1.8908,-1.8831,-1.8736,-1.8639,-1.804,0.0,0.0,0.0,0.0,0.0,0.0,0.0,0.0,0.0,0.0,0.0,0.0,0.0,0.0,0.0,0.0,0.0,0.0,0.0,0.0,0.0,0.0,0.0,0.0,0.0,0.0,0.0,0.0,0.0,0.0,0.0,0.0,0.0,0.0,0.0,0.0,0.0,0.0,0.0,0.0,0.0,0.0,0.0,0.0,0.0,0.0,0.0,0.0,0.0,0.0,0.0,0.0,0.0,0.0,0.0,0.0,0.0,0.0,0.0,0.0,0.0,0.0,0.0,0.0,0.0,0.0,0.0,0.0,0.0,0.0,0.0,0.0,0.0,0.0,0.0,0.0,0.0,0.0,0.0,0.0,0.0,0.0,0.0,0.0,0.0,0.0,0.0,0.0,0.0,0.0,0.0,0.0,0.0,0.0,0.0,0.0,0.0,0.0,0.0,0.0,0.0,0.0,0.0,0.0,0.0,0.0,0.0,0.0,0.0,-1.9347,-1.9052,-1.8826,-1.8627,-1.8393,-1.7829,-1.6884,0.0,0.0,0.0,0.0,0.0,0.0,0.0,0.0,0.0,0.0,0.0,0.0,0.0,0.0,0.0,0.0,0.0,0.0,0.0,0.0,0.0,0.0,0.0,0.0,0.0,0.0,0.0,0.0,0.0,0.0,0.0,0.0,0.0,0.0,0.0,0.0,0.0,0.0,0.0,0.0,0.0,0.0,0.0,0.0,0.0,0.0,0.0,0.0,0.0,0.0,0.0,0.0,0.0,0.0,0.0,0.0,0.0,0.0,0.0,0.0,0.0,0.0,0.0,0.0,0.0,0.0,0.0,0.0,0.0,0.0,0.0,0.0,0.0,0.0,0.0,0.0,0.0,0.0,0.0,0.0,0.0,0.0,0.0,0.0,0.0,0.0,0.0,0.0,0.0,0.0,0.0,0.0,0.0,0.0,0.0,0.0,0.0,0.0,0.0,0.0,0.0,0.0,0.0,0.0,0.0,0.0,0.0,0.0,-1.9886,-1.938,-1.8951,-1.8551,-1.8152,-1.7618,0.0,0.0,0.0,0.0,0.0,0.0,0.0,0.0,0.0,0.0,0.0,0.0,0.0,0.0,0.0,0.0,0.0,0.0,0.0,0.0,0.0,0.0,0.0,0.0,0.0,0.0,0.0,0.0,0.0,0.0,0.0,0.0,0.0,0.0,0.0,0.0,0.0,0.0,0.0,0.0,0.0,0.0,0.0,0.0,0.0,0.0,0.0,0.0,0.0,0.0,0.0,0.0,0.0,0.0,0.0,0.0,0.0,0.0,0.0,0.0,0.0,0.0,0.0,0.0,0.0,0.0,0.0,0.0,0.0,0.0,0.0,0.0,0.0,0.0,0.0,0.0,0.0,0.0,0.0,0.0,0.0,0.0,0.0,0.0,0.0,0.0,0.0,0.0,0.0,0.0,0.0,0.0,0.0,0.0,0.0,0.0,0.0,0.0,0.0,0.0,0.0,0.0,0.0,0.0,0.0,0.0,0.0,0.0,0.0,-1.9874,-1.9595,-1.9331,-1.9012,-1.8432,-1.7847,0.0,0.0,0.0,0.0,0.0,0.0,0.0,0.0,0.0,0.0,0.0,0.0,0.0,0.0,0.0,0.0,0.0,0.0,0.0,0.0,0.0,0.0,0.0,0.0,0.0,0.0,0.0,0.0,0.0,0.0,0.0,0.0,0.0,0.0,0.0,0.0,0.0,0.0,0.0,0.0,0.0,0.0,0.0,0.0,0.0,0.0,0.0,0.0,0.0,0.0,0.0,0.0,0.0,0.0,0.0,0.0,0.0,0.0,0.0,0.0,0.0,0.0,0.0,0.0,0.0,0.0,0.0,0.0,0.0,0.0,0.0,0.0,0.0,0.0,0.0,0.0,0.0,0.0,0.0,0.0,0.0,0.0,0.0,0.0,0.0,0.0,0.0,0.0,0.0,0.0,0.0,0.0,0.0,0.0,0.0,0.0,0.0,0.0,0.0,0.0,0.0,0.0,0.0,0.0,0.0,0.0,0.0,0.0,-1.985,-2.054,-2.0306,-2.0077,-1.9924,-1.8871,-1.8087,0.0,0.0,0.0,0.0,0.0,0.0,0.0,0.0,0.0,0.0,0.0,0.0,0.0,0.0,0.0,0.0,0.0,0.0,0.0,0.0,0.0,0.0,0.0,0.0,0.0,0.0,0.0,0.0,0.0,0.0,0.0,0.0,0.0,0.0,0.0,0.0,0.0,0.0,0.0,0.0,0.0,0.0,0.0,0.0,0.0,0.0,0.0,0.0,0.0,0.0,0.0,0.0,0.0,0.0,0.0,0.0,0.0,0.0,0.0,0.0,0.0,0.0,0.0,0.0,0.0,0.0,0.0,0.0,0.0,0.0,0.0,0.0,0.0,0.0,0.0,0.0,0.0,0.0,0.0,0.0,0.0,0.0,0.0,0.0,0.0,0.0,0.0,0.0,0.0,0.0,0.0,0.0,0.0,0.0,0.0,0.0,0.0,0.0,0.0,0.0,0.0,0.0,0.0,0.0,0.0,0.0,0.0,0.0,-1.9901,-2.1381,-2.109,-2.0877,-2.0839,-1.9443,-1.8369,0.0,0.0,0.0,0.0,0.0,0.0,0.0,0.0,0.0,0.0,0.0,0.0,0.0,0.0,0.0,0.0,0.0,0.0,0.0,0.0,0.0,0.0,0.0,0.0,0.0,0.0,0.0,0.0,0.0,0.0,0.0,0.0,0.0,0.0,0.0,0.0,0.0,0.0,0.0,0.0,0.0,0.0,0.0,0.0,0.0,0.0,0.0,0.0,0.0,0.0,0.0,0.0,0.0,0.0,0.0,0.0,0.0,0.0,0.0,0.0,0.0,0.0,0.0,0.0,0.0,0.0,0.0,0.0,0.0,0.0,0.0,0.0,0.0,0.0,0.0,0.0,0.0,0.0,0.0,0.0,0.0,0.0,0.0,0.0,0.0,0.0,0.0,0.0,0.0,0.0,0.0,0.0,0.0,0.0,0.0,0.0,0.0,0.0,0.0,0.0,0.0,0.0,0.0,0.0,0.0,0.0,0.0,0.0,-1.9699,-2.0973,-2.0838,-2.0731,-2.0745,-2.0054,-1.9229,0.0,0.0,0.0,0.0,0.0,0.0,0.0,0.0,0.0,0.0,0.0,0.0,0.0,0.0,0.0,0.0,0.0,0.0,0.0,0.0,0.0,0.0,0.0,0.0,0.0,0.0,0.0,0.0,0.0,0.0,0.0,0.0,0.0,0.0,0.0,0.0,0.0,0.0,0.0,0.0,0.0,0.0,0.0,0.0,0.0,0.0,0.0,0.0,-1.1786,0.0,0.0,0.0,0.0,0.0,0.0,0.0,0.0,0.0,0.0,0.0,0.0,0.0,0.0,0.0,0.0,0.0,0.0,0.0,0.0,0.0,0.0,0.0,0.0,0.0,0.0,0.0,0.0,0.0,0.0,0.0,0.0,0.0,0.0,0.0,0.0,0.0,0.0,0.0,0.0,0.0,0.0,0.0,0.0,0.0,0.0,0.0,0.0,0.0,0.0,0.0,0.0,0.0,0.0,0.0,0.0,0.0,0.0,0.0,-2.0179,-2.1234,-2.1388,-2.129,-2.0984,-2.0792,-1.9952,0.0,0.0,0.0,0.0,0.0,0.0,0.0,0.0,0.0,0.0,0.0,0.0,0.0,0.0,0.0,0.0,0.0,0.0,0.0,0.0,0.0,0.0,0.0,0.0,0.0,0.0,0.0,0.0,0.0,0.0,0.0,0.0,0.0,0.0,0.0,0.0,0.0,0.0,0.0,0.0,0.0,0.0,0.0,0.0,0.0,0.0,0.0,0.0,0.0,0.0,0.0,0.0,0.0,0.0,0.0,0.0,0.0,0.0,0.0,0.0,0.0,0.0,0.0,0.0,0.0,0.0,0.0,0.0,0.0,0.0,0.0,0.0,0.0,0.0,0.0,0.0,0.0,0.0,0.0,0.0,0.0,0.0,0.0,0.0,0.0,0.0,0.0,0.0,0.0,0.0,0.0,0.0,0.0,0.0,0.0,0.0,0.0,0.0,0.0,0.0,0.0,0.0,0.0,0.0,0.0,0.0,0.0,-1.9988,-2.0809,-2.1637,-2.2078,-2.1972,-2.1322,-2.1409,-2.0437,-1.8268,0.0,0.0,0.0,0.0,0.0,0.0,0.0,0.0,0.0,0.0,0.0,0.0,0.0,0.0,0.0,0.0,0.0,0.0,0.0,0.0,0.0,0.0,0.0,0.0,0.0,0.0,0.0,0.0,0.0,0.0,0.0,0.0,0.0,0.0,0.0,0.0,0.0,0.0,-0.9846,-1.1704,0.0,0.0,0.0,0.0,0.0,0.0,0.0,0.0,-1.2932,0.0,0.0,0.0,0.0,0.0,0.0,0.0,0.0,0.0,0.0,0.0,0.0,0.0,0.0,0.0,0.0,0.0,0.0,0.0,0.0,0.0,0.0,0.0,0.0,0.0,0.0,0.0,0.0,0.0,0.0,0.0,0.0,0.0,0.0,0.0,0.0,0.0,0.0,0.0,0.0,0.0,0.0,0.0,0.0,0.0,0.0,0.0,0.0,0.0,0.0,0.0,0.0,0.0,0.0,0.0,0.0,-1.9035,-1.9939,-2.0744,-2.1524,-2.202,-2.1972,-2.1334,-2.1309,-2.0291,-1.8174,0.0,0.0,0.0,0.0,0.0,0.0,0.0,0.0,0.0,0.0,0.0,0.0,0.0,0.0,0.0,0.0,0.0,0.0,0.0,0.0,0.0,0.0,0.0,0.0,0.0,0.0,0.0,0.0,0.0,0.0,0.0,0.0,0.0,0.0,0.0,0.0,0.0,0.0,0.0,-1.3252,-1.4103,0.0,0.0,0.0,0.0,0.0,0.0,0.0,0.0,-1.3891,0.0,0.0,0.0,0.0,0.0,0.0,0.0,0.0,0.0,0.0,0.0,0.0,0.0,0.0,0.0,0.0,0.0,0.0,0.0,0.0,0.0,0.0,0.0,0.0,0.0,0.0,0.0,0.0,0.0,0.0,0.0,0.0,0.0,0.0,0.0,0.0,0.0,0.0,0.0,0.0,0.0,0.0,0.0,0.0,0.0,0.0,0.0,0.0,0.0,0.0,0.0,0.0,0.0,0.0,0.0,-1.9012,-2.0347,-2.1224,-2.1509,-2.2222,-2.2155,-2.1234,-2.1156,-2.0077,0.0,0.0,0.0,0.0,0.0,0.0,0.0,0.0,0.0,0.0,0.0,0.0,0.0,0.0,0.0,0.0,0.0,0.0,0.0,0.0,0.0,0.0,0.0,0.0,0.0,0.0,0.0,0.0,0.0,0.0,0.0,0.0,0.0,0.0,0.0,0.0,0.0,0.0,0.0,0.0,-1.4426,-1.5163,-1.5461,0.0,0.0,0.0,0.0,0.0,0.0,-1.4429,-1.4441,0.0,0.0,0.0,0.0,0.0,0.0,0.0,0.0,0.0,0.0,0.0,0.0,0.0,0.0,0.0,0.0,0.0,0.0,0.0,0.0,0.0,0.0,0.0,0.0,0.0,0.0,0.0,0.0,0.0,0.0,0.0,0.0,0.0,0.0,0.0,0.0,0.0,0.0,0.0,0.0,0.0,0.0,0.0,0.0,0.0,0.0,0.0,0.0,0.0,0.0,0.0,0.0,0.0,0.0,0.0,-1.8923,-2.0705,-2.1592,-2.1462,-2.2267,-2.2169,-2.1088,-2.0876,-1.9792,0.0,0.0,0.0,0.0,0.0,0.0,0.0,0.0,0.0,0.0,0.0,0.0,0.0,0.0,0.0,0.0,0.0,0.0,0.0,0.0,0.0,0.0,0.0,0.0,0.0,0.0,0.0,0.0,0.0,0.0,0.0,0.0,0.0,0.0,0.0,0.0,0.0,0.0,0.0,0.0,0.0,-1.5998,-1.662,-1.6334,0.0,0.0,0.0,0.0,-1.4719,-1.492,0.0,0.0,0.0,0.0,0.0,0.0,0.0,0.0,0.0,0.0,0.0,0.0,0.0,0.0,0.0,0.0,0.0,0.0,0.0,0.0,0.0,0.0,0.0,0.0,0.0,0.0,0.0,0.0,0.0,0.0,0.0,0.0,0.0,0.0,0.0,0.0,0.0,0.0,0.0,0.0,0.0,0.0,0.0,0.0,0.0,0.0,0.0,0.0,0.0,0.0,0.0,0.0,0.0,0.0,0.0,0.0,-1.8817,-2.0574,-2.1425,-2.1269,-2.1762,-2.1653,-2.0868,-2.0369,-1.9334,0.0,0.0,0.0,0.0,0.0,0.0,0.0,0.0,0.0,0.0,0.0,0.0,0.0,0.0,0.0,0.0,0.0,0.0,0.0,0.0,0.0,0.0,0.0,0.0,0.0,0.0,0.0,0.0,0.0,0.0,0.0,0.0,0.0,0.0,0.0,0.0,0.0,0.0,0.0,0.0,0.0,-1.5981,-1.699,-1.6964,-1.682,0.0,0.0,-1.6579,-1.6497,-1.6137,0.0,0.0,0.0,0.0,0.0,0.0,0.0,0.0,0.0,0.0,0.0,0.0,0.0,0.0,0.0,0.0,0.0,0.0,0.0,0.0,0.0,0.0,0.0,0.0,0.0,0.0,0.0,0.0,0.0,0.0,0.0,0.0,0.0,0.0,0.0,0.0,0.0,0.0,0.0,0.0,0.0,0.0,0.0,0.0,0.0,0.0,0.0,0.0,0.0,0.0,0.0,0.0,0.0,0.0,0.0,-1.8516,-1.8559,-2.0351,-2.1107,-2.0656,-2.1325,-2.1275,-2.0365,-2.0027,-1.9141,0.0,0.0,0.0,0.0,0.0,0.0,0.0,0.0,0.0,0.0,0.0,0.0,0.0,0.0,0.0,0.0,0.0,0.0,0.0,0.0,0.0,0.0,0.0,0.0,0.0,0.0,0.0,0.0,0.0,0.0,0.0,0.0,0.0,0.0,0.0,0.0,0.0,0.0,0.0,0.0,0.0,0.0,-1.756,-1.7542,0.0,0.0,0.0,-1.712,-1.6756,0.0,0.0,0.0,0.0,0.0,0.0,0.0,0.0,0.0,0.0,0.0,0.0,0.0,0.0,0.0,0.0,0.0,0.0,0.0,0.0,0.0,0.0,0.0,0.0,0.0,0.0,0.0,0.0,0.0,0.0,0.0,0.0,0.0,0.0,0.0,0.0,0.0,0.0,0.0,0.0,0.0,0.0,0.0,0.0,0.0,0.0,0.0,0.0,0.0,0.0,0.0,0.0,0.0,0.0,0.0,0.0,0.0,-1.8286,-2.0002,-2.0727,-2.0382,-2.0864,-2.0843,-2.0164,-1.9682,0.0,0.0,0.0,0.0,0.0,0.0,0.0,0.0,0.0,0.0,0.0,0.0,0.0,0.0,0.0,0.0,0.0,0.0,0.0,0.0,0.0,0.0,0.0,0.0,0.0,0.0,0.0,-0.8959,0.0,0.0,0.0,0.0,0.0,0.0,0.0,0.0,0.0,0.0,0.0,0.0,0.0,0.0,-1.7379,-1.8029,-1.7932,-1.7662,0.0,0.0,-1.7345,-1.6865,-1.6909,-1.6804,0.0,0.0,0.0,0.0,0.0,0.0,0.0,0.0,0.0,0.0,0.0,0.0,0.0,0.0,0.0,0.0,0.0,0.0,0.0,0.0,0.0,0.0,0.0,0.0,0.0,0.0,0.0,0.0,0.0,0.0,0.0,0.0,0.0,0.0,0.0,0.0,0.0,0.0,0.0,0.0,0.0,0.0,0.0,0.0,0.0,0.0,0.0,0.0,0.0,0.0,0.0,0.0,0.0,0.0,0.0,-1.8169,-1.9419,-2.0317,-2.073,-2.0229,-2.0133,-2.0514,-1.9095,-1.8037,0.0,0.0,0.0,0.0,0.0,0.0,0.0,0.0,0.0,0.0,0.0,0.0,0.0,0.0,0.0,0.0,0.0,0.0,0.0,0.0,0.0,0.0,0.0,0.0,0.0,0.0,0.0,0.0,0.0,0.0,0.0,0.0,0.0,0.0,0.0,0.0,0.0,0.0,0.0,0.0,0.0,-1.7346,-1.825,-1.8108,-1.7841,0.0,0.0,-1.7307,-1.7274,-1.6863,-1.6518,-1.6464,0.0,0.0,0.0,0.0,0.0,0.0,0.0,0.0,0.0,0.0,0.0,0.0,0.0,0.0,0.0,0.0,0.0,0.0,0.0,0.0,0.0,0.0,0.0,0.0,0.0,0.0,0.0,0.0,0.0,0.0,0.0,0.0,0.0,0.0,0.0,0.0,0.0,0.0,0.0,0.0,0.0,0.0,0.0,0.0,0.0,0.0,0.0,0.0,0.0,0.0,0.0,0.0,0.0,-1.7711,-1.7823,-1.9592,-2.0394,-2.0189,-2.0254,-2.0237,-2.0105,-1.8867,-1.7953,0.0,0.0,0.0,0.0,0.0,0.0,0.0,0.0,0.0,0.0,0.0,0.0,0.0,0.0,0.0,0.0,0.0,0.0,0.0,0.0,0.0,0.0,0.0,0.0,0.0,0.0,0.0,0.0,-1.0978,-1.1119,-1.1149,0.0,0.0,0.0,0.0,0.0,0.0,0.0,0.0,0.0,0.0,-1.7412,-1.8552,-1.8486,0.0,0.0,-1.8269,-1.817,-1.8181,-1.764,-1.7188,-1.7071,-1.6744,0.0,0.0,0.0,0.0,0.0,0.0,0.0,0.0,0.0,0.0,0.0,0.0,0.0,0.0,0.0,0.0,0.0,0.0,0.0,0.0,0.0,0.0,0.0,0.0,0.0,0.0,0.0,0.0,0.0,0.0,0.0,0.0,0.0,0.0,0.0,0.0,0.0,0.0,0.0,0.0,0.0,0.0,0.0,0.0,0.0,0.0,0.0,0.0,0.0,0.0,0.0,0.0,-1.7613,-1.8054,-1.9691,-2.0447,-2.029,-2.049,-2.0418,-2.0049,-1.8999,-1.8109,0.0,0.0,0.0,0.0,0.0,0.0,0.0,0.0,0.0,0.0,0.0,0.0,0.0,0.0,0.0,0.0,0.0,0.0,0.0,0.0,0.0,0.0,0.0,0.0,0.0,0.0,0.0,0.0,-1.1264,-1.1435,-1.1868,0.0,0.0,0.0,0.0,0.0,0.0,0.0,0.0,0.0,0.0,-1.7691,-1.8668,-1.8736,-1.8699,-1.8745,-1.8627,-1.8536,-1.8566,-1.8154,-1.7819,-1.7805,0.0,0.0,0.0,0.0,0.0,0.0,0.0,0.0,0.0,0.0,0.0,0.0,0.0,0.0,0.0,0.0,0.0,0.0,0.0,0.0,0.0,0.0,0.0,0.0,0.0,0.0,0.0,0.0,0.0,0.0,-1.8816,0.0,0.0,0.0,0.0,0.0,0.0,0.0,0.0,0.0,0.0,0.0,0.0,0.0,0.0,0.0,0.0,0.0,0.0,0.0,0.0,0.0,0.0,-1.8103,-1.9148,-1.9622,-2.031,-2.1296,-2.088,-2.0627,-2.0574,-1.954,-1.847,-1.7399,0.0,0.0,0.0,0.0,0.0,0.0,0.0,0.0,0.0,0.0,0.0,0.0,0.0,0.0,0.0,0.0,0.0,0.0,0.0,0.0,0.0,0.0,0.0,0.0,0.0,0.0,-1.1689,-1.1601,-1.183,0.0,0.0,0.0,0.0,0.0,0.0,0.0,0.0,0.0,0.0,-1.7604,-1.8189,-1.8572,-1.8777,-1.883,-1.8477,-1.8344,-1.8242,-1.8253,-1.8221,-1.8301,0.0,0.0,0.0,0.0,0.0,0.0,0.0,0.0,0.0,0.0,0.0,0.0,0.0,0.0,0.0,0.0,0.0,0.0,0.0,0.0,0.0,0.0,0.0,0.0,0.0,0.0,0.0,-2.0373,-2.0052,0.0,0.0,0.0,0.0,0.0,0.0,0.0,0.0,0.0,0.0,0.0,-2.0971,-2.0955,0.0,0.0,0.0,0.0,0.0,0.0,0.0,0.0,0.0,0.0,0.0,0.0,-1.8429,-1.9078,-1.9904,-2.0682,-2.1368,-2.1223,-2.1127,-2.1139,-1.9744,-1.8169,-1.638,0.0,0.0,0.0,0.0,0.0,0.0,0.0,0.0,0.0,0.0,0.0,0.0,0.0,0.0,0.0,0.0,0.0,0.0,0.0,0.0,0.0,0.0,0.0,0.0,0.0,-1.3461,0.0,0.0,0.0,0.0,0.0,0.0,0.0,0.0,0.0,0.0,0.0,-1.5656,-1.7258,-1.7716,-1.8199,-1.9017,-1.9274,-1.9328,0.0,0.0,0.0,0.0,0.0,0.0,0.0,0.0,0.0,0.0,0.0,0.0,0.0,0.0,-1.6413,-1.6344,-1.6527,-1.6669,-1.6608,0.0,0.0,0.0,0.0,0.0,0.0,0.0,0.0,0.0,0.0,0.0,0.0,0.0,0.0,-2.2409,0.0,-2.2151,0.0,0.0,0.0,0.0,0.0,0.0,0.0,0.0,-2.1458,-2.1811,-2.1982,-2.1952,-2.1896,0.0,-2.1177,-2.0275,0.0,0.0,0.0,0.0,0.0,0.0,0.0,0.0,-1.8909,-1.9567,-2.043,-2.1151,-2.1644,-2.1668,-2.1596,-2.138,-1.9829,-1.835,-1.6955,-1.6211,-1.549,0.0,0.0,0.0,0.0,0.0,0.0,0.0,0.0,0.0,0.0,0.0,0.0,0.0,0.0,0.0,0.0,0.0,0.0,0.0,0.0,0.0,0.0,0.0,-1.3857,0.0,0.0,0.0,0.0,0.0,0.0,0.0,0.0,0.0,-1.5057,-1.5436,-1.622,-1.7645,-1.8135,-1.8644,-1.937,0.0,0.0,0.0,0.0,0.0,0.0,0.0,-1.9147,-1.9447,-1.9047,-1.8557,-1.81,-1.78,-1.7726,-1.8078,0.0,0.0,-1.7871,-1.8014,-1.8227,-1.8214,-1.8518,-1.8806,-1.8999,-1.9312,-1.9552,0.0,0.0,0.0,0.0,0.0,0.0,0.0,0.0,-2.438,-2.4176,0.0,-2.3511,0.0,0.0,0.0,0.0,0.0,-2.1453,0.0,0.0,-2.2834,-2.3312,-2.3758,-2.3746,-2.3517,-2.3023,-2.2493,-2.1945,-2.1361,-1.9604,0.0,0.0,0.0,0.0,0.0,0.0,-1.9579,-2.0591,-2.1115,-2.1656,-2.2161,-2.2185,-2.1933,-2.1404,-1.9901,-1.9059,-1.8903,-1.7015,-1.5888,-1.5804,-1.4883,0.0,0.0,0.0,0.0,0.0,0.0,0.0,0.0,0.0,0.0,0.0,0.0,0.0,0.0,0.0,0.0,0.0,0.0,0.0,0.0,-1.3305,0.0,0.0,0.0,0.0,0.0,0.0,0.0,0.0,0.0,0.0,-1.5408,-1.642,-1.7453,-1.8111,0.0,0.0,0.0,0.0,-2.0543,-2.0339,-2.0133,-1.9996,-1.9996,-1.9619,-1.9526,-2.0031,0.0,0.0,-1.7937,-1.8196,-1.8679,-1.9189,-1.9994,-2.02,-1.879,-1.8678,-1.8943,-1.9605,-1.9844,-2.0073,-2.0526,-2.0718,-2.0791,-2.7708,0.0,0.0,0.0,0.0,-2.5875,-2.6008,-2.5894,-2.6388,-2.6327,-2.574,-2.5348,0.0,0.0,0.0,0.0,0.0,0.0,-2.2894,-2.3413,-2.3538,-2.3661,-2.3806,-2.3806,-2.3722,-2.3577,-2.3433,-2.3071,-2.2529,-2.1596,-2.0507,-1.9211,0.0,0.0,0.0,0.0,-2.0494,-2.1127,-2.132,-2.1656,-2.2173,-2.2197,-2.1945,-2.1416,-2.0959,-2.0177,-1.9035,-1.841,-1.7531,-1.6415,-1.573,0.0,0.0,0.0,0.0,0.0,0.0,0.0,0.0,0.0,0.0,0.0,0.0,0.0,0.0,0.0,0.0,0.0,0.0,0.0,-1.4365,-1.4699,-1.4834,0.0,0.0,0.0,0.0,0.0,0.0,0.0,0.0,0.0,-1.7424,-1.764,-1.8217,0.0,0.0,-2.0053,-2.0522,-2.0889,-2.0922,-2.0446,-2.0305,0.0,0.0,-2.006,-2.0142,-2.0271,-2.0201,-2.011,-2.0086,-2.0215,-2.0403,-2.0644,-2.134,-2.1797,-2.1684,-2.0927,-2.0433,-2.0433,-2.0971,-2.1512,-2.1728,-2.2306,-2.2879,-3.0131,-2.841,-2.7982,-2.7626,-2.7457,-2.8027,-2.8113,-2.7873,-2.8179,-2.7982,-2.737,-2.6846,-2.6177,-2.5409,-2.4511,0.0,0.0,0.0,-2.4386,-2.4699,-2.4927,-2.5023,-2.4999,-2.4795,-2.4733,-2.4709,-2.4266,-2.3905,-2.358,-2.3075,-2.2361,-2.1373,0.0,0.0,-2.0129,-2.0634,-2.1067,-2.1392,-2.1608,-2.1873,-2.2185,-2.2197,-2.2029,-2.1728,-2.1512,-2.0851,-1.9684,-1.9215,-1.8458,-1.7279,-1.65,-1.5646,0.0,0.0,0.0,0.0,0.0,0.0,0.0,0.0,0.0,0.0,0.0,-1.1502,0.0,0.0,0.0,0.0,-1.3905,-1.4586,-1.5152,-1.5388,0.0,0.0,0.0,0.0,0.0,0.0,0.0,-1.7241,-1.755,-1.8094,-1.9053,-1.9147,-1.9431,-2.0183,-2.0454,-2.0733,-2.1051,0.0,-2.1178,-2.0736,-2.0555,-2.041,-2.0275,-2.0185,-2.0216,-2.0359,-2.0694,-2.0977,-2.1093,-2.135,-2.1559,-2.1803,-2.2263,-2.282,-2.3147,-2.2633,-2.2133,-2.1914,-2.2366,-2.2818,-2.2823,-2.3372,-2.3806,-3.2051,-3.1499,-3.0482,-2.9836,-2.9564,-3.0062,-2.9991,-2.9662,-2.9626,-2.9266,-2.8595,-2.799,-2.7176,-2.6142,-2.5648,0.0,-2.5456,-2.5937,-2.6142,-2.6178,-2.6657,-2.6885,-2.6861,-2.6394,-2.6166,-2.6142,-2.5096,-2.4604,-2.4626,-2.4097,-2.3866,-2.3806,-2.1843,-2.0868,-2.0887,-2.1356,-2.1584,-2.1608,-2.2041,-2.2246,-2.2197,-2.2197,-2.2197,-2.2185,-2.1728,-2.1199,-2.0593,-1.966,-1.8831,-1.8217,-1.7243,-1.6235,-1.5133,0.0,0.0,0.0,0.0,0.0,0.0,0.0,0.0,0.0,0.0,0.0,0.0,0.0,0.0,0.0,-1.3924,0.0,-1.5574,-1.5605,0.0,0.0,0.0,-1.6535,-1.7081,-1.7395,-1.7771,-1.832,0.0,0.0,-2.0422,-2.0797,-2.0936,-2.0732,-2.1086,-2.1377,-2.1374,-2.1426,-2.134,-2.1102,-2.0778,-2.0554,-2.0544,-2.0253,-2.024,-2.0627,-2.1023,-2.1431,-2.1536,-2.1992,-2.2387,-2.2547,-2.2993,-2.3423,-2.358,-2.3793,-2.3926,-2.3878,-2.3866,-2.3854,-2.3842,-2.3926,-2.4023,-3.342,-3.3244,-3.2579,-3.1606,-3.0491,-3.0602,-3.0416,-2.9989,-2.9977,-2.9916,-2.9653,-2.8739,-2.7729,-2.6693,-2.6561,-2.6513,-2.6513,-2.6645,-2.6705,-2.6693,-2.6837,-2.6885,-2.6885,-2.6765,-2.6693,-2.6645,-2.6045,-2.5721,-2.5685,-2.4783,-2.4338,-2.4302,-2.3448,-2.3035,-2.3059,-2.3168,-2.324,-2.3252,-2.2963,-2.2626,-2.2209,-2.2197,-2.2197,-2.2197,-2.2065,-2.1572,-2.0629,-2.0341,-1.96,-1.8277,-1.7928,-1.7135,-1.5684,-1.5514,0.0,0.0,0.0,0.0,0.0,0.0,0.0,0.0,0.0,-1.2442,-1.308,0.0,-1.4139,0.0,-1.4825,-1.5379,-1.5247,-1.5669,0.0,0.0,-1.7022,-1.7582,-1.8216,-1.8569,-1.9108,-2.0021,-2.0026,-2.038,-2.1406,-2.1798,-2.1928,-2.1903,-2.1861,-2.1912,-2.2093,-2.1907,-2.1604,-2.1263,-2.1062,-2.0978,-2.0843,-2.0964,-2.1268,-2.185,-2.2173,-2.2468,-2.2761,-2.3307,-2.3714,-2.3797,-2.4248,-2.4636,-2.4683,-2.4846,-2.4927,-2.4903,-2.4626,-2.435,-2.4338,-2.4638,-2.4939,-3.4274,-3.4248,-3.3935,-3.3196,-3.2179,-3.1712,-3.1235,-3.0814,-3.0543,-3.0434,-3.0386,-2.9569,-2.8895,-2.8354,-2.8342,-2.833,-2.833,-2.8102,-2.7981,-2.7969,-2.7702,-2.7594,-2.7582,-2.7366,-2.7246,-2.7222,-2.6731,-2.6346,-2.6069,-2.5516,-2.5107,-2.4832,-2.4602,-2.448,-2.4434,-2.4035,-2.3806,-2.3806,-2.3517,-2.3228,-2.2939,-2.2927,-2.2818,-2.2558,-2.2578,-2.1933,-2.067,-2.0581,-1.9985,-1.8638,-1.8326,-1.7676,-1.6583,-1.6283,-1.567,0.0,0.0,0.0,0.0,0.0,0.0,0.0,0.0,0.0,0.0,0.0,-1.4526,-1.4667,-1.5293,-1.5744,-1.5842,-1.6433,-1.7002,-1.749,-1.8125,-1.8818,-1.9501,-1.9843,-2.0351,-2.1085,-2.0985,-2.1159,-2.207,-2.2246,-2.24,-2.2696,-2.2498,-2.2327,-2.2339,-2.2063,-2.1693,-2.1397,-2.1244,-2.1205,-2.1167,-2.1512,-2.1911,-2.2327,-2.274,-2.3075,-2.3372,-2.4007,-2.4454,-2.449,-2.4873,-2.5182,-2.5182,-2.5253,-2.5312,-2.5276,-2.5083,-2.4868,-2.4867,-2.5107,-2.5312,-3.4781,-3.4781,-3.4751,-3.4409,-3.3937,-3.3002,-3.2284,-3.1777,-3.1247,-3.0983,-3.0843,-3.0386,-3.0146,-3.0098,-3.0086,-3.0086,-3.0062,-2.9617,-2.94,-2.9364,-2.8859,-2.8607,-2.8595,-2.8065,-2.7825,-2.7762,-2.7246,-2.6741,-2.631,-2.6166,-2.5853,-2.542,-2.5336,-2.5312,-2.5276,-2.441,-2.3929,-2.3902,-2.389,-2.3866,-2.3806,-2.3806,-2.3553,-2.3047,-2.3011,-2.227,-2.0803,-2.0658,-2.0141,-1.9155,-1.865,-1.8169,-1.764,-1.7243,-1.6739,0.0,-1.5572,0.0,0.0,0.0,0.0,0.0,0.0,0.0,0.0,-1.4447,-1.4857,-1.5624,-1.5766,-1.6118,-1.689,-1.7462,-1.8009,-1.8621,-1.9331,-2.0012,-2.0694,-2.1063,-2.1406,-2.1917,-2.1844,-2.1996,-2.2626,-2.257,-2.271,-2.3125,-2.3082,-2.2886,-2.2649,-2.2229,-2.1835,-2.1655,-2.1512,-2.154,-2.1693,-2.1997,-2.2252,-2.2515,-2.2964,-2.3409,-2.3593,-2.4236,-2.4754,-2.479,-2.504,-2.5276,-2.5276,-2.5312,-2.5312,-2.5312,-2.5288,-2.5264,-2.5264,-2.5276,-2.5312,-3.5345,-3.5307,-3.4868,-3.4454,-3.3986,-3.3789,-3.3186,-3.231,-3.1801,-3.132,-3.0922,-3.0771,-3.0537,-3.0098,-3.0086,-3.0086,-3.0074,-2.9989,-2.9929,-2.9917,-2.94,-2.916,-2.9112,-2.8607,-2.8366,-2.833,-2.7786,-2.7512,-2.7366,-2.6526,-2.6045,-2.5937,-2.5528,-2.5312,-2.53,0.0,0.0,0.0,-2.4374,-2.4181,-2.3818,-2.3806,-2.3553,-2.3035,-2.3011,0.0,-2.132,-2.081,-2.0322,-1.9712,-1.9555,0.0,0.0,0.0,0.0,0.0,0.0,0.0,0.0,0.0,0.0,0.0,-1.6765,-1.6434,-1.529,-1.5527,-1.6142,-1.6991,-1.7012,-1.7234,-1.788,-1.8152,-1.8773,-2.0017,-2.0411,-2.0919,-2.1699,-2.1855,-2.2147,-2.2769,-2.2695,-2.2813,-2.3296,-2.3385,-2.3356,-2.339,-2.3641,-2.3824,-2.3808,-2.2961,-2.2386,-2.2402,-2.23,-2.2327,-2.2665,-2.2617,-2.274,-2.3038,-2.3346,-2.3593,-2.3824,-2.4236,-2.4646,-2.4754,-2.4992,-2.5182,-2.5276,-2.5312,-2.5312,-2.5312,-2.5312,-2.5312,-2.5312,-2.5312,-2.5312,-3.5956,0.0,-3.5655,-3.531,0.0,-3.4561,-3.4025,-3.3397,-3.2464,-3.1769,-3.1308,-3.1308,-3.1163,-3.091,-3.0867,-3.0867,-3.0898,-3.0603,-3.0525,-3.0446,-2.9929,-2.9544,-2.9292,-2.9027,-2.8763,-2.8498,-2.8246,-2.793,-2.7666,-2.7126,-2.6767,-2.6514,-2.6201,-2.5973,-2.5697,-2.5444,-2.518,-2.4868,-2.4868,-2.4783,-2.4542,-2.453,-2.4157,-2.3445,0.0,0.0,0.0,0.0,0.0,0.0,0.0,0.0,0.0,0.0,0.0,-1.942,-1.9009,-1.8652,-1.8312,-1.8258,-1.8242,-1.8232,-1.8777,-1.8501,-1.7067,-1.7128,-1.7585,-1.8245,-1.8481,-1.874,-1.911,-1.9463,-2.0025,-2.0857,-2.129,-2.1739,-2.2145,-2.2495,-2.2836,-2.3153,-2.3436,-2.3705,-2.3955,-2.4224,-2.4348,-2.4359,-2.455,-2.4833,-2.4914,-2.3989,-2.321,-2.3045,-2.3001,-2.3049,-2.3113,-2.3187,-2.3187,-2.3446,-2.3629,-2.3776,-2.3897,-2.4309,-2.4693,-2.479,-2.5016,-2.5206,-2.5276,-2.5312,-2.5312,-2.5312,-2.5312,-2.5312,-2.5312,-2.5312,-2.5312,-3.6417,-3.6417,-3.6417,-3.6228,-3.5978,-3.5295,-3.4766,-3.4313,0.0,0.0,0.0,-3.1862,-3.1801,-3.1717,-3.1705,-3.1705,-3.1681,-3.1259,-3.1055,-3.1043,-3.0513,-3.0001,-2.9581,-2.9484,-2.916,-2.8667,-2.8655,-2.8378,-2.7834,-2.7726,-2.7474,-2.7054,-2.6946,-2.6657,-2.625,-2.5817,-2.5552,-2.5444,-2.536,-2.5312,-2.5312,-2.5312,-2.4855,-2.3962,-2.3938,-2.3288,-2.1885,-2.1644,-2.1332,-2.0916,-2.0791,-2.0725,-2.0737,-2.0906,-2.0995,-2.0858,-2.0418,-2.0094,-2.0039,-1.9841,-1.9866,-2.0192,-2.0696,-2.04,-1.9039,-1.8932,-1.9154,-1.9552,-1.9975,-2.0273,-2.0472,-2.0906,-2.1367,-2.1764,-2.2288,-2.2659,-2.2816,-2.3272,-2.3675,-2.3709,-2.4247,-2.4608,-2.4657,-2.5011,-2.5344,-2.5477,-2.56,-2.5846,-2.607,-2.5257,-2.4348,-2.4056,-2.4108,-2.4018,-2.3947,-2.4029,-2.4047,-2.42,-2.4289,-2.4283,-2.4276,-2.4629,-2.4859,-2.4873,-2.5087,-2.5253,-2.5276,-2.5312,-2.5312,-2.5312,-2.5312,-2.5312,-2.5312,-2.5312,-2.5312,-3.6417,-3.6417,-3.6417,-3.6228,-3.6015,-3.5893,-3.5299,-3.4337,-3.3568,-3.2875,-3.2382,-3.2382,-3.2118,-3.1705,-3.1705,-3.1705,-3.1705,-3.1621,-3.1597,0.0,-3.1055,-3.0766,-3.0639,-3.0194,-2.9701,-2.922,-2.9184,-2.8919,-2.8402,-2.7957,-2.7642,-2.7522,-2.7114,-2.6861,-2.6777,-2.6705,-2.6466,-2.5997,-2.554,-2.5312,-2.5312,-2.5312,-2.5023,-2.4446,-2.441,-2.4121,-2.3481,-2.2558,-2.2053,-2.1988,-2.1536,-2.1296,-2.132,-2.2149,-2.245,-2.2041,-2.215,-2.2068,-2.1689,-2.1733,-2.1913,-2.2256,-2.2352,-2.1913,-2.0764,-2.0642,-2.0805,-2.1228,-2.1403,-2.1555,-2.1925,-2.2135,-2.2615,-2.3515,-2.3762,-2.4049,-2.4519,-2.4719,-2.4841,-2.4995,-2.5328,-2.5528,-2.5539,-2.5874,-2.6132,-2.6143,-2.6508,-2.6913,-2.701,-2.6517,-2.5998,-2.5867,-2.5791,-2.5791,-2.5637,-2.5768,-2.566,-2.5893,-2.5835,-2.5648,-2.531,-2.5411,-2.5392,-2.5135,-2.5242,-2.5278,-2.5361,-2.5312,-2.5408,-2.5444,-2.5409,-2.5408,-2.5396,-2.5348,-2.5312,-3.6417,-3.6417,-3.6417,-3.631,-3.6193,-3.5908,-3.5425,-3.4798,-3.4318,-3.3681,-3.2959,-3.2923,-3.2635,-3.213,-3.2118,-3.1949,-3.1705,-3.1705,-3.1705,-3.1693,-3.1464,-3.1199,-3.0879,-3.0669,-3.0242,-2.9749,-2.9725,-2.9448,-2.8955,-2.8691,-2.8438,-2.8138,-2.7582,-2.7318,-2.7306,-2.7042,-2.6765,-2.6513,-2.6009,-2.56,-2.5324,-2.5312,-2.5024,-2.4508,-2.4496,-2.4278,-2.3818,-2.3336,-2.3083,-2.3083,-2.2855,-2.269,-2.2734,-2.318,-2.3336,-2.3107,-2.3203,-2.3206,-2.2999,-2.3552,-2.3916,-2.4026,-2.4531,-2.4574,-2.3935,-2.3065,-2.2827,-2.3442,-2.3594,-2.3735,-2.397,-2.3992,-2.422,-2.4734,-2.4724,-2.4786,-2.5027,-2.52,-2.5317,-2.5417,-2.5945,-2.6301,-2.6313,-2.678,-2.7191,-2.7254,-2.7625,-2.7901,-2.798,-2.7699,-2.7201,-2.6638,-2.642,-2.6356,-2.6318,-2.6268,-2.623,-2.6306,-2.6306,-2.6212,-2.6026,-2.604,-2.6083,-2.5967,-2.6006,-2.6092,-2.6129,-2.6153,-2.6153,-2.6153,-2.6153,-2.6069,-2.5841,-2.5528,-2.5324,-3.6417,-3.6417,-3.6417,-3.6417,-3.637,-3.5895,-3.5572,-3.5271,-3.5017,-3.4426,-3.3681,-3.3525,-3.3176,-3.2695,-3.2563,-3.2262,-3.1922,-3.1765,-3.1705,-3.1705,-3.1705,-3.1488,-3.1127,-3.1103,-3.0783,-3.0314,-3.0308,-3.0001,-2.952,-2.9472,-2.9208,-2.8679,-2.815,-2.7897,-2.7858,-2.7462,-2.7198,-2.7054,-2.6695,-2.6214,-2.5709,-2.5552,-2.53,-2.4915,-2.4759,-2.4518,-2.4145,-2.4035,-2.3974,-2.3962,-2.3866,-2.3806,-2.3806,-2.3914,-2.3974,-2.3974,-2.4083,-2.4203,-2.436,-2.5143,-2.5601,-2.5529,-2.622,-2.6619,-2.6476,-2.5417,-2.4834,-2.5297,-2.5435,-2.5524,-2.5512,-2.5535,-2.5627,-2.573,-2.562,-2.5593,-2.5633,-2.5763,-2.5853,-2.5926,-2.6551,-2.7084,-2.7233,-2.7622,-2.8011,-2.8199,-2.8391,-2.851,-2.851,-2.851,-2.8047,-2.7391,-2.7043,-2.7014,-2.6813,-2.6836,-2.686,-2.6801,-2.6836,-2.6851,-2.6756,-2.6762,-2.6743,-2.6685,-2.6762,-2.6801,-2.6849,-2.6849,-2.6813,-2.6777,-2.6753,-2.6705,-2.637,-2.6021,-2.5576,-3.6417,-3.6417,-3.6417,-3.6417,-3.637,-3.6098,-3.5812,-3.5572,-3.5271,-3.4981,-3.4595,-3.4126,-3.3693,-3.3188,-3.2731,-3.2503,-3.2382,-3.1889,-3.1729,-3.1729,-3.1705,-3.1681,-3.1609,-3.1621,-3.1356,-3.0898,-3.0838,-3.053,-3.0037,-3.0001,-2.9737,-2.9232,-2.8703,-2.8438,-2.8426,-2.8366,-2.8114,-2.7657,-2.7558,-2.7282,-2.6753,-2.6298,-2.5997,-2.5949,-2.548,-2.518,-2.5168,-2.4699,-2.4458,-2.4422,-2.4073,-2.3842,-2.389,-2.4218,-2.447,-2.4506,-2.4915,-2.536,-2.5841,-2.6417,-2.6729,-2.6753,-2.6812,-2.7024,-2.7263,-2.715,-2.6786,-2.6405,-2.6227,-2.6262,-2.623,-2.6265,-2.6449,-2.6835,-2.6748,-2.6804,-2.71,-2.7111,-2.7082,-2.7302,-2.7521,-2.7851,-2.7952,-2.8223,-2.8431,-2.8431,-2.8471,-2.851,-2.851,-2.851,-2.8498,-2.8302,-2.829,-2.8254,-2.8191,-2.8275,-2.8103,-2.8179,-2.8239,-2.7972,-2.766,-2.7505,-2.7498,-2.7193,-2.6992,-2.7054,-2.7006,-2.6898,-2.6982,-2.7102,-2.7054,-2.6898,-2.6825,-2.6693,-2.6333,-3.6417,-3.6417,-3.6417,-3.6417,-3.637,-3.6098,-3.592,-3.5812,-3.5572,-3.5368,-3.5259,-3.504,-3.446,-3.3717,-3.3501,-3.326,-3.2935,-3.2406,-3.2154,-3.2175,-3.1862,-3.1705,-3.1705,-3.1705,-3.1585,-3.1404,-3.138,-3.1115,-3.0579,-3.0242,-2.9977,-2.9737,-2.9232,-2.8979,-2.8943,-2.8667,-2.839,-2.8198,-2.8198,-2.805,-2.7801,-2.7019,-2.6561,-2.6537,-2.6345,-2.6225,-2.6213,-2.6045,-2.5913,-2.5901,-2.5697,-2.5636,-2.5636,-2.5805,-2.5913,-2.5913,-2.6117,-2.6321,-2.6574,-2.7054,-2.7366,-2.7366,-2.7654,-2.793,-2.8032,-2.8067,-2.792,-2.7663,-2.7498,-2.7419,-2.7396,-2.7407,-2.7502,-2.7703,-2.7603,-2.7537,-2.7701,-2.7667,-2.7638,-2.7748,-2.795,-2.8099,-2.8219,-2.8391,-2.8471,-2.851,-2.851,-2.851,-2.851,-2.851,-2.851,-2.851,-2.851,-2.851,-2.851,-2.851,-2.851,-2.851,-2.851,-2.8366,-2.8258,-2.8186,-2.8089,-2.7861,-2.7801,-2.775,-2.7882,-2.7861,-2.7861,-2.775,-2.7486,-2.7354,-2.7404,-2.7114,-2.6681,-3.687,-3.6797,-3.6694,-3.6543,-3.637,-3.6193,-3.6051,-3.5968,-3.5777,-3.5656,-3.562,-3.5633,-3.516,-3.4461,-3.4209,-3.3932,-3.3558,-3.3005,-3.2719,-3.2659,-3.2154,-3.1934,-3.1934,-3.1777,-3.1705,-3.1705,-3.1693,-3.15,-3.1103,-3.0555,-3.0302,-3.0218,-2.9773,-2.952,-2.9448,-2.8979,-2.8727,-2.8715,-2.8607,-2.851,-2.839,-2.7765,-2.7258,-2.7126,-2.697,-2.6885,-2.6885,-2.6885,-2.6885,-2.6885,-2.6885,-2.6885,-2.6885,-2.6885,-2.6885,-2.691,-2.7042,-2.7102,-2.7114,-2.7645,-2.7945,-2.793,-2.8306,-2.851,-2.8534,-2.8643,-2.8715,-2.8687,-2.8726,-2.8657,-2.8311,-2.8299,-2.8299,-2.8259,-2.8122,-2.8002,-2.8002,-2.7962,-2.7933,-2.8002,-2.8111,-2.8207,-2.8299,-2.8419,-2.851,-2.851,-2.851,-2.851,-2.851,-2.851,-2.851,-2.851,-2.851,-2.851,-2.851,-2.851,-2.851,-2.851,-2.851,-2.851,-2.851,-2.8498,-2.8498,-2.8222,-2.8438,-2.8474,-2.8306,-2.8402,-2.8462,-2.8426,-2.8146,-2.7909,-2.7945,-2.7558,-2.7402,-3.7927,-3.7839,-3.7362,-3.6908,-3.643,-3.6383,-3.6241,-3.6015,-3.6015,-3.586,-3.5668,-3.562,-3.5548,-3.5462,-3.4783,-3.4373,-3.4229,-3.3582,-3.3294,-3.32,-3.2707,-3.2454,-3.243,-3.1982,-3.1717,-3.1705,-3.1705,-3.1681,-3.1609,-3.1139,-3.0886,-3.0807,-3.0356,-3.005,-2.9977,-2.9532,-2.9268,-2.922,-2.8847,-2.8546,-2.8534,-2.8462,-2.8174,-2.7654,-2.7186,-2.697,-2.6946,-2.691,-2.6922,-2.691,-2.6958,-2.6934,-2.6922,-2.6934,-2.6958,-2.6994,-2.7428,-2.7642,-2.7702,-2.815,-2.8426,-2.8422,-2.851,-2.8534,-2.8619,-2.9003,-2.9256,-2.9268,-2.9653,-2.9491,-2.8735,-2.8551,-2.8543,-2.8519,-2.8311,-2.8231,-2.8215,-2.8066,-2.8002,-2.8139,-2.8219,-2.8299,-2.8431,-2.851,-2.851,-2.851,-2.851,-2.851,-2.851,-2.851,-2.851,-2.851,-2.851,-2.851,-2.851,-2.851,-2.851,-2.851,-2.851,-2.851,-2.851,-2.851,-2.851,-2.851,-2.851,-2.851,-2.851,-2.851,-2.8498,-2.8486,-2.8486,-2.8366,-2.8282,-2.8414,-2.827,-3.8002,-3.799,-3.7789,-3.7387,-3.6958,-3.6933,-3.6661,-3.6275,-3.6288,-3.6181,-3.6133,-3.6086,-3.6121,-3.6073,-3.5662,-3.523,-3.4883,-3.429,-3.3906,-3.3705,-3.3248,-3.2827,-3.2491,-3.2286,-3.1985,-3.1741,-3.1705,-3.1705,-3.1693,-3.1512,-3.1428,-3.1344,-3.0855,-3.0591,-3.0506,-3.0074,-2.9809,-2.9785,-2.9593,-2.9364,-2.9039,-2.9015,-2.8763,-2.8258,-2.8041,-2.7906,-2.7945,-2.7945,-2.7933,-2.7945,-2.7945,-2.7906,-2.7945,-2.7906,-2.7906,-2.7957,-2.8114,-2.8222,-2.8246,-2.839,-2.851,-2.8534,-2.8835,-2.9015,-2.91,-2.9484,-2.9797,-2.9845,-2.9941,-2.9845,-2.9581,-2.922,-2.9003,-2.8979,-2.8687,-2.8558,-2.8726,-2.8538,-2.8311,-2.8391,-2.8391,-2.8431,-2.8471,-2.851,-2.851,-2.851,-2.851,-2.851,-2.851,-2.851,-2.851,-2.851,-2.851,-2.851,-2.851,-2.851,-2.851,-2.851,-2.851,-2.851,-2.851,-2.851,-2.851,-2.851,-2.851,-2.851,-2.851,-2.851,-2.851,-2.851,-2.851,-2.851,-2.851,-2.851,-2.851,-3.8442,-3.8291,-3.8291,-3.7952,-3.7462,-3.745,-3.7136,-3.6707,-3.6669,-3.6568,-3.6443,-3.6417,-3.6417,-3.637,-3.6193,-3.5895,-3.544,-3.4894,-3.4545,-3.4246,-3.3718,-3.3344,-3.2996,-3.2659,-3.231,-3.1994,-3.1777,-3.1705,-3.1705,-3.1705,-3.1705,-3.1669,-3.1332,-3.112,-3.1048,-3.0645,-3.035,-3.0326,-3.017,-2.9881,-2.9593,-2.9556,-2.9388,-2.9051,-2.8859,-2.8679,-2.8534,-2.851,-2.851,-2.851,-2.851,-2.851,-2.851,-2.851,-2.851,-2.851,-2.851,-2.851,-2.8534,-2.8667,-2.8775,-2.8787,-2.9232,-2.9544,-2.9581,-3.0037,-3.029,-3.0362,-3.053,-3.0555,-3.0314,-3.0013,-2.9749,-2.9569,-2.9232,-2.916,-2.946,-2.9076,-2.8739,-2.8507,-2.8471,-2.851,-2.851,-2.851,-2.851,-2.851,-2.851,-2.851,-2.851,-2.851,-2.851,-2.851,-2.851,-2.851,-2.851,-2.851,-2.851,-2.851,-2.851,-2.851,-2.851,-2.851,-2.851,-2.851,-2.851,-2.851,-2.851,-2.851,-2.851,-2.851,-2.851,-2.851,-2.851,-2.851,-2.851,-3.9346,-3.8906,-3.8881,-3.8542,-3.8052,-3.8015,-3.7701,-3.7236,-3.7186,-3.6996,-3.6669,-3.6493,-3.6505,-3.6443,-3.6395,-3.6228,-3.5847,-3.5403,-3.5041,-3.4739,-3.4222,-3.397,-3.3814,-3.3044,-3.2575,-3.2406,-3.1982,-3.1729,-3.1705,-3.1705,-3.1705,-3.1705,-3.1681,-3.1609,-3.1681,-3.112,-3.0922,-3.0838,-3.0513,-3.0182,-3.0098,-3.0086,-3.0037,-2.9941,-2.9532,-2.91,-2.8619,-2.8546,-2.851,-2.851,-2.851,-2.851,-2.851,-2.851,-2.851,-2.851,-2.851,-2.851,-2.8607,-2.8991,-2.922,-2.9364,-2.9785,-3.0086,-3.0158,-3.0567,-3.0879,-3.0939,-3.1271,-3.144,-3.1019,-3.0874,-3.0615,-3.0182,-2.9965,-2.9929,-2.9965,-2.9629,-2.9112,-2.8715,-2.8643,-2.8546,-2.8534,-2.8679,-2.8751,-2.8739,-2.8715,-2.8739,-2.8775,-2.8787,-2.8619,-2.857,-2.8643,-2.8691,-2.8607,-2.851,-2.851,-2.851,-2.851,-2.851,-2.851,-2.851,-2.851,-2.851,-2.851,-2.851,-2.851,-2.851,-2.851,-2.851,-2.851,-2.851,-2.851,-2.851,-2.851,-3.9584,-3.9446,-3.9446,-3.9107,-3.863,-3.8605,-3.8291,-3.7776,-3.7751,-3.7638,-3.745,-3.7086,-3.6923,-3.6883,-3.6606,-3.6288,-3.6003,-3.5812,-3.5524,-3.509,-3.4703,-3.433,-3.3982,-3.367,-3.313,-3.2587,-3.2334,-3.2022,-3.1777,-3.1717,-3.1705,-3.1705,-3.1705,-3.1705,-3.1705,-3.1536,-3.1452,-3.144,-3.1308,-3.1055,-3.0718,-3.0627,-3.0458,-3.011,-2.9929,-2.9749,-2.9581,-2.8895,-2.8534,-2.8534,-2.851,-2.851,-2.8522,-2.851,-2.851,-2.851,-2.851,-2.8703,-2.9015,-2.922,-2.9508,-2.9845,-3.0326,-3.0633,-3.073,-3.1139,-3.1428,-3.1452,-3.1621,-3.1609,-3.15,-3.1452,-3.1163,-3.0718,-3.0314,-3.0278,-3.047,-3.0146,-2.9641,-2.922,-2.9364,-2.9412,-2.922,-2.928,-2.9496,-2.952,-2.952,-2.9532,-2.9556,-2.9484,-2.94,-2.916,-2.91,-2.8967,-2.8871,-2.8835,-2.8823,-2.8727,-2.8655,-2.8522,-2.851,-2.851,-2.851,-2.851,-2.851,-2.851,-2.851,-2.851,-2.851,-2.851,-2.851,-2.851,-2.851,-2.851,-2.851,-3.9993,-3.9993,-4.0006,-3.9803,-3.9487,-3.9424,-3.9007,-3.8528,-3.8378,-3.8216,-3.7952,-3.7638,-3.7487,-3.7425,-3.7111,-3.6824,-3.6457,-3.6349,-3.5997,-3.5501,-3.5126,-3.4727,-3.4306,-3.4066,-3.3633,-3.2887,-3.2587,-3.2322,-3.1985,-3.1813,-3.1705,-3.1705,-3.1705,-3.1705,-3.1705,-3.1705,-3.1705,-3.1705,-3.1693,-3.1548,-3.124,-3.1211,-3.1055,-3.0742,-3.0482,-3.0386,-3.0314,-2.9544,-2.91,-2.9088,-2.91,-2.91,-2.91,-2.9112,-2.91,-2.91,-2.9124,-2.9268,-2.9569,-2.9809,-3.0013,-3.0398,-3.0922,-3.1211,-3.1271,-3.156,-3.1645,-3.1452,-3.1404,-3.1344,-3.1151,-3.1115,-3.0958,-3.0669,-3.0699,-3.0754,-3.0886,-3.0633,-3.0212,-2.9821,-2.9869,-2.9869,-2.9797,-2.9821,-3.0086,-3.0086,-3.0086,-3.0086,-3.0086,-3.0062,-2.9857,-2.9689,-2.9617,-2.9436,-2.9208,-2.916,-2.916,-2.9003,-2.8835,-2.8643,-2.851,-2.851,-2.851,-2.851,-2.851,-2.851,-2.851,-2.851,-2.851,-2.851,-2.851,-2.851,-2.851,-2.851,-2.851,-4.0542,-4.0555,-4.0555,-4.0542,-4.0402,-4.0185,-3.9804,-3.9373,-3.9121,-3.8743,-3.834,-3.8251,-3.8151,-3.8089,-3.8037,-3.7698,-3.7299,-3.703,-3.6659,-3.6083,-3.561,-3.5211,-3.4848,-3.4438,-3.3968,-3.3379,-3.2945,-3.268,-3.2527,-3.2175,-3.1777,-3.1837,-3.1837,-3.1729,-3.1729,-3.1705,-3.1705,-3.1705,-3.1705,-3.1693,-3.1657,-3.1669,-3.1657,-3.1597,-3.1187,-3.0958,-3.0874,-3.0477,-3.0122,-3.0086,-2.9953,-2.9929,-3.0037,-3.0086,-2.9989,-2.9941,-3.0062,-3.005,-3.0194,-3.0458,-3.0838,-3.0983,-3.1356,-3.1705,-3.1657,-3.1657,-3.1512,-3.1079,-3.0995,-3.0778,-3.0338,-3.0218,-3.0194,-3.0242,-3.0831,-3.1211,-3.1019,-3.097,-3.0718,-3.0332,-3.0158,-3.0158,-3.0224,-3.023,-3.0302,-3.0314,-3.0338,-3.0386,-3.0386,-3.0446,-3.0242,-3.0158,-3.0134,-2.9917,-2.9689,-2.9593,-2.9593,-2.9484,-2.928,-2.9039,-2.8703,-2.8619,-2.851,-2.851,-2.8595,-2.857,-2.8522,-2.8522,-2.8522,-2.851,-2.851,-2.851,-2.8522,-2.8522,-2.8558,-4.1071,-4.1071,-4.1071,-4.0984,-4.0795,-4.0732,-4.0516,-4.0198,-4.0121,-3.9943,-3.9765,-3.942,-3.9242,-3.9204,-3.8796,-3.849,-3.8352,-3.8083,-3.7549,-3.6952,-3.6526,-3.5988,-3.5477,-3.5233,-3.4772,-3.4156,-3.3867,-3.3639,-3.3104,-3.2909,-3.2668,-3.2298,-3.2262,-3.2058,-3.1789,-3.1741,-3.1705,-3.1705,-3.1705,-3.1705,-3.1705,-3.1705,-3.1705,-3.1693,-3.1548,-3.1476,-3.15,-3.138,-3.0886,-3.0146,-3.0086,-3.0086,-3.0158,-3.0158,-3.0182,-3.0182,-3.0158,-3.029,-3.0657,-3.085,-3.1103,-3.1452,-3.1597,-3.1705,-3.1705,-3.1705,-3.1452,-3.1055,-3.091,-3.0694,-3.0218,-3.005,-3.005,-3.017,-3.0651,-3.1163,-3.1356,-3.1488,-3.1296,-3.0807,-3.0995,-3.097,-3.0826,-3.097,-3.1144,-3.1199,-3.1187,-3.1187,-3.1079,-3.1103,-3.0995,-3.0778,-3.0615,-3.0386,-3.0194,-3.0086,-3.0025,-2.9977,-2.9821,-2.9629,-2.922,-2.8859,-2.8679,-2.851,-2.8787,-2.8847,-2.8655,-2.8546,-2.8534,-2.8751,-2.8691,-2.8775,-2.8607,-2.8558,-2.8643,-4.198,-4.198,-4.198,-4.1881,-4.1733,-4.1634,-4.1421,-4.1198,-4.106,-4.0946,-4.0818,-4.0672,-4.0566,-4.0465,-4.0203,-3.9891,-3.9635,-3.9293,-3.8728,-3.8023,-3.7407,-3.6584,-3.5827,-3.562,-3.5353,-3.4916,-3.4672,-3.4263,-3.3784,-3.3544,-3.3196,-3.2933,-3.2827,-3.2539,-3.2082,-3.201,-3.1877,-3.1765,-3.1705,-3.1705,-3.1705,-3.1705,-3.1705,-3.1705,-3.1705,-3.1705,-3.1705,-3.1705,-3.1392,-3.0922,-3.0759,-3.079,-3.079,-3.079,-3.0747,-3.079,-3.079,-3.0903,-3.1163,-3.1247,-3.138,-3.1633,-3.1705,-3.1705,-3.1705,-3.1705,-3.1488,-3.1007,-3.0934,-3.0537,-2.9893,-2.9569,-2.9556,-2.9713,-3.0037,-3.0434,-3.0995,-3.0983,-3.0898,-3.079,-3.0995,-3.1284,-3.0915,-3.1404,-3.1645,-3.1681,-3.1609,-3.1621,-3.1621,-3.1693,-3.1633,-3.132,-3.1187,-3.1019,-3.0934,-3.0807,-3.0735,-3.0694,-3.041,-3.0218,-2.9821,-2.9352,-2.9232,-2.9136,-2.9148,-2.9124,-2.9039,-2.9051,-2.928,-2.9376,-2.9196,-2.9136,-2.91,-2.8943,-2.8979,-4.3018,-4.3067,-4.3067,-4.3018,-4.2957,-4.2701,-4.2409,-4.2164,-4.1944,-4.1683,-4.1571,-4.1733,-4.1752,-4.1832,-4.1633,-4.1501,-4.1024,-4.055,-3.9842,-3.9046,-3.8123,-3.7073,-3.607,-3.5849,-3.5692,-3.5521,-3.5151,-3.4815,-3.4527,-3.4068,-3.3732,-3.352,-3.3461,-3.3114,-3.2635,-3.2503,-3.2214,-3.1922,-3.1753,-3.1717,-3.1705,-3.1705,-3.1705,-3.1705,-3.1705,-3.1705,-3.1705,-3.1705,-3.1645,-3.1693,-3.1705,-3.1609,-3.1633,-3.1669,-3.1645,-3.1597,-3.1548,-3.1585,-3.1669,-3.1633,-3.1669,-3.1705,-3.1705,-3.1705,-3.1705,-3.1705,-3.1488,-3.0958,-3.0922,-3.0434,-2.9701,-2.9051,-2.9148,-2.9496,-2.9508,-2.9653,-2.9941,-3.0086,-3.0086,-3.0122,-3.0567,-3.0874,-3.1043,-3.1332,-3.1705,-3.1705,-3.1705,-3.1705,-3.1705,-3.1705,-3.1705,-3.1633,-3.1585,-3.1645,-3.1609,-3.1597,-3.1524,-3.144,-3.1127,-3.0862,-3.0494,-3.0158,-3.005,-2.9929,-2.9677,-2.9665,-2.9785,-2.9881,-2.9989,-2.9905,-2.9665,-2.9821,-2.9977,-2.9713,-2.9641,-4.4068,-4.4082,-4.4068,-4.3974,-4.3743,-4.3471,-4.3218,-4.2978,-4.2728,-4.2631,-4.2582,-4.2644,-4.2763,-4.2895,-4.2763,-4.2633,-4.2519,-4.1897,-4.0985,-3.9552,-3.8645,-3.7758,-3.6927,-3.6503,-3.6111,-3.5918,-3.5808,-3.5579,-3.5302,-3.5072,-3.4794,-3.4252,-3.4097,-3.382,-3.321,-3.2779,-3.2466,-3.2262,-3.1937,-3.1789,-3.1765,-3.1765,-3.1741,-3.1717,-3.1705,-3.1705,-3.1705,-3.1705,-3.1705,-3.1705,-3.1705,-3.1705,-3.1705,-3.1705,-3.1705,-3.1705,-3.1705,-3.1705,-3.1705,-3.1705,-3.1705,-3.1705,-3.1705,-3.1705,-3.1705,-3.1705,-3.1464,-3.1055,-3.0898,-3.0615,-3.0025,-2.9833,-2.9737,-2.9809,-2.9869,-2.9917,-3.0062,-3.0086,-3.0086,-3.0194,-3.0585,-3.0922,-3.0946,-3.138,-3.1633,-3.1693,-3.1705,-3.1705,-3.1705,-3.1705,-3.1705,-3.1705,-3.1705,-3.1705,-3.1705,-3.1705,-3.1705,-3.1705,-3.1524,-3.138,-3.1055,-3.0778,-3.053,-3.0302,-3.005,-3.0158,-3.0422,-3.0278,-3.029,-3.0206,-3.0194,-3.0302,-3.0386,-3.0266,-3.0302,-4.4723,-4.4709,-4.4737,-4.4662,-4.4494,-4.4355,-4.4195,-4.396,-4.3846,-4.3703,-4.3655,-4.3751,-4.3832,-4.3946,-4.3832,-4.3832,-4.358,-4.286,-4.1834,-4.065,-3.9664,-3.886,-3.8061,-3.7245,-3.6611,-3.6243,-3.6168,-3.6038,-3.586,-3.5752,-3.5484,-3.4977,-3.4845,-3.4423,-3.3858,-3.3425,-3.3128,-3.2887,-3.2599,-3.2334,-3.2106,-3.2102,-3.191,-3.1765,-3.1705,-3.1705,-3.1705,-3.1705,-3.1705,-3.1705,-3.1705,-3.1705,-3.1705,-3.1705,-3.1705,-3.1705,-3.1705,-3.1705,-3.1705,-3.1705,-3.1705,-3.1705,-3.1705,-3.1705,-3.1705,-3.1705,-3.1609,-3.1368,-3.1259,-3.1036,-3.0561,-3.02,-3.0122,-3.0086,-3.0098,-3.0098,-3.0098,-3.0098,-3.0086,-3.0194,-3.0597,-3.0838,-3.1079,-3.1416,-3.1621,-3.1705,-3.1705,-3.1705,-3.1705,-3.1705,-3.1705,-3.1705,-3.1705,-3.1705,-3.1705,-3.1705,-3.1705,-3.1705,-3.1657,-3.1597,-3.1464,-3.1211,-3.097,-3.0814,-3.0675,-3.0855,-3.1079,-3.0874,-3.0747,-3.0958,-3.1007,-3.0855,-3.0831,-3.0983,-3.0999,-4.5216,-4.5216,-4.5216,-4.5216,-4.5216,-4.517,-4.5032,-4.4876,-4.4876,-4.4597,-4.4537,-4.4751,-4.4723,-4.4876,-4.4769,-4.4644,-4.4176,-4.3451,-4.2439,-4.1525,-4.0577,-3.977,-3.9004,-3.8049,-3.7161,-3.6593,-3.6383,-3.6228,-3.6086,-3.6051,-3.587,-3.5644,-3.5452,-3.5087,-3.4615,-3.4267,-3.3906,-3.3603,-3.3431,-3.3155,-3.2841,-3.2768,-3.2527,-3.2172,-3.193,-3.1906,-3.1893,-3.1849,-3.1837,-3.1805,-3.1793,-3.1793,-3.1805,-3.1705,-3.1705,-3.1705,-3.1705,-3.1705,-3.1705,-3.1705,-3.1705,-3.1705,-3.1705,-3.1705,-3.1705,-3.1705,-3.1681,-3.1681,-3.1597,-3.1476,-3.1067,-3.0778,-3.047,-3.041,-3.0362,-3.0368,-3.0326,-3.0314,-3.0386,-3.0158,-3.0573,-3.0886,-3.1091,-3.1356,-3.1548,-3.1705,-3.1705,-3.1705,-3.1705,-3.1705,-3.1705,-3.1705,-3.1705,-3.1705,-3.1705,-3.1705,-3.1705,-3.1705,-3.1705,-3.1705,-3.1705,-3.1536,-3.1344,-3.1488,-3.1512,-3.1548,-3.1524,-3.1392,-3.1428,-3.1705,-3.1621,-3.1356,-3.1452,-3.1681,-3.1621,-4.579,-4.579,-4.579,-4.579,-4.5759,-4.5549,-4.5413,-4.5367,-4.5138,-4.5032,-4.4986,-4.5032,-4.5184,-4.5276,-4.5138,-4.4801,-4.4397,-4.3723,-4.2943,-4.2079,-4.1138,-4.0333,-3.9422,-3.8793,-3.8014,-3.7136,-3.6744,-3.6496,-3.6323,-3.631,-3.6133,-3.5955,-3.586,-3.5605,-3.529,-3.4938,-3.4611,-3.4416,-3.4169,-3.3863,-3.3717,-3.357,-3.3374,-3.2885,-3.258,-3.2396,-3.2342,-3.2293,-3.23,-3.2313,-3.23,-3.2269,-3.2169,-3.1893,-3.1749,-3.1717,-3.1705,-3.1705,-3.1705,-3.1705,-3.1705,-3.1705,-3.1705,-3.1705,-3.1705,-3.1705,-3.1705,-3.1705,-3.1705,-3.1645,-3.1597,-3.1344,-3.1416,-3.1404,-3.1332,-3.1332,-3.1344,-3.1259,-3.0995,-3.0482,-3.0742,-3.0995,-3.1223,-3.1404,-3.1585,-3.1705,-3.1705,-3.1705,-3.1705,-3.1705,-3.1705,-3.1705,-3.1705,-3.1705,-3.1705,-3.1705,-3.1705,-3.1705,-3.1705,-3.1705,-3.1705,-3.1705,-3.1705,-3.1705,-3.1705,-3.1657,-3.1669,-3.1705,-3.1705,-3.1705,-3.1705,-3.1705,-3.1705,-3.1705,-3.1705,-4.588,-4.588,-4.588,-4.588,-4.5895,-4.579,-4.57,-4.57,-4.5549,-4.5504,-4.5504,-4.5504,-4.5595,-4.564,-4.5595,-4.523,-4.4723,-4.4101,-4.3341,-4.2471,-4.167,-4.0843,-3.9892,-3.9398,-3.8768,-3.8077,-3.75,-3.6908,-3.6455,-3.6405,-3.6348,-3.6228,-3.6098,-3.592,-3.5775,-3.5435,-3.5227,-3.5129,-3.4932,-3.4696,-3.4425,-3.4216,-3.3847,-3.3638,-3.3416,-3.3236,-3.3211,-3.3244,-3.3064,-3.2879,-3.2818,-3.2658,-3.2411,-3.215,-3.1874,-3.1886,-3.1773,-3.1705,-3.1705,-3.1705,-3.1705,-3.1705,-3.1705,-3.1705,-3.1705,-3.1705,-3.1705,-3.1705,-3.1705,-3.1705,-3.1693,-3.1705,-3.1705,-3.1705,-3.1705,-3.1705,-3.1705,-3.1705,-3.1356,-3.0934,-3.1187,-3.138,-3.1392,-3.156,-3.1669,-3.1705,-3.1705,-3.1705,-3.1705,-3.1705,-3.1705,-3.1705,-3.1705,-3.1705,-3.1705,-3.1705,-3.1705,-3.1705,-3.1705,-3.1705,-3.1705,-3.1705,-3.1705,-3.1705,-3.1705,-3.1705,-3.1705,-3.1705,-3.1705,-3.1705,-3.1705,-3.1705,-3.1705,-3.1705,-3.1705,-4.588,-4.588,-4.588,-4.588,-4.588,-4.588,-4.588,-4.588,-4.588,-4.588,-4.588,-4.588,-4.588,-4.588,-4.5835,-4.5595,-4.5078,-4.4397,-4.3737,-4.2922,-4.2141,-4.1335,-4.0552,-3.9854,-3.9196,-3.8693,-3.8354,-3.7651,-3.696,-3.6719,-3.6606,-3.6498,-3.627,-3.6111,-3.6026,-3.5893,-3.5752,-3.5752,-3.5752,-3.5505,-3.5085,-3.4626,-3.4317,-3.428,-3.4206,-3.4094,-3.4066,-3.4053,-3.3905,-3.3682,-3.3501,-3.3321,-3.2906,-3.2644,-3.2455,-3.2329,-3.1995,-3.1773,-3.1705,-3.1705,-3.1705,-3.1705,-3.1705,-3.1705,-3.1705,-3.1705,-3.1705,-3.1705,-3.1705,-3.1705,-3.1705,-3.1705,-3.1705,-3.1705,-3.1705,-3.1705,-3.1705,-3.1705,-3.1705,-3.156,-3.1705,-3.1681,-3.1609,-3.1609,-3.1705,-3.1705,-3.1705,-3.1705,-3.1705,-3.1705,-3.1705,-3.1705,-3.1705,-3.1705,-3.1705,-3.1705,-3.1705,-3.1705,-3.1705,-3.1705,-3.1705,-3.1705,-3.1705,-3.1705,-3.1705,-3.1705,-3.1705,-3.1705,-3.1705,-3.1705,-3.1705,-3.1705,-3.1705,-3.1705,-3.1705,-4.588,-4.588,-4.588,-4.588,-4.588,-4.588,-4.588,-4.588,-4.588,-4.588,-4.588,-4.588,-4.588,-4.588,-4.588,-4.5595,-4.5138,-4.4769,-4.4115,-4.3259,-4.2471,-4.1683,-4.0896,-4.03,-3.9626,-3.9133,-3.8894,-3.8417,-3.7826,-3.7349,-3.7098,-3.7036,-3.6671,-3.6335,-3.6388,-3.6266,-3.631,-3.631,-3.6263,-3.6225,-3.6075,-3.5553,-3.5353,-3.5203,-3.4953,-3.4682,-3.4744,-3.4744,-3.4595,-3.454,-3.449,-3.4465,-3.4402,-3.4222,-3.4008,-3.344,-3.2613,-3.1717,-3.1825,-3.1898,-3.191,-3.1934,-3.1862,-3.1741,-3.1886,-3.191,-3.1898,-3.1705,-3.1777,-3.1862,-3.1922,-3.1801,-3.1753,-3.1825,-3.1958,-3.1862,-3.1801,-3.1934,-3.191,-3.1705,-3.1705,-3.1705,-3.1681,-3.1693,-3.1705,-3.1705,-3.1705,-3.1705,-3.1705,-3.1705,-3.1705,-3.1705,-3.1705,-3.1705,-3.1705,-3.1705,-3.1705,-3.1705,-3.1705,-3.1705,-3.1705,-3.1705,-3.1705,-3.1705,-3.1705,-3.1705,-3.1705,-3.1705,-3.1705,-3.1705,-3.1705,-3.1705,-3.1705,-3.1705,-3.1705,-4.588,-4.588,-4.588,-4.588,-4.588,-4.588,-4.588,-4.588,-4.588,-4.588,-4.588,-4.588,-4.588,-4.588,-4.588,-4.5685,-4.5321,-4.4968,-4.4397,-4.3675,-4.2908,-4.2141,-4.1385,-4.0833,-4.0185,-3.9677,-3.941,-3.927,-3.8743,-3.8115,-3.7651,-3.7575,-3.7136,-3.6847,-3.6832,-3.6568,-3.6443,-3.6417,-3.6417,-3.6417,-3.6355,-3.6144,-3.5994,-3.5994,-3.573,-3.5629,-3.5604,-3.5642,-3.5466,-3.5303,-3.5144,-3.4969,-3.471,-3.4487,-3.4272,-3.3961,-3.3287,-3.2793,-3.2644,-3.262,-3.2515,-3.2551,-3.2608,-3.268,-3.2632,-3.2596,-3.2551,-3.2599,-3.2644,-3.2608,-3.2539,-3.2632,-3.2575,-3.2551,-3.2464,-3.2319,-3.2235,-3.213,-3.2118,-3.1934,-3.1717,-3.1753,-3.1753,-3.1705,-3.1705,-3.1705,-3.1705,-3.1705,-3.1705,-3.1705,-3.1705,-3.1705,-3.1705,-3.1705,-3.1705,-3.1705,-3.1705,-3.1705,-3.1705,-3.1705,-3.1705,-3.1705,-3.1705,-3.1705,-3.1705,-3.1705,-3.1705,-3.1705,-3.1705,-3.1705,-3.1705,-3.1705,-3.1705,-3.1705,-3.1705,-4.588,-4.588,-4.588,-4.588,-4.588,-4.588,-4.588,-4.588,-4.588,-4.588,-4.588,-4.588,-4.588,-4.588,-4.588,-4.5745,-4.5458,-4.5138,-4.4616,-4.4054,-4.3437,-4.2714,-4.198,-4.1372,-4.0782,-4.0173,-3.9853,-3.9687,-3.9383,-3.8919,-3.8417,-3.8203,-3.7663,-3.7425,-3.7274,-3.7073,-3.6908,-3.6694,-3.6505,-3.6417,-3.6405,-3.6405,-3.638,-3.6392,-3.6405,-3.6417,-3.6417,-3.6367,-3.6056,-3.5855,-3.5742,-3.5579,-3.527,-3.5165,-3.4901,-3.4656,-3.4184,-3.3938,-3.3677,-3.3416,-3.3344,-3.3284,-3.3284,-3.3128,-3.3188,-3.3284,-3.3272,-3.3152,-3.3164,-3.32,-3.3272,-3.3224,-3.314,-3.3116,-3.314,-3.2984,-3.2815,-3.2719,-3.2503,-3.2202,-3.1997,-3.1862,-3.1825,-3.1741,-3.1705,-3.1705,-3.1705,-3.1705,-3.1705,-3.1705,-3.1705,-3.1705,-3.1705,-3.1705,-3.1705,-3.1705,-3.1705,-3.1705,-3.1705,-3.1705,-3.1705,-3.1705,-3.1705,-3.1705,-3.1705,-3.1705,-3.1705,-3.1705,-3.1705,-3.1705,-3.1705,-3.1705,-3.1705,-3.1705,-3.1705,-4.588,-4.588,-4.588,-4.588,-4.588,-4.588,-4.588,-4.588,-4.588,-4.588,-4.588,-4.588,-4.588,-4.588,-4.588,-4.579,-4.5518,-4.5473,-4.5046,-4.4537,-4.4007,-4.3328,-4.2541,-4.1868,-4.1248,-4.0542,-4.0185,-3.989,-3.9724,-3.9573,-3.9183,-3.8793,-3.8241,-3.8027,-3.7877,-3.7726,-3.7437,-3.7136,-3.6845,-3.6568,-3.6518,-3.648,-3.6468,-3.6417,-3.6417,-3.6417,-3.6417,-3.6417,-3.638,-3.6241,-3.6182,-3.6182,-3.5981,-3.5934,-3.5687,-3.5369,-3.5239,-3.4977,-3.4606,-3.3945,-3.3428,-3.3332,-3.3392,-3.3513,-3.3573,-3.3392,-3.3332,-3.3464,-3.3585,-3.3501,-3.3428,-3.332,-3.3549,-3.3609,-3.3669,-3.3501,-3.3344,-3.326,-3.302,-3.2599,-3.2382,-3.2286,-3.219,-3.2211,-3.1825,-3.1789,-3.1717,-3.1705,-3.1705,-3.1705,-3.1705,-3.1705,-3.1705,-3.1705,-3.1705,-3.1705,-3.1705,-3.1705,-3.1705,-3.1705,-3.1705,-3.1705,-3.1705,-3.1705,-3.1705,-3.1705,-3.1705,-3.1705,-3.1705,-3.1705,-3.1705,-3.1705,-3.1705,-3.1705,-3.1705,-4.588,-4.588,-4.588,-4.588,-4.588,-4.588,-4.588,-4.588,-4.588,-4.588,-4.588,-4.588,-4.588,-4.588,-4.588,-4.5835,-4.5745,-4.5549,-4.5321,-4.5,-4.4476,-4.3851,-4.3088,-4.236,-4.1597,-4.0997,-4.044,-4.007,-3.9981,-3.9788,-3.9622,-3.9245,-3.8793,-3.8617,-3.8479,-3.8228,-3.7914,-3.7751,-3.745,-3.7249,-3.6933,-3.6883,-3.6757,-3.6417,-3.6417,-3.6417,-3.6417,-3.6417,-3.6417,-3.6417,-3.6417,-3.6417,-3.6417,-3.6417,-3.6181,-3.586,-3.5812,-3.562,-3.5271,-3.463,-3.4258,-3.4234,-3.4246,-3.4198,-3.4114,-3.4186,-3.4222,-3.4246,-3.4162,-3.409,-3.421,-3.4246,-3.4306,-3.4258,-3.4138,-3.3982,-3.3873,-3.3777,-3.3513,-3.3092,-3.2984,-3.2923,-3.2827,-3.2731,-3.225,-3.1829,-3.1777,-3.1753,-3.1862,-3.1874,-3.1922,-3.1874,-3.1862,-3.1741,-3.1729,-3.1717,-3.1717,-3.1705,-3.1705,-3.1705,-3.1705,-3.1705,-3.1705,-3.1705,-3.1705,-3.1705,-3.1705,-3.1705,-3.1705,-3.1705,-3.1705,-3.1705,-3.1705,-3.1705,-3.1705,-4.5706,-4.588,-4.588,-4.588,-4.588,-4.588,-4.588,-4.588,-4.588,-4.588,-4.588,-4.588,-4.588,-4.588,-4.588,-4.588,-4.5835,-4.573,-4.5595,-4.5276,-4.4862,-4.4336,-4.3662,-4.2943,-4.2177,-4.1498,-4.0795,-4.0326,-4.007,-3.9839,-3.9711,-3.9546,-3.9346,-3.9157,-3.8981,-3.858,-3.8266,-3.8253,-3.8027,-3.7889,-3.745,-3.7412,-3.7161,-3.6782,-3.6707,-3.6556,-3.648,-3.6417,-3.6417,-3.6417,-3.6417,-3.6417,-3.6417,-3.637,-3.6241,-3.6111,-3.5968,-3.5872,-3.5572,-3.5223,-3.4872,-3.4691,-3.4667,-3.4691,-3.4775,-3.4775,-3.4667,-3.4715,-3.4715,-3.4775,-3.4775,-3.4655,-3.4619,-3.451,-3.4534,-3.4463,-3.4318,-3.421,-3.3933,-3.3597,-3.3537,-3.344,-3.3188,-3.3068,-3.2911,-3.2527,-3.2491,-3.25,-3.25,-3.2452,-3.2274,-3.2178,-3.2046,-3.1922,-3.1753,-3.1777,-3.1789,-3.1705,-3.1705,-3.1705,-3.1705,-3.1741,-3.1741,-3.1705,-3.1705,-3.1705,-3.1705,-3.1705,-3.1705,-3.1705,-3.1705,-3.1705,-3.1705,-3.1705,-3.1705,-4.53,-4.5851,-4.588,-4.588,-4.588,-4.588,-4.588,-4.588,-4.588,-4.588,-4.588,-4.588,-4.588,-4.588,-4.588,-4.588,-4.588,-4.5835,-4.5745,-4.5473,-4.5124,-4.4769,-4.4209,-4.3451,-4.2568,-4.198,-4.1185,-4.044,-4.0134,-3.9839,-3.9749,-3.9697,-3.9584,-3.9559,-3.9597,-3.9132,-3.8919,-3.8831,-3.8354,-3.8178,-3.8027,-3.799,-3.7688,-3.7299,-3.7161,-3.6985,-3.6669,-3.6581,-3.6543,-3.6417,-3.6417,-3.6417,-3.6417,-3.6417,-3.6275,-3.6098,-3.6063,-3.5908,-3.5608,-3.532,-3.5126,-3.492,-3.4872,-3.4872,-3.4823,-3.4775,-3.4775,-3.4775,-3.4775,-3.4775,-3.4775,-3.4775,-3.4775,-3.4775,-3.4775,-3.4751,-3.4619,-3.457,-3.4246,-3.4114,-3.397,-3.3838,-3.3561,-3.3356,-3.3404,-3.3308,-3.3272,-3.32,-3.3068,-3.2911,-3.2719,-3.2623,-3.2478,-3.237,-3.2259,-3.197,-3.1862,-3.1777,-3.1886,-3.2078,-3.2018,-3.1994,-3.1934,-3.1801,-3.1705,-3.1705,-3.1705,-3.1705,-3.1705,-3.1705,-3.1705,-3.1705,-3.1705,-3.1705,-3.1705,-4.5285,-4.588,-4.588,-4.588,-4.588,-4.588,-4.588,-4.588,-4.588,-4.588,-4.588,-4.588,-4.588,-4.588,-4.588,-4.588,-4.588,-4.588,-4.579,-4.5745,-4.5307,-4.4847,-4.4256,-4.3546,-4.2741,-4.1993,-4.1198,-4.0593,-4.0338,-3.9942,-3.9749,-3.9697,-3.9697,-3.9697,-3.9672,-3.9471,-3.9421,-3.9408,-3.9195,-3.8994,-3.863,-3.8542,-3.8316,-3.7764,-3.7739,-3.7462,-3.696,-3.6958,-3.6832,-3.6581,-3.6543,-3.648,-3.6455,-3.6455,-3.637,-3.6275,-3.6241,-3.6133,-3.5955,-3.5716,-3.5524,-3.5284,-3.503,-3.4981,-3.4835,-3.4823,-3.4775,-3.4775,-3.4775,-3.4775,-3.4775,-3.4775,-3.4775,-3.4775,-3.4775,-3.4775,-3.4715,-3.4715,-3.4595,-3.4558,-3.4486,-3.4426,-3.4246,-3.3994,-3.397,-3.3861,-3.3789,-3.3525,-3.3356,-3.3248,-3.3104,-3.3092,-3.3008,-3.2935,-3.2779,-3.2503,-3.2442,-3.2503,-3.2647,-3.2851,-3.2707,-3.237,-3.2226,-3.2211,-3.1946,-3.1705,-3.1705,-3.1705,-3.1705,-3.1705,-3.1705,-3.1705,-3.1705,-3.1705,-3.1705,-4.5097,-4.5866,-4.588,-4.588,-4.588,-4.588,-4.588,-4.588,-4.588,-4.588,-4.588,-4.588,-4.588,-4.588,-4.588,-4.588,-4.588,-4.588,-4.588,-4.5835,-4.5353,-4.4908,-4.435,-4.3546,-4.2873,-4.2092,-4.1248,-4.0593,-4.0453,-3.9942,-3.9749,-3.9697,-3.9697,-3.9697,-3.9685,-3.9659,-3.9647,-3.9622,-3.9521,-3.9459,-3.922,-3.9082,-3.8881,-3.8479,-3.8241,-3.8052,-3.7638,-3.74,-3.7299,-3.7008,-3.6807,-3.6671,-3.6669,-3.6531,-3.6455,-3.6417,-3.637,-3.6275,-3.6193,-3.6146,-3.5982,-3.5867,-3.5502,-3.5138,-3.4932,-3.4884,-3.4823,-3.4775,-3.4775,-3.4775,-3.4775,-3.4775,-3.4775,-3.4775,-3.4775,-3.4775,-3.4775,-3.4775,-3.4775,-3.4775,-3.4775,-3.4775,-3.4775,-3.4715,-3.4595,-3.4438,-3.427,-3.3982,-3.3729,-3.3693,-3.3609,-3.3561,-3.3501,-3.3392,-3.3272,-3.3092,-3.3104,-3.326,-3.3356,-3.344,-3.3212,-3.2839,-3.2719,-3.2551,-3.2274,-3.2042,-3.1789,-3.1705,-3.1705,-3.1705,-3.1705,-3.1705,-3.1705,-3.1705,-3.1705,-4.4719,-4.5779,-4.588,-4.588,-4.588,-4.588,-4.588,-4.588,-4.588,-4.588,-4.588,-4.588,-4.588,-4.588,-4.588,-4.588,-4.588,-4.588,-4.588,-4.573,-4.5307,-4.5,-4.449,-4.3689,-4.2935,-4.2239,-4.1448,-4.0605,-4.0453,-3.9955,-3.9697,-3.9697,-3.9697,-3.9697,-3.9697,-3.9697,-3.9697,-3.9697,-3.9685,-3.9634,-3.9521,-3.9559,-3.9308,-3.9007,-3.8843,-3.8567,-3.8228,-3.8002,-3.7952,-3.7726,-3.7475,-3.7299,-3.7048,-3.6757,-3.6568,-3.6505,-3.6581,-3.6596,-3.6634,-3.6636,-3.6666,-3.6614,-3.6002,-3.5502,-3.5223,-3.5138,-3.5004,-3.4871,-3.4775,-3.4775,-3.4775,-3.4775,-3.4775,-3.4775,-3.4775,-3.4775,-3.4775,-3.4775,-3.4775,-3.4775,-3.4775,-3.4775,-3.4775,-3.4775,-3.4823,-3.4727,-3.4559,-3.4547,-3.4354,-3.4414,-3.4294,-3.4066,-3.3994,-3.3837,-3.3729,-3.3693,-3.3729,-3.3873,-3.3729,-3.3729,-3.3501,-3.338,-3.3236,-3.302,-3.2659,-3.2346,-3.2114,-3.1874,-3.1705,-3.1717,-3.1729,-3.1705,-3.1705,-3.1705,-3.1705,-4.4443,-4.5198,-4.5737,-4.588,-4.588,-4.588,-4.588,-4.588,-4.588,-4.588,-4.588,-4.588,-4.588,-4.588,-4.588,-4.588,-4.588,-4.588,-4.588,-4.5685,-4.5367,-4.5046,-4.4443,-4.3703,-4.2935,-4.2204,-4.1398,-4.0593,-4.0402,-3.9942,-3.9697,-3.9697,-3.9697,-3.9697,-3.9697,-3.9697,-3.9697,-3.9697,-3.9697,-3.9697,-3.9697,-3.9697,-3.9521,-3.9446,-3.9383,-3.9069,-3.8755,-3.8617,-3.8492,-3.8052,-3.7902,-3.7776,-3.7739,-3.7613,-3.7538,-3.7538,-3.755,-3.755,-3.7525,-3.7525,-3.7539,-3.7541,-3.7122,-3.6481,-3.61,-3.5733,-3.5465,-3.5246,-3.5052,-3.5039,-3.4967,-3.4919,-3.4847,-3.4787,-3.4787,-3.4775,-3.4775,-3.4775,-3.4775,-3.4775,-3.4775,-3.4775,-3.4775,-3.4823,-3.4872,-3.4823,-3.4823,-3.4872,-3.4823,-3.4823,-3.4727,-3.4462,-3.4378,-3.427,-3.439,-3.439,-3.4414,-3.4426,-3.4246,-3.4162,-3.4174,-3.4054,-3.3801,-3.3452,-3.302,-3.2671,-3.237,-3.2178,-3.2078,-3.1801,-3.1765,-3.1741,-3.1717,-3.1753,-3.1741,-4.4342,-4.4951,-4.5649,-4.588,-4.588,-4.588,-4.588,-4.588,-4.588,-4.588,-4.588,-4.588,-4.588,-4.588,-4.588,-4.588,-4.588,-4.588,-4.588,-4.579,-4.5458,-4.5092,-4.449,-4.3737,-4.3018,-4.2239,-4.1398,-4.0643,-4.0402,-3.9993,-3.9697,-3.9697,-3.9697,-3.9697,-3.9697,-3.9697,-3.9697,-3.9697,-3.9697,-3.9697,-3.9697,-3.9697,-3.9697,-3.9697,-3.9697,-3.9471,-3.9296,-3.9233,-3.8969,-3.863,-3.8555,-3.8354,-3.8278,-3.8153,-3.7977,-3.7927,-3.7914,-3.7889,-3.7877,-3.7914,-3.8103,-3.8229,-3.8179,-3.7779,-3.717,-3.6662,-3.6219,-3.5864,-3.5594,-3.5387,-3.5231,-3.5075,-3.4943,-3.4811,-3.4787,-3.4775,-3.4775,-3.4775,-3.4775,-3.4775,-3.4775,-3.4775,-3.4823,-3.4872,-3.4969,-3.5017,-3.5114,-3.5223,-3.5078,-3.4932,-3.4872,-3.4655,-3.4667,-3.4655,-3.4775,-3.4775,-3.4679,-3.4667,-3.4643,-3.4607,-3.4691,-3.4558,-3.4198,-3.3754,-3.3332,-3.3044,-3.2815,-3.2647,-3.2491,-3.225,-3.2178,-3.2346,-3.2271,-3.1934,-3.1874,-4.4255,-4.4864,-4.559,-4.588,-4.588,-4.588,-4.588,-4.588,-4.588,-4.588,-4.588,-4.588,-4.588,-4.588,-4.588,-4.588,-4.588,-4.588,-4.588,-4.588,-4.5595,-4.523,-4.4723,-4.4007,-4.3197,-4.2373,-4.1498,-4.0643,-4.0287,-3.9942,-3.9697,-3.9697,-3.9697,-3.9697,-3.9697,-3.9697,-3.9697,-3.9697,-3.9697,-3.9697,-3.9697,-3.9697,-3.9697,-3.9697,-3.9697,-3.9659,-3.9659,-3.9672,-3.9697,-3.9496,-3.9283,-3.8944,-3.8781,-3.858,-3.8341,-3.8278,-3.8391,-3.8404,-3.8429,-3.8429,-3.8592,-3.8781,-3.8931,-3.8729,-3.8226,-3.7463,-3.6917,-3.6424,-3.6116,-3.5881,-3.5749,-3.5677,-3.5569,-3.5449,-3.5388,-3.5256,-3.5063,-3.4955,-3.4775,-3.4775,-3.4775,-3.4823,-3.4823,-3.4932,-3.5066,-3.5175,-3.532,-3.5464,-3.5416,-3.5175,-3.503,-3.4872,-3.4823,-3.4823,-3.4775,-3.4775,-3.4775,-3.4751,-3.4775,-3.4763,-3.4739,-3.4679,-3.4595,-3.4162,-3.3789,-3.3537,-3.332,-3.3116,-3.2971,-3.2959,-3.2959,-3.314,-3.2911,-3.243,-3.2319,-4.3616,-4.4313,-4.5416,-4.588,-4.588,-4.588,-4.588,-4.588,-4.588,-4.588,-4.588,-4.588,-4.588,-4.588,-4.588,-4.588,-4.588,-4.588,-4.588,-4.5835,-4.5654,-4.5367,-4.4908,-4.4134,-4.3389,-4.2568,-4.1634,-4.0542,-4.0083,-3.9788,-3.9697,-3.9697,-3.9697,-3.9697,-3.9697,-3.9697,-3.9697,-3.9697,-3.9697,-3.9697,-3.9697,-3.9697,-3.9697,-3.9697,-3.9697,-3.9697,-3.9697,-3.9697,-3.9697,-3.9622,-3.9584,-3.9496,-3.9484,-3.9333,-3.9295,-3.9295,-3.9157,-3.912,-3.9107,-3.9094,-3.922,-3.9333,-3.9459,-3.9484,-3.9064,-3.8257,-3.7594,-3.7035,-3.6638,-3.6464,-3.6266,-3.6218,-3.6134,-3.6026,-3.593,-3.5689,-3.5449,-3.5123,-3.4859,-3.4811,-3.4811,-3.4823,-3.4884,-3.4981,-3.5126,-3.5271,-3.5464,-3.5572,-3.562,-3.5476,-3.532,-3.5175,-3.4872,-3.4823,-3.4823,-3.4775,-3.4775,-3.4775,-3.4775,-3.4775,-3.4775,-3.4727,-3.4667,-3.4522,-3.4234,-3.403,-3.3753,-3.3452,-3.3368,-3.3501,-3.3537,-3.3645,-3.3537,-3.3128,-3.302,-4.3384,-4.4124,-4.5358,-4.588,-4.588,-4.588,-4.588,-4.588,-4.588,-4.588,-4.588,-4.588,-4.588,-4.588,-4.588,-4.588,-4.588,-4.588,-4.588,-4.5835,-4.5745,-4.5458,-4.494,-4.4383,-4.3628,-4.2763,-4.1435,-4.0389,-4.0018,-3.9736,-3.9697,-3.9747,-3.9747,-3.9747,-3.9735,-3.971,-3.9722,-3.9697,-3.9697,-3.9697,-3.9697,-3.9697,-3.9697,-3.9697,-3.9697,-3.9697,-3.9697,-3.9697,-3.9697,-3.9697,-3.9659,-3.9659,-3.9647,-3.9609,-3.9647,-3.9647,-3.9622,-3.9697,-3.9697,-3.9697,-3.9697,-3.9697,-3.9697,-3.9622,-3.9506,-3.8733,-3.8347,-3.7831,-3.7496,-3.728,-3.6879,-3.6747,-3.6495,-3.6326,-3.6242,-3.6086,-3.5845,-3.5581,-3.5376,-3.5268,-3.5124,-3.4823,-3.492,-3.5223,-3.5368,-3.5512,-3.5668,-3.5895,-3.5895,-3.5764,-3.562,-3.5416,-3.5126,-3.4872,-3.4823,-3.4775,-3.4775,-3.4775,-3.4775,-3.4775,-3.4775,-3.4775,-3.4727,-3.4619,-3.4546,-3.4462,-3.4222,-3.3945,-3.4006,-3.4198,-3.415,-3.409,-3.3933,-3.3849,-3.3825,-4.3297,-4.4124,-4.5256,-4.5808,-4.588,-4.588,-4.588,-4.588,-4.588,-4.588,-4.588,-4.588,-4.588,-4.588,-4.588,-4.588,-4.588,-4.588,-4.588,-4.588,-4.588,-4.5504,-4.5184,-4.4783,-4.3915,-4.2873,-4.1638,-4.0965,-4.0514,-4.0255,-4.0124,-3.9936,-3.9885,-3.9885,-3.9823,-3.9798,-3.9848,-3.9735,-3.9697,-3.9697,-3.9697,-3.9697,-3.9697,-3.9697,-3.9697,-3.9697,-3.9697,-3.9697,-3.9697,-3.9697,-3.9697,-3.9697,-3.9697,-3.9697,-3.9697,-3.9697,-3.9697,-3.9697,-3.9697,-3.9697,-3.9697,-3.9697,-3.9697,-3.9645,-3.9517,-3.9233,-3.8844,-3.8558,-3.8178,-3.7846,-3.7433,-3.7216,-3.6952,-3.6747,-3.6663,-3.6555,-3.6302,-3.6038,-3.5857,-3.5701,-3.5388,-3.4979,-3.5102,-3.5393,-3.5537,-3.5681,-3.5895,-3.6168,-3.631,-3.6086,-3.5895,-3.5656,-3.5368,-3.5114,-3.4872,-3.4775,-3.4775,-3.4775,-3.4775,-3.4775,-3.4775,-3.4775,-3.4775,-3.4763,-3.4691,-3.4631,-3.4655,-3.4535,-3.4667,-3.4679,-3.4583,-3.4426,-3.4475,-3.4426,-3.4595,-4.2948,-4.4066,-4.4792,-4.5372,-4.5837,-4.588,-4.588,-4.588,-4.588,-4.588,-4.588,-4.588,-4.588,-4.588,-4.588,-4.588,-4.588,-4.588,-4.588,-4.588,-4.588,-4.5549,-4.5206,-4.4955,-4.4001,-4.3103,-4.2342,-4.1929,-4.1228,-4.0986,-4.0978,-4.0902,-4.094,-4.0752,-4.0375,-4.0312,-4.0212,-4.0049,-3.9885,-3.9898,-3.981,-3.9785,-3.971,-3.9697,-3.9697,-3.9697,-3.9697,-3.9697,-3.9697,-3.9697,-3.9697,-3.9697,-3.9697,-3.9697,-3.9697,-3.9697,-3.9697,-3.9697,-3.9697,-3.9697,-3.9697,-3.9697,-3.9697,-3.9697,-3.9478,-3.9154,-3.8868,-3.8712,-3.8332,-3.8056,-3.7721,-3.7721,-3.7553,-3.7433,-3.7336,-3.7156,-3.6952,-3.6591,-3.6302,-3.6098,-3.5833,-3.5593,-3.5461,-3.5587,-3.5478,-3.5658,-3.5837,-3.6063,-3.6228,-3.6181,-3.6098,-3.58,-3.5464,-3.5211,-3.4872,-3.4823,-3.4775,-3.4775,-3.4775,-3.4775,-3.4775,-3.4775,-3.4775,-3.4775,-3.4775,-3.4727,-3.4763,-3.4775,-3.4751,-3.4715,-3.4739,-3.4715,-3.4775,-3.4775,-3.4775]},{"header":{"parameterUnit":"m.s-1","parameterCategory":1,"la1":31.0,"la2":29.5877,"lo1":-88.7671,"lo2":-86.6584,"dy":0.0162,"dx":0.0185,"nx":115,"ny":88,"refTime":"2026-03-04T00:00:00:Z","depth":0,"parameterNumber":3,"parameterNumberName":"V-component_of_WINDS"},"data":[0.0,0.0,0.0,0.0,0.0,0.0,0.0,0.0,0.0,0.0,0.0,0.0,0.0,0.0,0.0,0.0,0.0,0.0,0.0,0.0,0.0,0.0,0.0,0.0,0.0,0.0,0.0,0.0,0.0,0.0,0.0,0.0,0.0,0.0,0.0,0.0,0.0,0.0,0.0,0.0,0.0,0.0,0.0,0.0,0.0,0.0,0.0,0.0,0.0,0.0,0.0,0.0,0.0,0.0,0.0,0.0,0.0,0.0,0.0,0.0,0.0,0.0,0.0,0.0,0.0,0.0,0.0,0.0,0.0,0.0,0.0,0.0,0.0,0.0,0.0,0.0,0.0,0.0,0.0,0.0,0.0,0.0,0.0,0.0,0.0,0.0,0.0,0.0,0.0,0.0,0.0,0.0,0.0,0.0,0.0,0.0,0.0,0.0,0.0,0.0,0.0,0.0,0.0,0.0,0.0,0.0,0.0,0.0,0.0,0.0,0.0,0.0,0.0,0.0,0.0,0.0,0.0,0.0,0.0,0.0,0.0,0.0,0.0,0.0,0.0,0.0,0.0,0.0,0.0,0.0,0.0,0.0,0.0,0.0,0.0,0.0,0.0,0.0,0.0,0.0,0.0,0.0,0.0,0.0,0.0,0.0,0.0,0.0,0.0,0.0,0.0,0.0,0.0,0.0,0.0,0.0,0.0,0.0,0.0,0.0,0.0,0.0,0.0,0.0,0.0,0.0,0.0,0.0,0.0,0.0,0.0,0.0,0.0,0.0,0.0,0.0,0.0,0.0,0.0,0.0,0.0,0.0,0.0,0.0,0.0,0.0,0.0,0.0,0.0,0.0,0.0,0.0,0.0,0.0,0.0,0.0,0.0,0.0,0.0,0.0,0.0,0.0,0.0,0.0,0.0,0.0,0.0,0.0,0.0,0.0,0.0,0.0,0.0,0.0,0.0,0.0,0.0,0.0,0.0,0.0,0.0,0.0,0.0,0.0,0.0,0.0,0.0,0.0,0.0,0.0,0.0,0.0,0.0,0.0,0.0,0.0,0.0,0.0,0.0,0.0,0.0,0.0,0.0,0.0,0.0,0.0,0.0,0.0,0.0,0.0,0.0,0.0,0.0,0.0,0.0,0.0,0.0,0.0,0.0,0.0,0.0,0.0,0.0,0.0,0.0,0.0,0.0,0.0,0.0,0.0,0.0,0.0,0.0,0.0,0.0,0.0,0.0,0.0,0.0,0.0,0.0,0.0,0.0,0.0,0.0,0.0,0.0,0.0,0.0,0.0,0.0,0.0,0.0,0.0,0.0,0.0,0.0,0.0,0.0,0.0,0.0,0.0,0.0,0.0,0.0,0.0,0.0,0.0,0.0,0.0,0.0,0.0,0.0,0.0,0.0,0.0,0.0,0.0,0.0,0.0,0.0,0.0,0.0,0.0,0.0,0.0,0.0,0.0,0.0,0.0,0.0,0.0,0.0,0.0,0.0,0.0,0.0,0.0,0.0,0.0,0.0,0.0,0.0,0.0,0.0,0.0,0.0,0.0,0.0,0.0,0.0,0.0,0.0,0.0,0.0,0.0,0.0,0.0,0.0,0.0,0.0,0.0,0.0,0.0,0.0,0.0,0.0,0.0,0.0,0.0,0.0,0.0,0.0,0.0,0.0,0.0,0.0,0.0,0.0,0.0,0.0,0.0,0.0,0.0,0.0,0.0,0.0,0.0,0.0,0.0,0.0,0.0,0.0,0.0,0.0,0.0,0.0,0.0,0.0,0.0,0.0,0.0,0.0,0.0,0.0,0.0,0.0,0.0,0.0,0.0,0.0,0.0,0.0,0.0,0.0,0.0,0.0,0.0,0.0,0.0,0.0,0.0,0.0,0.0,0.0,0.0,0.0,0.0,0.0,0.0,0.0,0.0,0.0,0.0,0.0,0.0,0.0,0.0,0.0,0.0,0.0,0.0,0.0,0.0,0.0,0.0,0.0,0.0,0.0,0.0,0.0,0.0,0.0,0.0,0.0,0.0,0.0,0.0,0.0,0.0,0.0,0.0,0.0,0.0,0.0,0.0,0.0,0.0,0.0,0.0,0.0,0.0,0.0,0.0,0.0,0.0,0.0,0.0,0.0,0.0,0.0,0.0,0.0,0.0,0.0,0.0,0.0,0.0,0.0,0.0,0.0,0.0,0.0,0.0,0.0,0.0,0.0,0.0,0.0,0.0,0.0,0.0,0.0,0.0,0.0,0.0,0.0,0.0,0.0,0.0,0.0,0.0,0.0,0.0,0.0,0.0,0.0,0.0,0.0,0.0,0.0,0.0,0.0,0.0,0.0,0.0,0.0,0.0,0.0,0.0,0.0,0.0,0.0,0.0,0.0,0.0,0.0,0.0,0.0,0.0,0.0,0.0,0.0,0.0,0.0,0.0,0.0,0.0,0.0,0.0,0.0,0.0,0.0,0.0,0.0,0.0,0.0,0.0,0.0,0.0,0.0,0.0,0.0,0.0,0.0,0.0,0.0,0.0,0.0,0.0,0.0,0.0,0.0,0.0,0.0,0.0,0.0,0.0,0.0,0.0,0.0,0.0,0.0,0.0,0.0,0.0,0.0,0.0,0.0,0.0,0.0,0.0,0.0,0.0,0.0,0.0,0.0,0.0,0.0,0.0,0.0,0.0,0.0,0.0,0.0,0.0,0.0,0.0,0.0,0.0,0.0,0.0,0.0,0.0,0.0,0.0,0.0,0.0,0.0,0.0,0.0,0.0,0.0,0.0,0.0,0.0,0.0,0.0,0.0,0.0,0.0,0.0,0.0,0.0,0.0,0.0,0.0,0.0,0.0,0.0,0.0,0.0,0.0,0.0,0.0,0.0,0.0,0.0,0.0,0.0,0.0,0.0,0.0,0.0,0.0,0.0,0.0,0.0,0.0,0.0,0.0,0.0,0.0,0.0,0.0,0.0,0.0,0.0,0.0,0.0,0.0,0.0,0.0,0.0,0.0,0.0,0.0,0.0,0.0,0.0,0.0,0.0,0.0,0.0,0.0,0.0,0.0,0.0,0.0,0.0,0.0,0.0,0.0,0.0,0.0,0.0,0.0,0.0,0.0,0.0,0.0,0.0,0.0,0.0,0.0,0.0,0.0,0.0,0.0,0.0,0.0,0.0,0.0,0.0,0.0,0.0,0.0,0.0,0.0,0.0,0.0,0.0,0.0,0.0,0.0,0.0,0.0,0.0,0.0,0.0,0.0,0.0,0.0,0.0,0.0,0.0,0.0,0.0,0.0,0.0,0.0,0.0,0.0,0.0,0.0,0.0,0.0,0.0,0.0,0.0,0.0,0.0,0.0,0.0,0.0,0.0,0.0,0.0,0.0,0.0,0.0,0.0,0.0,0.0,0.0,0.0,0.0,0.0,0.0,0.0,0.0,0.0,0.0,0.0,0.0,0.0,0.0,0.0,0.0,0.0,0.0,0.0,0.0,0.0,0.0,0.0,0.0,0.0,0.0,0.0,0.0,0.0,0.0,0.0,0.0,0.0,0.0,0.0,0.0,0.0,0.0,0.0,0.0,0.0,0.0,0.0,0.0,0.0,0.0,0.0,0.0,0.0,0.0,0.0,0.0,0.0,0.0,0.0,0.0,0.0,0.0,0.0,0.0,0.0,0.0,0.0,0.0,0.0,0.0,0.0,0.0,0.0,0.0,0.0,0.0,0.0,0.0,0.0,0.0,0.0,0.0,0.0,0.0,0.0,0.0,0.0,0.0,0.0,0.0,0.0,0.0,0.0,0.0,0.0,0.0,0.0,0.0,0.0,0.0,0.0,0.0,0.0,0.0,0.0,0.0,0.0,0.0,0.0,0.0,0.0,0.0,0.0,0.0,0.0,0.0,0.0,0.0,0.0,0.0,0.0,0.0,0.0,0.0,0.0,0.0,0.0,0.0,0.0,0.0,0.0,0.0,0.0,0.0,0.0,0.0,0.0,0.0,0.0,0.0,0.0,0.0,0.0,0.0,0.0,0.0,0.0,0.0,0.0,0.0,0.0,0.0,0.0,0.0,0.0,0.0,0.0,0.0,0.0,0.0,0.0,0.0,0.0,0.0,0.0,0.0,0.0,0.0,0.0,0.0,0.0,0.0,0.0,0.0,0.0,0.0,0.0,0.0,0.0,0.0,0.0,0.0,0.0,0.0,0.0,0.0,0.0,0.0,0.0,0.0,0.0,0.0,0.0,0.0,0.0,0.0,0.0,0.0,0.0,0.0,0.0,0.0,0.0,0.0,0.0,0.0,0.0,1.6127,0.0,0.0,0.0,0.0,0.0,0.0,0.0,0.0,0.0,0.0,0.0,0.0,0.0,0.0,0.0,0.0,0.0,0.0,0.0,0.0,0.0,0.0,0.0,0.0,0.0,0.0,0.0,0.0,0.0,0.0,0.0,0.0,0.0,0.0,0.0,0.0,0.0,0.0,0.0,0.0,0.0,0.0,0.0,0.0,0.0,0.0,0.0,0.0,0.0,0.0,0.0,0.0,0.0,0.0,0.0,0.0,0.0,0.0,0.0,0.0,0.0,0.0,0.0,0.0,0.0,0.0,0.0,0.0,0.0,0.0,0.0,0.0,0.0,0.0,0.0,0.0,0.0,0.0,0.0,0.0,0.0,0.0,0.0,0.0,0.0,0.0,0.0,0.0,0.0,0.0,0.0,0.0,0.0,0.0,0.0,0.0,0.0,0.0,0.0,0.0,0.0,0.0,0.0,0.0,0.0,0.0,0.0,0.0,0.0,0.0,1.7065,1.7165,1.6963,1.6689,1.6375,0.0,0.0,0.0,0.0,0.0,0.0,0.0,0.0,0.0,0.0,0.0,0.0,0.0,0.0,0.0,0.0,0.0,0.0,0.0,0.0,0.0,0.0,0.0,0.0,0.0,0.0,0.0,0.0,0.0,0.0,0.0,0.0,0.0,0.0,0.0,0.0,0.0,0.0,0.0,0.0,0.0,0.0,0.0,0.0,0.0,0.0,0.0,0.0,0.0,0.0,0.0,0.0,0.0,0.0,0.0,0.0,0.0,0.0,0.0,0.0,0.0,0.0,0.0,0.0,0.0,0.0,0.0,0.0,0.0,0.0,0.0,0.0,0.0,0.0,0.0,0.0,0.0,0.0,0.0,0.0,0.0,0.0,0.0,0.0,0.0,0.0,0.0,0.0,0.0,0.0,0.0,0.0,0.0,0.0,0.0,0.0,0.0,0.0,0.0,0.0,0.0,0.0,0.0,0.0,0.0,0.0,0.0,0.0,0.0,0.0,0.0,0.0,1.7212,1.6872,1.6205,0.0,0.0,0.0,0.0,0.0,0.0,0.0,0.0,0.0,0.0,0.0,0.0,0.0,0.0,0.0,0.0,0.0,0.0,0.0,0.0,0.0,0.0,0.0,0.0,0.0,0.0,0.0,0.0,0.0,0.0,0.0,0.0,0.0,0.0,0.0,0.0,0.0,0.0,0.0,0.0,0.0,0.0,0.0,0.0,0.0,0.0,0.0,0.0,0.0,0.0,0.0,0.0,0.0,0.0,0.0,0.0,0.0,0.0,0.0,0.0,0.0,0.0,0.0,0.0,0.0,0.0,0.0,0.0,0.0,0.0,0.0,0.0,0.0,0.0,0.0,0.0,0.0,0.0,0.0,0.0,0.0,0.0,0.0,0.0,0.0,0.0,0.0,0.0,0.0,0.0,0.0,0.0,0.0,0.0,0.0,0.0,0.0,0.0,0.0,0.0,0.0,0.0,0.0,0.0,0.0,0.0,0.0,0.0,0.0,0.0,1.7178,1.7199,1.7212,0.0,1.567,0.0,0.0,0.0,0.0,0.0,0.0,0.0,0.0,0.0,0.0,0.0,0.0,0.0,0.0,0.0,0.0,0.0,0.0,0.0,0.0,0.0,0.0,0.0,0.0,0.0,0.0,0.0,0.0,0.0,0.0,0.0,0.0,0.0,0.0,0.0,0.0,0.0,0.0,0.0,0.0,0.0,0.0,0.0,0.0,0.0,0.0,0.0,0.0,0.0,0.0,0.0,0.0,0.0,0.0,0.0,0.0,0.0,0.0,0.0,0.0,0.0,0.0,0.0,0.0,0.0,0.0,0.0,0.0,0.0,0.0,0.0,0.0,0.0,0.0,0.0,0.0,0.0,0.0,0.0,0.0,0.0,0.0,0.0,0.0,0.0,0.0,0.0,0.0,0.0,0.0,0.0,0.0,0.0,0.0,0.0,0.0,0.0,0.0,0.0,0.0,0.0,0.0,0.0,0.0,0.0,0.0,0.0,0.0,0.0,0.0,1.7369,1.7721,1.7735,1.7029,0.0,0.0,0.0,0.0,0.0,0.0,0.0,0.0,0.0,0.0,0.0,0.0,0.0,0.0,0.0,0.0,0.0,0.0,0.0,0.0,0.0,0.0,0.0,0.0,0.0,0.0,0.0,0.0,0.0,0.0,0.0,0.0,0.0,0.0,0.0,0.0,0.0,0.0,0.0,0.0,0.0,0.0,0.0,0.0,0.0,0.0,0.0,0.0,0.0,0.0,0.0,0.0,0.0,0.0,0.0,0.0,0.0,0.0,0.0,0.0,0.0,0.0,0.0,0.0,0.0,0.0,0.0,0.0,0.0,0.0,0.0,0.0,0.0,0.0,0.0,0.0,0.0,0.0,0.0,0.0,0.0,0.0,0.0,0.0,0.0,0.0,0.0,0.0,0.0,0.0,0.0,0.0,0.0,0.0,0.0,0.0,0.0,0.0,0.0,0.0,0.0,0.0,0.0,0.0,0.0,0.0,0.0,0.0,0.0,0.0,1.7212,0.0,1.7826,1.7852,1.7107,1.5552,0.0,0.0,0.0,0.0,0.0,0.0,0.0,0.0,0.0,0.0,0.0,0.0,0.0,0.0,0.0,0.0,0.0,0.0,0.0,0.0,0.0,0.0,0.0,0.0,0.0,0.0,0.0,0.0,0.0,0.0,0.0,0.0,0.0,0.0,0.0,0.0,0.0,0.0,0.0,0.0,0.0,0.0,0.0,0.0,0.0,0.0,0.0,0.0,0.0,0.0,0.0,0.0,0.0,0.0,0.0,0.0,0.0,0.0,0.0,0.0,0.0,0.0,0.0,0.0,0.0,0.0,0.0,0.0,0.0,0.0,0.0,0.0,0.0,0.0,0.0,0.0,0.0,0.0,0.0,0.0,0.0,0.0,0.0,0.0,0.0,0.0,0.0,0.0,0.0,0.0,0.0,0.0,0.0,0.0,0.0,0.0,0.0,0.0,0.0,0.0,0.0,0.0,0.0,0.0,0.0,0.0,0.0,0.0,0.0,1.7212,1.7212,1.7251,1.7238,1.6689,0.0,0.0,0.0,0.0,0.0,0.0,0.0,0.0,0.0,0.0,0.0,0.0,0.0,0.0,0.0,0.0,0.0,0.0,0.0,0.0,0.0,0.0,0.0,0.0,0.0,0.0,0.0,0.0,0.0,0.0,0.0,0.0,0.0,0.0,0.0,0.0,0.0,0.0,0.0,0.0,0.0,0.0,0.0,0.0,0.0,0.0,0.0,0.0,0.0,0.0,0.0,0.0,0.0,0.0,0.0,0.0,0.0,0.0,0.0,0.0,0.0,0.0,0.0,0.0,0.0,0.0,0.0,0.0,0.0,0.0,0.0,0.0,0.0,0.0,0.0,0.0,0.0,0.0,0.0,0.0,0.0,0.0,0.0,0.0,0.0,0.0,0.0,0.0,0.0,0.0,0.0,0.0,0.0,0.0,0.0,0.0,0.0,0.0,0.0,0.0,0.0,0.0,0.0,0.0,0.0,0.0,0.0,0.0,0.0,1.7212,1.7565,1.7578,1.7225,1.7565,1.7055,0.0,0.0,0.0,0.0,0.0,0.0,0.0,0.0,0.0,0.0,0.0,0.0,0.0,0.0,0.0,0.0,0.0,0.0,0.0,0.0,0.0,0.0,0.0,0.0,0.0,0.0,0.0,0.0,0.0,0.0,0.0,0.0,0.0,0.0,0.0,0.0,0.0,0.0,0.0,0.0,0.0,0.0,0.0,0.0,0.0,0.0,0.0,0.0,0.0,0.0,0.0,0.0,0.0,0.0,0.0,0.0,0.0,0.0,0.0,0.0,0.0,0.0,0.0,0.0,0.0,0.0,0.0,0.0,0.0,0.0,0.0,0.0,0.0,0.0,0.0,0.0,0.0,0.0,0.0,0.0,0.0,0.0,0.0,0.0,0.0,0.0,0.0,0.0,0.0,0.0,0.0,0.0,0.0,0.0,0.0,0.0,0.0,0.0,0.0,0.0,0.0,0.0,0.0,0.0,0.0,0.0,0.0,0.0,0.0,1.7267,0.0,1.7681,0.0,1.7697,1.7171,0.0,0.0,0.0,0.0,0.0,0.0,0.0,0.0,0.0,0.0,0.0,0.0,0.0,0.0,0.0,0.0,0.0,0.0,0.0,0.0,0.0,0.0,0.0,0.0,0.0,0.0,0.0,0.0,0.0,0.0,0.0,0.0,0.0,0.0,0.0,0.0,0.0,0.0,0.0,0.0,0.0,0.0,0.0,0.0,0.0,0.0,0.0,0.0,0.0,0.0,0.0,0.0,0.0,0.0,0.0,0.0,0.0,0.0,0.0,0.0,0.0,0.0,0.0,0.0,0.0,0.0,0.0,0.0,0.0,0.0,0.0,0.0,0.0,0.0,0.0,0.0,0.0,0.0,0.0,0.0,0.0,0.0,0.0,0.0,0.0,0.0,0.0,0.0,0.0,0.0,0.0,0.0,0.0,0.0,0.0,0.0,0.0,0.0,0.0,0.0,0.0,0.0,0.0,0.0,0.0,0.0,0.0,0.0,1.7274,1.7384,1.7404,1.7459,1.7496,1.7522,1.6983,0.0,0.0,0.0,0.0,0.0,0.0,0.0,0.0,0.0,0.0,0.0,0.0,0.0,0.0,0.0,0.0,0.0,0.0,0.0,0.0,0.0,0.0,0.0,0.0,0.0,0.0,0.0,0.0,0.0,0.0,0.0,0.0,0.0,0.0,0.0,0.0,0.0,0.0,0.0,0.0,0.0,0.0,0.0,0.0,0.0,0.0,0.0,0.0,0.0,0.0,0.0,0.0,0.0,0.0,0.0,0.0,0.0,0.0,0.0,0.0,0.0,0.0,0.0,0.0,0.0,0.0,0.0,0.0,0.0,0.0,0.0,0.0,0.0,0.0,0.0,0.0,0.0,0.0,0.0,0.0,0.0,0.0,0.0,0.0,0.0,0.0,0.0,0.0,0.0,0.0,0.0,0.0,0.0,0.0,0.0,0.0,0.0,0.0,0.0,0.0,0.0,0.0,0.0,0.0,0.0,0.0,0.0,0.0,0.0,1.7418,1.744,1.7522,1.7625,1.7727,1.7194,0.0,0.0,0.0,0.0,0.0,0.0,0.0,0.0,0.0,0.0,0.0,0.0,0.0,0.0,0.0,0.0,0.0,0.0,0.0,0.0,0.0,0.0,0.0,0.0,0.0,0.0,0.0,0.0,0.0,0.0,0.0,0.0,0.0,0.0,0.0,0.0,0.0,0.0,0.0,0.0,0.0,0.0,0.0,0.0,0.0,0.0,0.0,0.0,0.0,0.0,0.0,0.0,0.0,0.0,0.0,0.0,0.0,0.0,0.0,0.0,0.0,0.0,0.0,0.0,0.0,0.0,0.0,0.0,0.0,0.0,0.0,0.0,0.0,0.0,0.0,0.0,0.0,0.0,0.0,0.0,0.0,0.0,0.0,0.0,0.0,0.0,0.0,0.0,0.0,0.0,0.0,0.0,0.0,0.0,0.0,0.0,0.0,0.0,0.0,0.0,0.0,0.0,0.0,0.0,0.0,0.0,0.0,0.0,0.0,1.84,1.8199,1.818,1.8385,1.8233,1.7636,1.6592,0.0,0.0,0.0,0.0,0.0,0.0,0.0,0.0,0.0,0.0,0.0,0.0,0.0,0.0,0.0,0.0,0.0,0.0,0.0,0.0,0.0,0.0,0.0,0.0,0.0,0.0,0.0,0.0,0.0,0.0,0.0,0.0,0.0,0.0,0.0,0.0,0.0,0.0,0.0,0.0,0.0,0.0,0.0,0.0,0.0,0.0,0.0,0.0,0.0,0.0,0.0,0.0,0.0,0.0,0.0,0.0,0.0,0.0,0.0,0.0,0.0,0.0,0.0,0.0,0.0,0.0,0.0,0.0,0.0,0.0,0.0,0.0,0.0,0.0,0.0,0.0,0.0,0.0,0.0,0.0,0.0,0.0,0.0,0.0,0.0,0.0,0.0,0.0,0.0,0.0,0.0,0.0,0.0,0.0,0.0,0.0,0.0,0.0,0.0,0.0,0.0,0.0,0.0,0.0,0.0,0.0,0.0,0.0,2.0192,1.9593,1.9412,1.9634,1.8962,1.8284,0.0,0.0,0.0,0.0,0.0,0.0,0.0,0.0,0.0,0.0,0.0,0.0,0.0,0.0,0.0,0.0,0.0,0.0,0.0,0.0,0.0,0.0,0.0,0.0,0.0,0.0,0.0,0.0,0.0,0.0,0.0,0.0,0.0,0.0,0.0,0.0,0.0,0.0,0.0,0.0,0.0,0.0,0.0,0.0,0.0,0.0,0.0,0.0,0.0,0.0,0.0,0.0,0.0,0.0,0.0,0.0,0.0,0.0,0.0,0.0,0.0,0.0,0.0,0.0,0.0,0.0,0.0,0.0,0.0,0.0,0.0,0.0,0.0,0.0,0.0,0.0,0.0,0.0,0.0,0.0,0.0,0.0,0.0,0.0,0.0,0.0,0.0,0.0,0.0,0.0,0.0,0.0,0.0,0.0,0.0,0.0,0.0,0.0,0.0,0.0,0.0,0.0,0.0,0.0,0.0,0.0,0.0,0.0,0.0,2.1312,2.1384,2.1096,2.0433,1.9852,1.9223,0.0,0.0,0.0,0.0,0.0,0.0,0.0,0.0,0.0,0.0,0.0,0.0,0.0,0.0,0.0,0.0,0.0,0.0,0.0,0.0,0.0,0.0,0.0,0.0,0.0,0.0,0.0,0.0,0.0,0.0,0.0,0.0,0.0,0.0,0.0,0.0,0.0,0.0,0.0,0.0,0.0,0.0,0.0,0.0,0.0,0.0,0.0,0.0,0.0,0.0,0.0,0.0,0.0,0.0,0.0,0.0,0.0,0.0,0.0,0.0,0.0,0.0,0.0,0.0,0.0,0.0,0.0,0.0,0.0,0.0,0.0,0.0,0.0,0.0,0.0,0.0,0.0,0.0,0.0,0.0,0.0,0.0,0.0,0.0,0.0,0.0,0.0,0.0,0.0,0.0,0.0,0.0,0.0,0.0,0.0,0.0,0.0,0.0,0.0,0.0,0.0,0.0,0.0,0.0,0.0,0.0,0.0,0.0,2.1147,2.2663,2.3003,2.2893,2.2323,2.1143,2.022,0.0,0.0,0.0,0.0,0.0,0.0,0.0,0.0,0.0,0.0,0.0,0.0,0.0,0.0,0.0,0.0,0.0,0.0,0.0,0.0,0.0,0.0,0.0,0.0,0.0,0.0,0.0,0.0,0.0,0.0,0.0,0.0,0.0,0.0,0.0,0.0,0.0,0.0,0.0,0.0,0.0,0.0,0.0,0.0,0.0,0.0,0.0,0.0,0.0,0.0,0.0,0.0,0.0,0.0,0.0,0.0,0.0,0.0,0.0,0.0,0.0,0.0,0.0,0.0,0.0,0.0,0.0,0.0,0.0,0.0,0.0,0.0,0.0,0.0,0.0,0.0,0.0,0.0,0.0,0.0,0.0,0.0,0.0,0.0,0.0,0.0,0.0,0.0,0.0,0.0,0.0,0.0,0.0,0.0,0.0,0.0,0.0,0.0,0.0,0.0,0.0,0.0,0.0,0.0,0.0,0.0,0.0,0.0,2.1766,2.3903,2.4315,2.4498,2.4454,2.2615,2.1272,0.0,0.0,0.0,0.0,0.0,0.0,0.0,0.0,0.0,0.0,0.0,0.0,0.0,0.0,0.0,0.0,0.0,0.0,0.0,0.0,0.0,0.0,0.0,0.0,0.0,0.0,0.0,0.0,0.0,0.0,0.0,0.0,0.0,0.0,0.0,0.0,0.0,0.0,0.0,0.0,0.0,0.0,0.0,0.0,0.0,0.0,0.0,0.0,0.0,0.0,0.0,0.0,0.0,0.0,0.0,0.0,0.0,0.0,0.0,0.0,0.0,0.0,0.0,0.0,0.0,0.0,0.0,0.0,0.0,0.0,0.0,0.0,0.0,0.0,0.0,0.0,0.0,0.0,0.0,0.0,0.0,0.0,0.0,0.0,0.0,0.0,0.0,0.0,0.0,0.0,0.0,0.0,0.0,0.0,0.0,0.0,0.0,0.0,0.0,0.0,0.0,0.0,0.0,0.0,0.0,0.0,0.0,0.0,2.1974,2.4287,2.4506,2.4597,2.4559,2.3584,2.2464,0.0,0.0,0.0,0.0,0.0,0.0,0.0,0.0,0.0,0.0,0.0,0.0,0.0,0.0,0.0,0.0,0.0,0.0,0.0,0.0,0.0,0.0,0.0,0.0,0.0,0.0,0.0,0.0,0.0,0.0,0.0,0.0,0.0,0.0,0.0,0.0,0.0,0.0,0.0,0.0,0.0,0.0,0.0,0.0,0.0,0.0,0.0,0.0,1.4783,0.0,0.0,0.0,0.0,0.0,0.0,0.0,0.0,0.0,0.0,0.0,0.0,0.0,0.0,0.0,0.0,0.0,0.0,0.0,0.0,0.0,0.0,0.0,0.0,0.0,0.0,0.0,0.0,0.0,0.0,0.0,0.0,0.0,0.0,0.0,0.0,0.0,0.0,0.0,0.0,0.0,0.0,0.0,0.0,0.0,0.0,0.0,0.0,0.0,0.0,0.0,0.0,0.0,0.0,0.0,0.0,0.0,0.0,0.0,2.2959,2.4862,2.532,2.5428,2.5175,2.4724,2.3568,0.0,0.0,0.0,0.0,0.0,0.0,0.0,0.0,0.0,0.0,0.0,0.0,0.0,0.0,0.0,0.0,0.0,0.0,0.0,0.0,0.0,0.0,0.0,0.0,0.0,0.0,0.0,0.0,0.0,0.0,0.0,0.0,0.0,0.0,0.0,0.0,0.0,0.0,0.0,0.0,0.0,0.0,0.0,0.0,0.0,0.0,0.0,0.0,0.0,0.0,0.0,0.0,0.0,0.0,0.0,0.0,0.0,0.0,0.0,0.0,0.0,0.0,0.0,0.0,0.0,0.0,0.0,0.0,0.0,0.0,0.0,0.0,0.0,0.0,0.0,0.0,0.0,0.0,0.0,0.0,0.0,0.0,0.0,0.0,0.0,0.0,0.0,0.0,0.0,0.0,0.0,0.0,0.0,0.0,0.0,0.0,0.0,0.0,0.0,0.0,0.0,0.0,0.0,0.0,0.0,0.0,0.0,2.2345,2.3938,2.539,2.6195,2.636,2.5808,2.5685,2.441,2.1819,0.0,0.0,0.0,0.0,0.0,0.0,0.0,0.0,0.0,0.0,0.0,0.0,0.0,0.0,0.0,0.0,0.0,0.0,0.0,0.0,0.0,0.0,0.0,0.0,0.0,0.0,0.0,0.0,0.0,0.0,0.0,0.0,0.0,0.0,0.0,0.0,0.0,0.0,1.2631,1.4947,0.0,0.0,0.0,0.0,0.0,0.0,0.0,0.0,1.6516,0.0,0.0,0.0,0.0,0.0,0.0,0.0,0.0,0.0,0.0,0.0,0.0,0.0,0.0,0.0,0.0,0.0,0.0,0.0,0.0,0.0,0.0,0.0,0.0,0.0,0.0,0.0,0.0,0.0,0.0,0.0,0.0,0.0,0.0,0.0,0.0,0.0,0.0,0.0,0.0,0.0,0.0,0.0,0.0,0.0,0.0,0.0,0.0,0.0,0.0,0.0,0.0,0.0,0.0,0.0,0.0,2.0864,2.2389,2.3969,2.5538,2.6243,2.636,2.5823,2.5793,2.4506,2.1949,0.0,0.0,0.0,0.0,0.0,0.0,0.0,0.0,0.0,0.0,0.0,0.0,0.0,0.0,0.0,0.0,0.0,0.0,0.0,0.0,0.0,0.0,0.0,0.0,0.0,0.0,0.0,0.0,0.0,0.0,0.0,0.0,0.0,0.0,0.0,0.0,0.0,0.0,0.0,1.6886,1.793,0.0,0.0,0.0,0.0,0.0,0.0,0.0,0.0,1.77,0.0,0.0,0.0,0.0,0.0,0.0,0.0,0.0,0.0,0.0,0.0,0.0,0.0,0.0,0.0,0.0,0.0,0.0,0.0,0.0,0.0,0.0,0.0,0.0,0.0,0.0,0.0,0.0,0.0,0.0,0.0,0.0,0.0,0.0,0.0,0.0,0.0,0.0,0.0,0.0,0.0,0.0,0.0,0.0,0.0,0.0,0.0,0.0,0.0,0.0,0.0,0.0,0.0,0.0,0.0,2.1069,2.3201,2.4741,2.5576,2.666,2.6817,2.5931,2.5894,2.4682,0.0,0.0,0.0,0.0,0.0,0.0,0.0,0.0,0.0,0.0,0.0,0.0,0.0,0.0,0.0,0.0,0.0,0.0,0.0,0.0,0.0,0.0,0.0,0.0,0.0,0.0,0.0,0.0,0.0,0.0,0.0,0.0,0.0,0.0,0.0,0.0,0.0,0.0,0.0,0.0,1.8422,1.9408,1.9745,0.0,0.0,0.0,0.0,0.0,0.0,1.8593,1.8609,0.0,0.0,0.0,0.0,0.0,0.0,0.0,0.0,0.0,0.0,0.0,0.0,0.0,0.0,0.0,0.0,0.0,0.0,0.0,0.0,0.0,0.0,0.0,0.0,0.0,0.0,0.0,0.0,0.0,0.0,0.0,0.0,0.0,0.0,0.0,0.0,0.0,0.0,0.0,0.0,0.0,0.0,0.0,0.0,0.0,0.0,0.0,0.0,0.0,0.0,0.0,0.0,0.0,0.0,0.0,2.1201,2.3977,2.5506,2.5691,2.6952,2.7134,2.61,2.5895,2.4661,0.0,0.0,0.0,0.0,0.0,0.0,0.0,0.0,0.0,0.0,0.0,0.0,0.0,0.0,0.0,0.0,0.0,0.0,0.0,0.0,0.0,0.0,0.0,0.0,0.0,0.0,0.0,0.0,0.0,0.0,0.0,0.0,0.0,0.0,0.0,0.0,0.0,0.0,0.0,0.0,0.0,2.0615,2.1417,2.1095,0.0,0.0,0.0,0.0,1.9356,1.962,0.0,0.0,0.0,0.0,0.0,0.0,0.0,0.0,0.0,0.0,0.0,0.0,0.0,0.0,0.0,0.0,0.0,0.0,0.0,0.0,0.0,0.0,0.0,0.0,0.0,0.0,0.0,0.0,0.0,0.0,0.0,0.0,0.0,0.0,0.0,0.0,0.0,0.0,0.0,0.0,0.0,0.0,0.0,0.0,0.0,0.0,0.0,0.0,0.0,0.0,0.0,0.0,0.0,0.0,0.0,0.0,2.1269,2.4089,2.5646,2.5801,2.6635,2.6799,2.6176,2.555,2.4252,0.0,0.0,0.0,0.0,0.0,0.0,0.0,0.0,0.0,0.0,0.0,0.0,0.0,0.0,0.0,0.0,0.0,0.0,0.0,0.0,0.0,0.0,0.0,0.0,0.0,0.0,0.0,0.0,0.0,0.0,0.0,0.0,0.0,0.0,0.0,0.0,0.0,0.0,0.0,0.0,0.0,2.0874,2.2192,2.2359,2.2321,0.0,0.0,2.2355,2.2294,2.1808,0.0,0.0,0.0,0.0,0.0,0.0,0.0,0.0,0.0,0.0,0.0,0.0,0.0,0.0,0.0,0.0,0.0,0.0,0.0,0.0,0.0,0.0,0.0,0.0,0.0,0.0,0.0,0.0,0.0,0.0,0.0,0.0,0.0,0.0,0.0,0.0,0.0,0.0,0.0,0.0,0.0,0.0,0.0,0.0,0.0,0.0,0.0,0.0,0.0,0.0,0.0,0.0,0.0,0.0,0.0,2.07,2.1444,2.4253,2.5605,2.5394,2.6511,2.6626,2.5603,2.5348,2.428,0.0,0.0,0.0,0.0,0.0,0.0,0.0,0.0,0.0,0.0,0.0,0.0,0.0,0.0,0.0,0.0,0.0,0.0,0.0,0.0,0.0,0.0,0.0,0.0,0.0,0.0,0.0,0.0,0.0,0.0,0.0,0.0,0.0,0.0,0.0,0.0,0.0,0.0,0.0,0.0,0.0,0.0,2.2936,2.3122,0.0,0.0,0.0,2.3242,2.2904,0.0,0.0,0.0,0.0,0.0,0.0,0.0,0.0,0.0,0.0,0.0,0.0,0.0,0.0,0.0,0.0,0.0,0.0,0.0,0.0,0.0,0.0,0.0,0.0,0.0,0.0,0.0,0.0,0.0,0.0,0.0,0.0,0.0,0.0,0.0,0.0,0.0,0.0,0.0,0.0,0.0,0.0,0.0,0.0,0.0,0.0,0.0,0.0,0.0,0.0,0.0,0.0,0.0,0.0,0.0,0.0,0.0,2.16,2.4264,2.5538,2.5339,2.623,2.6321,2.5463,2.5023,0.0,0.0,0.0,0.0,0.0,0.0,0.0,0.0,0.0,0.0,0.0,0.0,0.0,0.0,0.0,0.0,0.0,0.0,0.0,0.0,0.0,0.0,0.0,0.0,0.0,0.0,0.0,1.1441,0.0,0.0,0.0,0.0,0.0,0.0,0.0,0.0,0.0,0.0,0.0,0.0,0.0,0.0,2.2854,2.3709,2.3905,2.3814,0.0,0.0,2.4094,2.3644,2.3925,2.3832,0.0,0.0,0.0,0.0,0.0,0.0,0.0,0.0,0.0,0.0,0.0,0.0,0.0,0.0,0.0,0.0,0.0,0.0,0.0,0.0,0.0,0.0,0.0,0.0,0.0,0.0,0.0,0.0,0.0,0.0,0.0,0.0,0.0,0.0,0.0,0.0,0.0,0.0,0.0,0.0,0.0,0.0,0.0,0.0,0.0,0.0,0.0,0.0,0.0,0.0,0.0,0.0,0.0,0.0,0.0,2.1749,2.4034,2.5542,2.6061,2.5661,2.5711,2.6257,2.4441,2.3086,0.0,0.0,0.0,0.0,0.0,0.0,0.0,0.0,0.0,0.0,0.0,0.0,0.0,0.0,0.0,0.0,0.0,0.0,0.0,0.0,0.0,0.0,0.0,0.0,0.0,0.0,0.0,0.0,0.0,0.0,0.0,0.0,0.0,0.0,0.0,0.0,0.0,0.0,0.0,0.0,0.0,2.3123,2.4496,2.4867,2.5012,0.0,0.0,2.5478,2.543,2.4883,2.4432,2.4351,0.0,0.0,0.0,0.0,0.0,0.0,0.0,0.0,0.0,0.0,0.0,0.0,0.0,0.0,0.0,0.0,0.0,0.0,0.0,0.0,0.0,0.0,0.0,0.0,0.0,0.0,0.0,0.0,0.0,0.0,0.0,0.0,0.0,0.0,0.0,0.0,0.0,0.0,0.0,0.0,0.0,0.0,0.0,0.0,0.0,0.0,0.0,0.0,0.0,0.0,0.0,0.0,0.0,2.1343,2.2009,2.4521,2.5754,2.5667,2.5865,2.5903,2.5733,2.4148,2.2978,0.0,0.0,0.0,0.0,0.0,0.0,0.0,0.0,0.0,0.0,0.0,0.0,0.0,0.0,0.0,0.0,0.0,0.0,0.0,0.0,0.0,0.0,0.0,0.0,0.0,0.0,0.0,0.0,1.4052,1.4264,1.4464,0.0,0.0,0.0,0.0,0.0,0.0,0.0,0.0,0.0,0.0,2.3318,2.5244,2.5679,0.0,0.0,2.6832,2.6875,2.6891,2.6338,2.5724,2.519,2.4136,0.0,0.0,0.0,0.0,0.0,0.0,0.0,0.0,0.0,0.0,0.0,0.0,0.0,0.0,0.0,0.0,0.0,0.0,0.0,0.0,0.0,0.0,0.0,0.0,0.0,0.0,0.0,0.0,0.0,0.0,0.0,0.0,0.0,0.0,0.0,0.0,0.0,0.0,0.0,0.0,0.0,0.0,0.0,0.0,0.0,0.0,0.0,0.0,0.0,0.0,0.0,0.0,2.1701,2.2799,2.4866,2.5937,2.5911,2.6226,2.6134,2.5604,2.4317,2.3179,0.0,0.0,0.0,0.0,0.0,0.0,0.0,0.0,0.0,0.0,0.0,0.0,0.0,0.0,0.0,0.0,0.0,0.0,0.0,0.0,0.0,0.0,0.0,0.0,0.0,0.0,0.0,0.0,1.4547,1.4835,1.5537,0.0,0.0,0.0,0.0,0.0,0.0,0.0,0.0,0.0,0.0,2.3962,2.5812,2.6388,2.6892,2.7595,2.7745,2.7806,2.7786,2.7427,2.6922,2.6273,0.0,0.0,0.0,0.0,0.0,0.0,0.0,0.0,0.0,0.0,0.0,0.0,0.0,0.0,0.0,0.0,0.0,0.0,0.0,0.0,0.0,0.0,0.0,0.0,0.0,0.0,0.0,0.0,0.0,0.0,2.1035,0.0,0.0,0.0,0.0,0.0,0.0,0.0,0.0,0.0,0.0,0.0,0.0,0.0,0.0,0.0,0.0,0.0,0.0,0.0,0.0,0.0,0.0,2.281,2.4126,2.4946,2.5995,2.7257,2.6665,2.6342,2.6334,2.501,2.364,2.232,0.0,0.0,0.0,0.0,0.0,0.0,0.0,0.0,0.0,0.0,0.0,0.0,0.0,0.0,0.0,0.0,0.0,0.0,0.0,0.0,0.0,0.0,0.0,0.0,0.0,0.0,1.5476,1.5396,1.5663,0.0,0.0,0.0,0.0,0.0,0.0,0.0,0.0,0.0,0.0,2.3954,2.5267,2.6097,2.7004,2.7655,2.7916,2.798,2.8023,2.8039,2.799,2.7914,0.0,0.0,0.0,0.0,0.0,0.0,0.0,0.0,0.0,0.0,0.0,0.0,0.0,0.0,0.0,0.0,0.0,0.0,0.0,0.0,0.0,0.0,0.0,0.0,0.0,0.0,0.0,2.3282,2.2915,0.0,0.0,0.0,0.0,0.0,0.0,0.0,0.0,0.0,0.0,0.0,2.5439,2.5477,0.0,0.0,0.0,0.0,0.0,0.0,0.0,0.0,0.0,0.0,0.0,0.0,2.3325,2.4255,2.5419,2.6472,2.7349,2.7165,2.7042,2.7057,2.5272,2.3255,2.106,0.0,0.0,0.0,0.0,0.0,0.0,0.0,0.0,0.0,0.0,0.0,0.0,0.0,0.0,0.0,0.0,0.0,0.0,0.0,0.0,0.0,0.0,0.0,0.0,0.0,1.7662,0.0,0.0,0.0,0.0,0.0,0.0,0.0,0.0,0.0,0.0,0.0,2.1748,2.4084,2.4837,2.5811,2.7669,2.8109,2.8521,0.0,0.0,0.0,0.0,0.0,0.0,0.0,0.0,0.0,0.0,0.0,0.0,0.0,0.0,2.3223,2.2189,2.1882,2.1675,2.1353,0.0,0.0,0.0,0.0,0.0,0.0,0.0,0.0,0.0,0.0,0.0,0.0,0.0,0.0,2.6529,0.0,2.6516,0.0,0.0,0.0,0.0,0.0,0.0,0.0,0.0,2.6855,2.7298,2.7511,2.7535,2.7405,0.0,2.6504,2.5375,0.0,0.0,0.0,0.0,0.0,0.0,0.0,0.0,2.404,2.4989,2.6149,2.7072,2.7703,2.7734,2.7642,2.7365,2.5379,2.3486,2.175,2.0795,1.9871,0.0,0.0,0.0,0.0,0.0,0.0,0.0,0.0,0.0,0.0,0.0,0.0,0.0,0.0,0.0,0.0,0.0,0.0,0.0,0.0,0.0,0.0,0.0,1.8684,0.0,0.0,0.0,0.0,0.0,0.0,0.0,0.0,0.0,2.1454,2.2096,2.3382,2.5436,2.6142,2.7001,2.8516,0.0,0.0,0.0,0.0,0.0,0.0,0.0,2.9484,2.9311,2.8709,2.8237,2.8208,2.8075,2.7891,2.764,0.0,0.0,2.4484,2.4014,2.3754,2.3418,2.3702,2.4071,2.4317,2.4718,2.5025,0.0,0.0,0.0,0.0,0.0,0.0,0.0,0.0,2.9641,2.9656,0.0,2.9164,0.0,0.0,0.0,0.0,0.0,2.6909,0.0,0.0,2.9029,2.9771,3.034,3.0325,3.0033,2.9402,2.8725,2.8088,2.728,2.4536,0.0,0.0,0.0,0.0,0.0,0.0,2.5004,2.6296,2.7026,2.7719,2.8365,2.8396,2.8073,2.7396,2.5472,2.4394,2.4194,2.1827,2.0428,2.032,1.9007,0.0,0.0,0.0,0.0,0.0,0.0,0.0,0.0,0.0,0.0,0.0,0.0,0.0,0.0,0.0,0.0,0.0,0.0,0.0,0.0,1.8482,0.0,0.0,0.0,0.0,0.0,0.0,0.0,0.0,0.0,0.0,2.2683,2.4286,2.5875,2.6538,0.0,0.0,0.0,0.0,3.1185,3.1319,3.1451,3.1539,3.1539,3.0945,3.0356,2.9978,0.0,0.0,2.8635,2.9049,2.9391,2.906,2.9296,2.8582,2.5627,2.4956,2.4854,2.5207,2.5342,2.5635,2.6272,2.6518,2.6611,3.3021,0.0,0.0,0.0,0.0,3.1319,3.169,3.1834,3.2514,3.2438,3.1858,3.1371,0.0,0.0,0.0,0.0,0.0,0.0,2.9106,2.9766,2.9992,3.0217,3.0402,3.0402,3.0294,3.0109,2.9925,2.9464,2.8772,2.7518,2.6014,2.4424,0.0,0.0,0.0,0.0,2.6173,2.7042,2.7288,2.7719,2.8381,2.8411,2.8088,2.7411,2.6826,2.5826,2.4364,2.3563,2.249,2.1057,2.0179,0.0,0.0,0.0,0.0,0.0,0.0,0.0,0.0,0.0,0.0,0.0,0.0,0.0,0.0,0.0,0.0,0.0,0.0,0.0,1.9909,2.0703,2.1038,0.0,0.0,0.0,0.0,0.0,0.0,0.0,0.0,0.0,2.62,2.6338,2.7008,0.0,0.0,3.0011,3.1153,3.1635,3.1988,3.2248,3.2337,0.0,0.0,3.226,3.2001,3.1896,3.1709,3.149,3.1227,3.1353,3.1417,3.1189,3.0978,3.0418,2.9438,2.7835,2.6689,2.6271,2.6842,2.7534,2.7811,2.855,2.9218,3.5908,3.3783,3.3274,3.3216,3.3457,3.4075,3.4485,3.4729,3.511,3.4942,3.4331,3.3675,3.2835,3.1873,3.0815,0.0,0.0,0.0,3.1213,3.1613,3.1905,3.2028,3.1997,3.1736,3.1586,3.1555,3.1059,3.0597,3.0181,2.9535,2.8556,2.7295,0.0,0.0,2.5764,2.6411,2.6965,2.738,2.7657,2.7996,2.8396,2.8411,2.8196,2.7811,2.7534,2.6688,2.5195,2.4594,2.3625,2.2166,2.1214,2.0071,0.0,0.0,0.0,0.0,0.0,0.0,0.0,0.0,0.0,0.0,0.0,1.4956,0.0,0.0,0.0,0.0,1.9494,2.0831,2.1841,2.239,0.0,0.0,0.0,0.0,0.0,0.0,0.0,2.5145,2.6327,2.7467,2.8447,2.8454,2.8876,3.0206,3.0612,3.1177,3.2184,0.0,3.2846,3.3104,3.3217,3.3306,3.3412,3.31,3.2829,3.2741,3.2484,3.2302,3.2249,3.2104,3.1963,3.1798,3.1429,3.1052,3.0857,2.963,2.8585,2.8112,2.8627,2.9141,2.9212,2.9848,3.0402,3.8197,3.7539,3.6327,3.5874,3.6023,3.6549,3.7036,3.7374,3.7328,3.704,3.6599,3.5907,3.4783,3.346,3.2829,0.0,3.2582,3.3198,3.346,3.3506,3.4197,3.4489,3.4459,3.3783,3.349,3.346,3.2194,3.1563,3.152,3.0843,3.0479,3.0402,2.7895,2.665,2.6734,2.7334,2.7626,2.7657,2.8211,2.8473,2.8411,2.8411,2.8411,2.8396,2.7811,2.7134,2.6418,2.5164,2.4102,2.3317,2.212,2.0826,1.9456,0.0,0.0,0.0,0.0,0.0,0.0,0.0,0.0,0.0,0.0,0.0,0.0,0.0,0.0,0.0,2.074,0.0,2.3419,2.3633,0.0,0.0,0.0,2.3615,2.4281,2.5134,2.5918,2.6655,0.0,0.0,2.9714,3.0545,3.1112,3.1248,3.1857,3.2297,3.2369,3.3151,3.374,3.3935,3.4157,3.4292,3.4276,3.379,3.3273,3.3011,3.2528,3.2378,3.2308,3.1999,3.1677,3.1683,3.1215,3.0943,3.0799,3.066,3.0555,3.0494,3.0479,3.0463,3.0448,3.0555,3.0678,3.9828,3.9619,3.8826,3.8086,3.7485,3.7622,3.7897,3.8212,3.8196,3.8119,3.7954,3.6784,3.5491,3.4243,3.4073,3.4012,3.4012,3.4181,3.4258,3.4243,3.4428,3.4489,3.4489,3.4335,3.4243,3.4181,3.3336,3.2921,3.2875,3.172,3.1151,3.1105,3.0012,2.9417,2.9448,2.9587,2.9679,2.9694,2.9325,2.8895,2.8427,2.8411,2.8411,2.8411,2.8242,2.7611,2.6464,2.6094,2.5087,2.3394,2.2998,2.1981,2.0165,1.9902,0.0,0.0,0.0,0.0,0.0,0.0,0.0,0.0,0.0,1.6815,1.8211,0.0,2.0428,0.0,2.2883,2.4082,2.3819,2.4244,0.0,0.0,2.4537,2.5051,2.5656,2.6458,2.7416,2.866,2.9274,3.0002,3.1146,3.2014,3.2586,3.2626,3.2795,3.3184,3.3859,3.4305,3.4658,3.4868,3.4967,3.5086,3.5121,3.4889,3.4452,3.4133,3.39,3.3705,3.3508,3.3131,3.2865,3.2829,3.2473,3.2179,3.2095,3.2017,3.1905,3.1874,3.152,3.1166,3.1151,3.1536,3.1921,4.0846,4.0816,4.0442,4.0091,3.9738,3.9161,3.9093,3.9351,3.9093,3.8954,3.8893,3.7846,3.6984,3.6292,3.6276,3.6261,3.6261,3.5968,3.5814,3.5799,3.5537,3.5398,3.5383,3.5106,3.4951,3.4921,3.4214,3.3721,3.3367,3.2659,3.2136,3.1855,3.149,3.1263,3.1274,3.0694,3.0402,3.0402,3.0033,2.9664,2.9294,2.9279,2.9141,2.8873,2.8833,2.8073,2.6457,2.6402,2.558,2.3856,2.3456,2.2675,2.1273,2.0888,2.0102,0.0,0.0,0.0,0.0,0.0,0.0,0.0,0.0,0.0,0.0,0.0,2.2262,2.3077,2.4713,2.5629,2.5476,2.5982,2.6243,2.5991,2.6434,2.6999,2.7593,2.8404,2.9335,3.0394,3.0677,3.1149,3.2112,3.2749,3.321,3.3411,3.3591,3.3893,3.4399,3.4715,3.497,3.5175,3.5268,3.5291,3.5314,3.5105,3.4811,3.4546,3.4275,3.405,3.3848,3.3424,3.3123,3.3096,3.2784,3.2523,3.2523,3.2468,3.2398,3.2351,3.2105,3.1901,3.1828,3.2136,3.2398,4.1542,4.1542,4.1414,4.1648,4.1908,4.0755,4.0405,4.0582,3.9905,3.9567,3.9477,3.8893,3.8585,3.8523,3.8508,3.8508,3.8477,3.7908,3.7631,3.7584,3.6938,3.6615,3.6599,3.5922,3.5614,3.5614,3.4951,3.4305,3.3675,3.349,3.309,3.2536,3.2428,3.2398,3.2351,3.1243,3.0628,3.0525,3.0509,3.0479,3.0402,3.0402,3.0079,2.9433,2.9387,2.8504,2.6626,2.6441,2.578,2.4518,2.3871,2.3255,2.2578,2.207,2.1473,0.0,2.0203,0.0,0.0,0.0,0.0,0.0,0.0,0.0,0.0,2.2731,2.395,2.5496,2.6369,2.7091,2.7629,2.8149,2.8405,2.8335,2.866,2.9118,2.9691,3.0433,3.1146,3.1814,3.2006,3.2305,3.2844,3.3071,3.3354,3.3804,3.414,3.4413,3.4546,3.4725,3.4859,3.4994,3.5105,3.5065,3.497,3.478,3.4594,3.4423,3.4126,3.3822,3.3694,3.3282,3.2924,3.2897,3.2633,3.2425,3.2425,3.2398,3.2398,3.2398,3.2367,3.2336,3.2336,3.2351,3.2398,4.2216,4.2171,4.1647,4.1611,4.1969,4.1726,4.1534,4.1355,4.0612,3.9997,3.949,3.9385,3.8998,3.8523,3.8508,3.8508,3.8492,3.8385,3.8308,3.8292,3.7631,3.7323,3.7261,3.6615,3.6307,3.6261,3.5645,3.5214,3.5106,3.3952,3.3336,3.3198,3.2675,3.2398,3.2382,0.0,0.0,0.0,3.1197,3.0951,3.0417,3.0402,3.0079,2.9417,2.9387,0.0,2.7288,2.6695,2.601,2.5173,2.4973,0.0,0.0,0.0,0.0,0.0,0.0,0.0,0.0,0.0,0.0,0.0,2.4855,2.4888,2.3489,2.4728,2.6278,2.7727,2.8104,2.8471,2.9107,2.9191,2.9539,3.0386,3.0476,3.0651,3.1134,3.1358,3.1702,3.2292,3.2487,3.2809,3.3425,3.3553,3.3668,3.3954,3.4398,3.4745,3.4804,3.4691,3.4554,3.4497,3.4586,3.4546,3.4325,3.4333,3.4275,3.4075,3.3889,3.3694,3.3555,3.3282,3.3005,3.2924,3.2718,3.2523,3.2425,3.2398,3.2398,3.2398,3.2398,3.2398,3.2398,3.2398,3.2398,4.2851,0.0,4.2491,4.255,0.0,4.2584,4.2489,4.2364,4.1458,4.0662,3.9982,3.9982,3.9797,3.9474,3.9508,3.9508,3.9459,3.917,3.8982,3.897,3.8308,3.7815,3.7492,3.7153,3.6815,3.6476,3.6153,3.5829,3.5491,3.4797,3.426,3.3937,3.3611,3.3244,3.289,3.2567,3.2228,3.1901,3.1901,3.172,3.1413,3.1397,3.092,2.994,0.0,0.0,0.0,0.0,0.0,0.0,0.0,0.0,0.0,0.0,0.0,2.4856,2.4606,2.4363,2.4082,2.4563,2.5108,2.562,2.7194,2.7689,2.6597,2.7344,2.8279,2.9341,2.9792,3.0137,3.0435,3.0698,3.1057,3.1587,3.1862,3.2078,3.2297,3.2578,3.2841,3.3143,3.347,3.3854,3.4132,3.4515,3.4691,3.4707,3.4979,3.5138,3.5009,3.4822,3.4572,3.4165,3.4101,3.4092,3.4025,3.3975,3.3975,3.3797,3.3668,3.3565,3.3503,3.3229,3.2993,3.2897,3.2676,3.248,3.2425,3.2398,3.2398,3.2398,3.2398,3.2398,3.2398,3.2398,3.2398,4.3305,4.3305,4.3305,4.3463,4.3645,4.3296,4.3221,4.3234,0.0,0.0,0.0,4.0689,4.0612,4.0505,4.0489,4.0489,4.0459,3.992,3.9659,3.9644,3.8967,3.84,3.7861,3.7738,3.7323,3.6692,3.6676,3.6322,3.5706,3.5568,3.5244,3.4705,3.4566,3.4197,3.3598,3.3044,3.2705,3.2567,3.2459,3.2398,3.2398,3.2398,3.1813,3.0602,3.0571,2.974,2.8011,2.7703,2.7303,2.6711,2.6611,2.6587,2.6603,2.6818,2.6872,2.6757,2.643,2.6187,2.6056,2.633,2.6848,2.7602,2.8948,2.9752,2.9671,2.9646,2.9922,3.0617,3.1205,3.1594,3.1675,3.2115,3.2513,3.2649,3.3121,3.3436,3.3589,3.394,3.4208,3.4256,3.4547,3.4819,3.4808,3.5227,3.5613,3.5471,3.5478,3.5493,3.5231,3.5003,3.4691,3.4276,3.4191,3.4064,3.4042,3.4079,3.3947,3.4006,3.3895,3.3731,3.3567,3.3285,3.3064,3.2858,3.2621,3.2468,3.2425,3.2398,3.2398,3.2398,3.2398,3.2398,3.2398,3.2398,3.2398,4.3305,4.3305,4.3305,4.3463,4.369,4.3639,4.3494,4.3264,4.2677,4.2078,4.1447,4.1447,4.1109,4.0489,4.0489,4.0489,4.0489,4.0382,4.0351,0.0,3.9659,3.929,3.9216,3.8646,3.8015,3.74,3.7353,3.7015,3.6353,3.5784,3.546,3.5306,3.4782,3.4459,3.4351,3.4258,3.3875,3.3275,3.269,3.2398,3.2398,3.2398,3.2028,3.1289,3.1243,3.0874,2.9986,2.8873,2.8227,2.808,2.7565,2.7257,2.7288,2.835,2.8735,2.8211,2.8671,2.8759,2.8138,2.8841,2.9682,3.0423,3.0765,3.0792,3.0639,3.0603,3.0917,3.1621,3.188,3.2107,3.2659,3.2894,3.3371,3.4294,3.4575,3.4828,3.5262,3.5385,3.5395,3.5286,3.5264,3.5217,3.5233,3.5206,3.5234,3.525,3.566,3.5796,3.5601,3.519,3.4895,3.4798,3.4855,3.4855,3.4726,3.4823,3.4757,3.4754,3.4676,3.4425,3.3971,3.3798,3.3543,3.2831,3.2748,3.2647,3.2533,3.2398,3.2521,3.2567,3.2595,3.2521,3.2505,3.2444,3.2398,4.3305,4.3305,4.3305,4.3369,4.3518,4.3754,4.3844,4.3846,4.3727,4.311,4.2186,4.214,4.1771,4.1124,4.1109,4.0893,4.0489,4.0489,4.0489,4.0474,4.0182,3.9844,3.9524,3.9167,3.8708,3.8077,3.8046,3.7692,3.7061,3.6722,3.6399,3.6014,3.5383,3.5044,3.5028,3.469,3.4335,3.4012,3.329,3.2767,3.2413,3.2398,3.2102,3.1439,3.1424,3.1074,3.0417,2.9802,2.9479,2.9479,2.9187,2.9042,2.9033,2.9602,2.9802,2.951,2.9832,2.9903,2.957,3.0624,3.1451,3.1883,3.2627,3.3058,3.3019,3.2561,3.2752,3.387,3.3931,3.3976,3.4312,3.4344,3.459,3.516,3.531,3.5481,3.5742,3.574,3.5657,3.5633,3.571,3.5789,3.5804,3.5945,3.6002,3.6004,3.6164,3.6198,3.6137,3.5935,3.5529,3.4951,3.4823,3.4896,3.4925,3.4938,3.4966,3.4909,3.4909,3.4784,3.446,3.44,3.4146,3.3841,3.3664,3.3622,3.3519,3.355,3.355,3.355,3.355,3.3442,3.3075,3.2675,3.2413,4.3305,4.3305,4.3305,4.3305,4.3344,4.3738,4.4026,4.4243,4.4419,4.3965,4.311,4.291,4.2463,4.1848,4.1678,4.1294,4.0766,4.0566,4.0489,4.0489,4.0489,4.0213,3.9751,3.9721,3.94,3.88,3.8706,3.84,3.7784,3.7723,3.7384,3.6707,3.603,3.5707,3.5737,3.5229,3.489,3.4705,3.4168,3.3552,3.2906,3.2705,3.2382,3.189,3.169,3.1382,3.0905,3.0694,3.0617,3.0602,3.0479,3.0402,3.0402,3.054,3.0617,3.0617,3.0755,3.0909,3.1109,3.2182,3.2915,3.3045,3.4017,3.4769,3.4976,3.4427,3.4417,3.5383,3.5332,3.5292,3.5276,3.5308,3.5435,3.5577,3.5752,3.5963,3.6103,3.6035,3.5994,3.6014,3.6211,3.6352,3.6387,3.6656,3.6753,3.6585,3.6585,3.6492,3.6492,3.6492,3.606,3.5456,3.5084,3.5205,3.526,3.5291,3.5323,3.5245,3.5291,3.5231,3.5107,3.4955,3.4773,3.462,3.4486,3.4382,3.4443,3.4443,3.4397,3.4351,3.432,3.4258,3.3752,3.3306,3.2736,4.3305,4.3305,4.3305,4.3305,4.3344,4.3596,4.3832,4.4026,4.4243,4.4373,4.4279,4.3778,4.3125,4.2479,4.1894,4.1601,4.1447,4.0816,4.052,4.052,4.0489,4.0459,4.0366,4.0382,4.0043,3.9459,3.9382,3.9077,3.8446,3.84,3.8061,3.7415,3.6738,3.6399,3.6384,3.6307,3.5984,3.5399,3.5352,3.4998,3.432,3.366,3.3275,3.3213,3.2613,3.2302,3.2213,3.1613,3.1305,3.1259,3.0812,3.0448,3.0509,3.0997,3.132,3.1366,3.189,3.2459,3.3075,3.3889,3.4289,3.432,3.4472,3.4901,3.553,3.5543,3.5305,3.5201,3.5042,3.5089,3.4966,3.5013,3.5339,3.5855,3.6066,3.6389,3.6875,3.7229,3.7275,3.7065,3.6854,3.6875,3.6676,3.6616,3.6554,3.6554,3.6523,3.6492,3.6492,3.6492,3.6476,3.6307,3.6292,3.6245,3.6245,3.6353,3.6214,3.623,3.6307,3.6045,3.5643,3.5443,3.5275,3.5042,3.4704,3.4705,3.4643,3.4505,3.4613,3.4767,3.4705,3.4505,3.4412,3.4243,3.3781,4.3305,4.3305,4.3305,4.3305,4.3344,4.3596,4.3769,4.3832,4.4026,4.4166,4.4228,4.3953,4.3615,4.3156,4.2879,4.2571,4.2155,4.1478,4.1155,4.1089,4.0689,4.0489,4.0489,4.0489,4.0336,4.0105,4.0074,3.9736,3.9139,3.8708,3.8369,3.8061,3.7415,3.7092,3.7046,3.6692,3.6338,3.6091,3.6091,3.5984,3.5584,3.4583,3.4073,3.4043,3.3796,3.3642,3.3627,3.3336,3.3242,3.3226,3.2964,3.2813,3.2813,3.3103,3.3242,3.3242,3.3503,3.3765,3.4014,3.4705,3.5106,3.5106,3.5475,3.5829,3.6122,3.6168,3.606,3.5888,3.5917,3.5977,3.5946,3.5961,3.6085,3.6349,3.6548,3.6793,3.7012,3.7135,3.7181,3.7075,3.6923,3.6785,3.6693,3.6585,3.6523,3.6492,3.6492,3.6492,3.6492,3.6492,3.6492,3.6492,3.6492,3.6492,3.6492,3.6492,3.6492,3.6492,3.6492,3.6307,3.6168,3.6076,3.5953,3.566,3.5584,3.5598,3.5768,3.566,3.566,3.5598,3.526,3.509,3.5076,3.4782,3.4227,4.3843,4.3853,4.3633,4.3454,4.3344,4.3518,4.3636,4.3729,4.3886,4.3934,4.3988,4.4003,4.3907,4.3714,4.3589,4.3236,4.2759,4.215,4.1878,4.1801,4.1155,4.0782,4.0782,4.0582,4.0489,4.0489,4.0474,4.0228,3.9721,3.9108,3.8785,3.8677,3.8108,3.7784,3.7692,3.7092,3.6769,3.6753,3.6615,3.6492,3.6338,3.5537,3.4967,3.4797,3.4597,3.4489,3.4489,3.4489,3.4489,3.4489,3.4489,3.4489,3.4489,3.4489,3.4489,3.452,3.469,3.4767,3.4782,3.5383,3.5768,3.5829,3.623,3.6492,3.6522,3.6661,3.6753,3.68,3.7017,3.7095,3.6647,3.6631,3.6631,3.6662,3.6816,3.6908,3.6908,3.6938,3.6984,3.6908,3.68,3.6677,3.6631,3.6538,3.6492,3.6492,3.6492,3.6492,3.6492,3.6492,3.6492,3.6492,3.6492,3.6492,3.6492,3.6492,3.6492,3.6492,3.6492,3.6492,3.6492,3.6476,3.6476,3.6122,3.6399,3.6445,3.623,3.6353,3.643,3.6384,3.6107,3.5722,3.5768,3.5352,3.5152,4.52,4.5095,4.4526,4.3888,4.3319,4.3359,4.3478,4.369,4.369,4.3793,4.3949,4.3988,4.3996,4.389,4.3533,4.331,4.3225,4.279,4.2519,4.2494,4.1863,4.154,4.1509,4.0843,4.0505,4.0489,4.0489,4.0459,4.0366,3.9767,3.9444,3.9431,3.8767,3.8462,3.8369,3.78,3.7461,3.74,3.6923,3.6538,3.6522,3.643,3.6061,3.5475,3.4874,3.4597,3.4566,3.452,3.4536,3.452,3.4582,3.4551,3.4536,3.4551,3.4582,3.4628,3.5106,3.546,3.5537,3.603,3.6384,3.6461,3.6492,3.6522,3.663,3.7123,3.7446,3.7461,3.7954,3.7832,3.6862,3.6708,3.6615,3.6584,3.6647,3.6708,3.677,3.6908,3.6908,3.6754,3.6693,3.6631,3.6554,3.6492,3.6492,3.6492,3.6492,3.6492,3.6492,3.6492,3.6492,3.6492,3.6492,3.6492,3.6492,3.6492,3.6492,3.6492,3.6492,3.6492,3.6492,3.6492,3.6492,3.6492,3.6492,3.6492,3.6492,3.6492,3.6476,3.6461,3.6461,3.6307,3.6199,3.6368,3.6184,4.5289,4.5274,4.5035,4.4556,4.3947,4.3917,4.3788,4.3423,4.3438,4.3503,4.3542,4.3581,4.3527,4.3566,4.3551,4.37,4.3853,4.3302,4.3107,4.314,4.2556,4.2017,4.1586,4.1324,4.094,4.0536,4.0489,4.0489,4.0474,4.0243,4.0136,4.0028,3.9493,3.9154,3.9046,3.8492,3.8154,3.8123,3.7877,3.7584,3.7169,3.7138,3.6815,3.6168,3.5891,3.5799,3.5768,3.5768,3.5753,3.5768,3.5768,3.5799,3.5768,3.5799,3.5799,3.5784,3.5984,3.6122,3.6153,3.6338,3.6492,3.6522,3.6907,3.7138,3.7246,3.7738,3.8138,3.82,3.8323,3.82,3.7861,3.74,3.7123,3.7092,3.68,3.6801,3.7017,3.694,3.6647,3.6585,3.6585,3.6554,3.6523,3.6492,3.6492,3.6492,3.6492,3.6492,3.6492,3.6492,3.6492,3.6492,3.6492,3.6492,3.6492,3.6492,3.6492,3.6492,3.6492,3.6492,3.6492,3.6492,3.6492,3.6492,3.6492,3.6492,3.6492,3.6492,3.6492,3.6492,3.6492,3.6492,3.6492,3.6492,3.6492,4.5813,4.5633,4.5633,4.5229,4.4646,4.4631,4.4257,4.3648,4.3604,4.3484,4.3334,4.3305,4.3305,4.3344,4.3518,4.3738,4.4058,4.377,4.3722,4.3833,4.3254,4.2679,4.2232,4.1801,4.1355,4.0858,4.0582,4.0489,4.0489,4.0489,4.0489,4.0443,4.0013,3.9831,3.9739,3.9136,3.8846,3.8816,3.8616,3.8246,3.7877,3.7831,3.7615,3.7184,3.6938,3.6707,3.6522,3.6492,3.6492,3.6492,3.6492,3.6492,3.6492,3.6492,3.6492,3.6492,3.6492,3.6492,3.6522,3.6692,3.683,3.6846,3.7415,3.7815,3.7861,3.8446,3.8769,3.8862,3.9077,3.9108,3.88,3.8415,3.8077,3.7846,3.7415,3.7323,3.7707,3.7215,3.6784,3.6569,3.6523,3.6492,3.6492,3.6492,3.6492,3.6492,3.6492,3.6492,3.6492,3.6492,3.6492,3.6492,3.6492,3.6492,3.6492,3.6492,3.6492,3.6492,3.6492,3.6492,3.6492,3.6492,3.6492,3.6492,3.6492,3.6492,3.6492,3.6492,3.6492,3.6492,3.6492,3.6492,3.6492,3.6492,3.6492,4.689,4.6367,4.6337,4.5933,4.5349,4.5304,4.493,4.4377,4.4317,4.3992,4.3604,4.3394,4.3409,4.3334,4.3374,4.3463,4.3778,4.4013,4.4251,4.4365,4.3901,4.3578,4.3377,4.2294,4.1694,4.1478,4.0843,4.052,4.0489,4.0489,4.0489,4.0489,4.0459,4.0366,4.0459,3.9831,3.949,3.9382,3.8967,3.8631,3.8523,3.8508,3.8446,3.8323,3.78,3.7246,3.663,3.6538,3.6492,3.6492,3.6492,3.6492,3.6492,3.6492,3.6492,3.6492,3.6492,3.6492,3.6615,3.7107,3.74,3.7584,3.8123,3.8508,3.86,3.9123,3.9524,3.9601,3.9936,4.0151,3.9613,3.9428,3.9185,3.8631,3.8354,3.8308,3.8354,3.7923,3.7261,3.6753,3.6661,3.6538,3.6522,3.6707,3.6799,3.6784,3.6753,3.6784,3.683,3.6846,3.663,3.6569,3.6661,3.6722,3.6615,3.6492,3.6492,3.6492,3.6492,3.6492,3.6492,3.6492,3.6492,3.6492,3.6492,3.6492,3.6492,3.6492,3.6492,3.6492,3.6492,3.6492,3.6492,3.6492,3.6492,4.7174,4.701,4.701,4.6606,4.6037,4.6007,4.5633,4.502,4.499,4.4855,4.4631,4.4197,4.4003,4.3858,4.3529,4.3438,4.3675,4.3832,4.4065,4.4312,4.4318,4.404,4.3593,4.3193,4.2499,4.1709,4.1386,4.0986,4.0582,4.0505,4.0489,4.0489,4.0489,4.0489,4.0489,4.0274,4.0166,4.0151,3.9982,3.9659,3.9228,3.92,3.8985,3.8539,3.8308,3.8077,3.7861,3.6984,3.6522,3.6522,3.6492,3.6492,3.6507,3.6492,3.6492,3.6492,3.6492,3.6738,3.7138,3.74,3.7769,3.82,3.8816,3.9121,3.9244,3.9767,4.0136,4.0166,4.0382,4.0366,4.0228,4.0166,3.9797,3.9228,3.88,3.8754,3.9,3.8585,3.7938,3.74,3.7584,3.7646,3.74,3.7477,3.7754,3.7784,3.7784,3.78,3.7831,3.7738,3.7631,3.7323,3.7246,3.7076,3.6953,3.6907,3.6892,3.6769,3.6676,3.6507,3.6492,3.6492,3.6492,3.6492,3.6492,3.6492,3.6492,3.6492,3.6492,3.6492,3.6492,3.6492,3.6492,3.6492,3.6492,4.7033,4.7033,4.7048,4.681,4.6438,4.6466,4.6179,4.5612,4.5636,4.5544,4.5229,4.4855,4.4676,4.4601,4.4227,4.3983,4.3933,4.3997,4.4059,4.4134,4.4358,4.425,4.391,4.3701,4.3048,4.2094,4.1709,4.137,4.094,4.0628,4.0489,4.0489,4.0489,4.0489,4.0489,4.0489,4.0489,4.0489,4.0474,4.029,3.9985,3.9859,3.9659,3.9259,3.9016,3.8893,3.88,3.7815,3.7246,3.723,3.7246,3.7246,3.7246,3.7261,3.7246,3.7246,3.7277,3.7461,3.7846,3.8154,3.8415,3.8908,3.949,3.9859,3.9936,4.0305,4.0413,4.0166,4.0105,4.0028,3.9782,3.9736,3.9536,3.9167,3.9293,3.9275,3.9444,3.9121,3.8583,3.8169,3.8231,3.8231,3.8138,3.8169,3.8508,3.8508,3.8508,3.8508,3.8508,3.8477,3.8215,3.8,3.7908,3.7677,3.7384,3.7323,3.7323,3.7123,3.6907,3.6661,3.6492,3.6492,3.6492,3.6492,3.6492,3.6492,3.6492,3.6492,3.6492,3.6492,3.6492,3.6492,3.6492,3.6492,3.6492,4.6535,4.655,4.655,4.6535,4.658,4.6741,4.6502,4.61,4.6211,4.5968,4.549,4.5284,4.5266,4.5293,4.503,4.4728,4.4451,4.4524,4.4273,4.4065,4.4172,4.4366,4.4304,4.3881,4.3282,4.2627,4.2073,4.1735,4.1632,4.1089,4.0582,4.0659,4.0659,4.052,4.052,4.0489,4.0489,4.0489,4.0489,4.0474,4.0428,4.0443,4.0428,4.0351,3.9828,3.9536,3.9428,3.8921,3.8554,3.8508,3.8338,3.8308,3.8446,3.8508,3.8385,3.8323,3.8477,3.8462,3.8646,3.8985,3.9382,3.9567,4.0043,4.0489,4.0428,4.0428,4.0243,3.969,3.9582,3.9305,3.8831,3.8677,3.8646,3.8708,3.9462,3.9859,3.9613,3.9551,3.9228,3.8736,3.86,3.86,3.8598,3.8692,3.8785,3.88,3.8831,3.8893,3.8893,3.897,3.8708,3.86,3.8569,3.8292,3.8,3.7877,3.7877,3.7738,3.7477,3.7169,3.6738,3.663,3.6492,3.6492,3.6599,3.6569,3.6507,3.6507,3.6507,3.6492,3.6492,3.6492,3.6507,3.6507,3.6553,4.6016,4.6016,4.6016,4.6121,4.6314,4.6343,4.6403,4.6446,4.6461,4.6356,4.6149,4.575,4.5543,4.5498,4.5025,4.467,4.4608,4.4787,4.465,4.4233,4.4408,4.4343,4.4204,4.3998,4.3617,4.3133,4.2864,4.2671,4.2371,4.2027,4.172,4.134,4.1294,4.1032,4.0597,4.0536,4.0489,4.0489,4.0489,4.0489,4.0489,4.0489,4.0489,4.0474,4.029,4.0197,4.0228,4.0074,3.9444,3.8585,3.8508,3.8508,3.86,3.86,3.8631,3.8631,3.86,3.8769,3.9152,3.9398,3.9721,4.0166,4.0351,4.0489,4.0489,4.0489,4.0166,3.9659,3.9474,3.9198,3.8677,3.8462,3.8462,3.8616,3.9231,3.9797,4.0043,4.0213,3.9967,3.9431,3.9582,3.9551,3.9367,3.9551,3.9862,3.9844,3.9828,3.9828,3.969,3.9721,3.9582,3.9305,3.9185,3.8893,3.8646,3.8508,3.8431,3.8369,3.8169,3.7923,3.74,3.6938,3.6707,3.6492,3.6846,3.6923,3.6676,3.6538,3.6522,3.6799,3.6722,3.683,3.6615,3.6553,3.6661,4.5216,4.5216,4.5216,4.5307,4.5444,4.5535,4.5702,4.5956,4.6105,4.618,4.6137,4.577,4.5551,4.5537,4.5142,4.4792,4.4602,4.4904,4.4748,4.4324,4.4284,4.4183,4.4046,4.3988,4.3852,4.3602,4.3297,4.3074,4.2855,4.2646,4.2299,4.2058,4.2017,4.1648,4.1063,4.097,4.0801,4.0566,4.0489,4.0489,4.0489,4.0489,4.0489,4.0489,4.0489,4.0489,4.0489,4.0489,4.009,3.949,3.937,3.9321,3.9321,3.9321,3.9354,3.9321,3.9321,3.9554,3.9797,3.9905,4.0074,4.0397,4.0489,4.0489,4.0489,4.0489,4.0213,3.9598,3.9505,3.8998,3.8262,3.7846,3.7831,3.8031,3.8446,3.8954,3.9582,3.9567,3.9459,3.9321,3.9582,3.9951,3.957,4.0105,4.0413,4.0459,4.0366,4.0382,4.0382,4.0474,4.0397,3.9997,3.9828,3.9613,3.9505,3.9431,3.9339,3.9198,3.8923,3.8677,3.8169,3.7569,3.7415,3.7292,3.7307,3.7277,3.7169,3.7184,3.7477,3.76,3.7369,3.7292,3.7246,3.7046,3.7092,4.4256,4.4209,4.4209,4.4256,4.4289,4.4509,4.4787,4.5018,4.5276,4.5489,4.5566,4.5444,4.5267,4.5353,4.5137,4.4994,4.4477,4.4936,4.4836,4.4523,4.4341,4.4182,4.405,4.3877,4.3879,4.3767,4.3312,4.3282,4.3213,4.2829,4.2597,4.2615,4.2637,4.2289,4.1771,4.1601,4.1232,4.0766,4.0551,4.0505,4.0489,4.0489,4.0489,4.0489,4.0489,4.0489,4.0489,4.0489,4.0413,4.0474,4.0489,4.0366,4.0397,4.0443,4.0413,4.0351,4.029,4.0336,4.0443,4.0397,4.0443,4.0489,4.0489,4.0489,4.0489,4.0489,4.0213,3.9536,3.949,3.8954,3.8015,3.7184,3.7307,3.7754,3.7769,3.7954,3.8323,3.8508,3.8508,3.8554,3.9123,3.9428,3.9644,4.0013,4.0489,4.0489,4.0489,4.0489,4.0489,4.0489,4.0489,4.0397,4.0336,4.0413,4.0366,4.0351,4.0259,4.0151,3.9751,3.9413,3.9031,3.86,3.8462,3.8308,3.7984,3.7969,3.8123,3.8246,3.8385,3.8277,3.7969,3.8169,3.8369,3.8031,3.7938,4.3211,4.3225,4.3211,4.3307,4.3457,4.3757,4.3979,4.4214,4.4537,4.463,4.4676,4.4644,4.4476,4.4322,4.4476,4.4438,4.4223,4.4733,4.5121,4.5299,4.4949,4.4601,4.4203,4.3793,4.3611,4.3669,4.3633,4.3644,4.3692,4.3602,4.3449,4.3157,4.3155,4.2901,4.2412,4.1955,4.1555,4.1294,4.0878,4.0597,4.0566,4.0566,4.0536,4.0505,4.0489,4.0489,4.0489,4.0489,4.0489,4.0489,4.0489,4.0489,4.0489,4.0489,4.0489,4.0489,4.0489,4.0489,4.0489,4.0489,4.0489,4.0489,4.0489,4.0489,4.0489,4.0489,4.0182,3.9659,3.9459,3.9185,3.8431,3.8185,3.8061,3.8154,3.8231,3.8292,3.8477,3.8508,3.8508,3.8646,3.9059,3.949,3.9521,4.0074,4.0397,4.0474,4.0489,4.0489,4.0489,4.0489,4.0489,4.0489,4.0489,4.0489,4.0489,4.0489,4.0489,4.0489,4.0259,4.0074,3.9659,3.9305,3.9077,3.8785,3.8462,3.86,3.8939,3.8754,3.8769,3.8662,3.8646,3.8785,3.8893,3.8739,3.8785,4.2533,4.252,4.2547,4.2568,4.2687,4.2833,4.3053,4.3293,4.3465,4.3608,4.3655,4.356,4.3451,4.328,4.3451,4.3451,4.3675,4.4383,4.5058,4.5345,4.5228,4.5099,4.4959,4.4191,4.3728,4.3578,4.3488,4.3621,4.3793,4.3856,4.3721,4.3678,4.3708,4.347,4.3045,4.259,4.2402,4.2094,4.1724,4.1386,4.1093,4.0997,4.0751,4.0566,4.0489,4.0489,4.0489,4.0489,4.0489,4.0489,4.0489,4.0489,4.0489,4.0489,4.0489,4.0489,4.0489,4.0489,4.0489,4.0489,4.0489,4.0489,4.0489,4.0489,4.0489,4.0489,4.0366,4.0059,3.992,3.9724,3.9029,3.8567,3.8554,3.8508,3.8523,3.8523,3.8523,3.8523,3.8508,3.8646,3.9075,3.9382,3.969,4.012,4.0382,4.0489,4.0489,4.0489,4.0489,4.0489,4.0489,4.0489,4.0489,4.0489,4.0489,4.0489,4.0489,4.0489,4.0428,4.0351,4.0182,3.9859,3.9551,3.9351,3.9262,3.9493,3.969,3.9428,3.9354,3.9536,3.9598,3.9493,3.9462,3.9567,3.9677,4.198,4.198,4.198,4.198,4.198,4.2029,4.2177,4.24,4.24,4.2693,4.2728,4.256,4.2533,4.24,4.2484,4.2644,4.3128,4.3832,4.4624,4.5317,4.5463,4.555,4.5567,4.5045,4.4287,4.3514,4.3359,4.3463,4.3581,4.3636,4.3708,4.3918,4.4073,4.3815,4.3517,4.337,4.3107,4.2625,4.2312,4.2057,4.1659,4.1566,4.126,4.0718,4.0412,4.0381,4.0366,4.0401,4.0385,4.0436,4.042,4.042,4.0436,4.0489,4.0489,4.0489,4.0489,4.0489,4.0489,4.0489,4.0489,4.0489,4.0489,4.0489,4.0489,4.0489,4.0459,4.0459,4.0351,4.0197,3.9674,3.9305,3.9,3.8923,3.8862,3.8782,3.8816,3.88,3.8893,3.86,3.9044,3.9444,3.9705,4.0043,4.029,4.0489,4.0489,4.0489,4.0489,4.0489,4.0489,4.0489,4.0489,4.0489,4.0489,4.0489,4.0489,4.0489,4.0489,4.0489,4.0489,4.0274,4.0028,4.0213,4.0243,4.029,4.0259,4.009,4.0136,4.0489,4.0382,4.0043,4.0166,4.0459,4.0382,4.1411,4.1411,4.1411,4.1411,4.1474,4.1647,4.1796,4.1845,4.2092,4.2177,4.2226,4.2177,4.2043,4.1944,4.2092,4.2422,4.2873,4.3533,4.4275,4.5124,4.5589,4.5991,4.5954,4.5824,4.5203,4.4257,4.3693,4.3494,4.3384,4.3369,4.3542,4.3714,4.3793,4.3773,4.3677,4.3434,4.3221,4.2977,4.2574,4.2193,4.201,4.1827,4.1584,4.0974,4.0593,4.0365,4.0208,4.0147,4.0066,4.0081,4.0066,4.0117,4.0172,4.0366,4.0455,4.0505,4.0489,4.0489,4.0489,4.0489,4.0489,4.0489,4.0489,4.0489,4.0489,4.0489,4.0489,4.0489,4.0489,4.0413,4.0351,4.0028,4.012,4.0105,4.0013,4.0013,4.0028,3.992,3.9582,3.9016,3.9259,3.9582,3.9874,4.0105,4.0336,4.0489,4.0489,4.0489,4.0489,4.0489,4.0489,4.0489,4.0489,4.0489,4.0489,4.0489,4.0489,4.0489,4.0489,4.0489,4.0489,4.0489,4.0489,4.0489,4.0489,4.0428,4.0443,4.0489,4.0489,4.0489,4.0489,4.0489,4.0489,4.0489,4.0489,4.1311,4.1311,4.1311,4.1311,4.1324,4.1411,4.1511,4.1511,4.1647,4.1696,4.1696,4.1696,4.1597,4.1547,4.1597,4.1993,4.2533,4.3149,4.3912,4.4755,4.5475,4.6063,4.6195,4.6232,4.5896,4.5278,4.4691,4.3888,4.3349,4.329,4.3414,4.3463,4.3596,4.3769,4.3786,4.3661,4.3502,4.338,4.3138,4.2751,4.2417,4.2159,4.1704,4.1446,4.1173,4.1043,4.1013,4.0961,4.083,4.0603,4.0527,4.033,4.0203,4.0237,4.0431,4.0447,4.0486,4.0489,4.0489,4.0489,4.0489,4.0489,4.0489,4.0489,4.0489,4.0489,4.0489,4.0489,4.0489,4.0489,4.0474,4.0489,4.0489,4.0489,4.0489,4.0489,4.0489,4.0489,4.0043,3.9505,3.9828,4.0074,4.009,4.0305,4.0443,4.0489,4.0489,4.0489,4.0489,4.0489,4.0489,4.0489,4.0489,4.0489,4.0489,4.0489,4.0489,4.0489,4.0489,4.0489,4.0489,4.0489,4.0489,4.0489,4.0489,4.0489,4.0489,4.0489,4.0489,4.0489,4.0489,4.0489,4.0489,4.0489,4.0489,4.1311,4.1311,4.1311,4.1311,4.1311,4.1311,4.1311,4.1311,4.1311,4.1311,4.1311,4.1311,4.1311,4.1311,4.1361,4.1597,4.2128,4.2873,4.3546,4.435,4.5092,4.5806,4.6241,4.6355,4.6198,4.601,4.5708,4.487,4.4047,4.3663,4.3529,4.3594,4.3707,4.3611,4.3606,4.3639,4.3856,4.3856,4.3856,4.3553,4.3038,4.238,4.2002,4.1956,4.1866,4.1729,4.1601,4.1586,4.1405,4.1133,4.1003,4.0873,4.0455,4.0492,4.0619,4.0644,4.0585,4.0486,4.0489,4.0489,4.0489,4.0489,4.0489,4.0489,4.0489,4.0489,4.0489,4.0489,4.0489,4.0489,4.0489,4.0489,4.0489,4.0489,4.0489,4.0489,4.0489,4.0489,4.0489,4.0305,4.0489,4.0459,4.0366,4.0366,4.0489,4.0489,4.0489,4.0489,4.0489,4.0489,4.0489,4.0489,4.0489,4.0489,4.0489,4.0489,4.0489,4.0489,4.0489,4.0489,4.0489,4.0489,4.0489,4.0489,4.0489,4.0489,4.0489,4.0489,4.0489,4.0489,4.0489,4.0489,4.0489,4.0489,4.0489,4.1311,4.1311,4.1311,4.1311,4.1311,4.1311,4.1311,4.1311,4.1311,4.1311,4.1311,4.1311,4.1311,4.1311,4.1311,4.1597,4.2092,4.2484,4.3163,4.4021,4.4755,4.5489,4.6225,4.6668,4.6499,4.6431,4.6249,4.5783,4.508,4.4511,4.4212,4.4137,4.3703,4.3399,4.3558,4.3508,4.3369,4.3369,4.3409,4.3364,4.3184,4.2653,4.2413,4.2233,4.1933,4.1701,4.1776,4.1776,4.1595,4.1438,4.1378,4.1348,4.1273,4.1422,4.1624,4.148,4.1092,4.0505,4.0643,4.0735,4.0751,4.0782,4.0689,4.0536,4.072,4.0751,4.0735,4.0489,4.0582,4.0689,4.0766,4.0612,4.0551,4.0643,4.0812,4.0689,4.0612,4.0782,4.0751,4.0489,4.0489,4.0489,4.0459,4.0474,4.0489,4.0489,4.0489,4.0489,4.0489,4.0489,4.0489,4.0489,4.0489,4.0489,4.0489,4.0489,4.0489,4.0489,4.0489,4.0489,4.0489,4.0489,4.0489,4.0489,4.0489,4.0489,4.0489,4.0489,4.0489,4.0489,4.0489,4.0489,4.0489,4.0489,4.0489,4.1311,4.1311,4.1311,4.1311,4.1311,4.1311,4.1311,4.1311,4.1311,4.1311,4.1311,4.1311,4.1311,4.1311,4.1311,4.1498,4.1895,4.2302,4.2873,4.358,4.4336,4.5092,4.5761,4.6254,4.6432,4.6661,4.6759,4.68,4.6172,4.5424,4.487,4.4781,4.4257,4.3913,4.3798,4.3484,4.3334,4.3305,4.3305,4.3305,4.323,4.3075,4.2895,4.2895,4.2581,4.2462,4.2432,4.2476,4.2267,4.2073,4.1976,4.1767,4.155,4.1558,4.1761,4.1938,4.1754,4.1597,4.1689,4.1658,4.1617,4.1663,4.1643,4.1735,4.1673,4.1627,4.1663,4.1724,4.1689,4.1643,4.1648,4.1673,4.1694,4.1663,4.1458,4.1274,4.1166,4.1124,4.1109,4.0782,4.0505,4.0551,4.0551,4.0489,4.0489,4.0489,4.0489,4.0489,4.0489,4.0489,4.0489,4.0489,4.0489,4.0489,4.0489,4.0489,4.0489,4.0489,4.0489,4.0489,4.0489,4.0489,4.0489,4.0489,4.0489,4.0489,4.0489,4.0489,4.0489,4.0489,4.0489,4.0489,4.0489,4.0489,4.0489,4.1311,4.1311,4.1311,4.1311,4.1311,4.1311,4.1311,4.1311,4.1311,4.1311,4.1311,4.1311,4.1311,4.1311,4.1311,4.1461,4.1746,4.2092,4.2617,4.3197,4.3818,4.4523,4.5216,4.5747,4.6299,4.6829,4.6973,4.7088,4.6935,4.6381,4.5783,4.5529,4.4885,4.4601,4.4421,4.4182,4.3888,4.3633,4.3409,4.3305,4.329,4.329,4.326,4.3275,4.329,4.3305,4.3305,4.3245,4.297,4.2731,4.2596,4.2402,4.2126,4.2188,4.2432,4.2607,4.2687,4.2858,4.2815,4.2771,4.2679,4.2602,4.2602,4.2402,4.2479,4.2602,4.2586,4.2432,4.2448,4.2494,4.2586,4.2525,4.2417,4.2386,4.2417,4.2217,4.2001,4.1878,4.1601,4.1217,4.0955,4.0689,4.0643,4.0536,4.0489,4.0489,4.0489,4.0489,4.0489,4.0489,4.0489,4.0489,4.0489,4.0489,4.0489,4.0489,4.0489,4.0489,4.0489,4.0489,4.0489,4.0489,4.0489,4.0489,4.0489,4.0489,4.0489,4.0489,4.0489,4.0489,4.0489,4.0489,4.0489,4.0489,4.0489,4.1311,4.1311,4.1311,4.1311,4.1311,4.1311,4.1311,4.1311,4.1311,4.1311,4.1311,4.1311,4.1311,4.1311,4.1311,4.1411,4.171,4.1759,4.219,4.2728,4.3245,4.3899,4.4634,4.5293,4.5911,4.6535,4.6844,4.7121,4.7236,4.7057,4.6593,4.6232,4.5574,4.5319,4.514,4.496,4.4616,4.4257,4.3813,4.3484,4.3424,4.3379,4.3364,4.3305,4.3305,4.3305,4.3305,4.3305,4.326,4.3095,4.312,4.312,4.288,4.292,4.31,4.3386,4.3517,4.3678,4.3799,4.335,4.2786,4.2663,4.274,4.2894,4.2971,4.274,4.2663,4.2833,4.2987,4.2879,4.2786,4.2648,4.294,4.3017,4.3094,4.2879,4.2679,4.2571,4.2263,4.1724,4.1447,4.1324,4.1201,4.1135,4.0643,4.0597,4.0505,4.0489,4.0489,4.0489,4.0489,4.0489,4.0489,4.0489,4.0489,4.0489,4.0489,4.0489,4.0489,4.0489,4.0489,4.0489,4.0489,4.0489,4.0489,4.0489,4.0489,4.0489,4.0489,4.0489,4.0489,4.0489,4.0489,4.0489,4.0489,4.1311,4.1311,4.1311,4.1311,4.1311,4.1311,4.1311,4.1311,4.1311,4.1311,4.1311,4.1311,4.1311,4.1311,4.1311,4.1361,4.1461,4.1647,4.1895,4.2239,4.2763,4.3375,4.4134,4.4833,4.5595,4.6135,4.6624,4.6916,4.7019,4.7207,4.7219,4.677,4.6232,4.6022,4.5858,4.5559,4.5185,4.499,4.4631,4.4392,4.3917,4.3858,4.3708,4.3305,4.3305,4.3305,4.3305,4.3305,4.3305,4.3305,4.3305,4.3305,4.3305,4.3305,4.3503,4.3793,4.3832,4.3988,4.4243,4.3929,4.3848,4.3818,4.3833,4.3771,4.3664,4.3756,4.3802,4.3833,4.3725,4.3633,4.3787,4.3833,4.391,4.3848,4.3694,4.3494,4.3356,4.3233,4.2894,4.2355,4.2217,4.214,4.2017,4.1894,4.1278,4.0739,4.0582,4.0551,4.0689,4.0705,4.0766,4.0705,4.0689,4.0536,4.052,4.0505,4.0505,4.0489,4.0489,4.0489,4.0489,4.0489,4.0489,4.0489,4.0489,4.0489,4.0489,4.0489,4.0489,4.0489,4.0489,4.0489,4.0489,4.0489,4.0489,4.1154,4.1311,4.1311,4.1311,4.1311,4.1311,4.1311,4.1311,4.1311,4.1311,4.1311,4.1311,4.1311,4.1311,4.1311,4.1311,4.1361,4.1448,4.1597,4.1944,4.2387,4.2908,4.3566,4.4275,4.5032,4.5685,4.6314,4.6697,4.6916,4.7164,4.7221,4.713,4.689,4.6666,4.6456,4.5978,4.5603,4.5589,4.5319,4.5155,4.4631,4.4586,4.4287,4.3738,4.3648,4.3469,4.3379,4.3305,4.3305,4.3305,4.3305,4.3305,4.3305,4.3344,4.3478,4.3611,4.3729,4.3808,4.4026,4.4281,4.4534,4.4402,4.4471,4.4502,4.461,4.461,4.4372,4.4433,4.4533,4.461,4.461,4.4456,4.4409,4.4271,4.4302,4.411,4.4024,4.3886,4.3433,4.3002,4.2925,4.2802,4.2479,4.2325,4.2125,4.1632,4.1586,4.1504,4.1504,4.1443,4.1309,4.1186,4.1016,4.0766,4.0551,4.0582,4.0597,4.0489,4.0489,4.0489,4.0489,4.0536,4.0536,4.0489,4.0489,4.0489,4.0489,4.0489,4.0489,4.0489,4.0489,4.0489,4.0489,4.0489,4.0489,4.0788,4.1285,4.1311,4.1311,4.1311,4.1311,4.1311,4.1311,4.1311,4.1311,4.1311,4.1311,4.1311,4.1311,4.1311,4.1311,4.1311,4.1361,4.1461,4.1759,4.2079,4.2484,4.3067,4.3832,4.4662,4.5216,4.5941,4.6624,4.6887,4.7164,4.7266,4.7309,4.7174,4.7145,4.7189,4.6636,4.6279,4.6175,4.5708,4.5499,4.5319,4.5274,4.4915,4.4451,4.4287,4.4077,4.3604,4.3499,4.3454,4.3305,4.3305,4.3305,4.3305,4.3305,4.3423,4.3596,4.3651,4.3754,4.3972,4.4205,4.4358,4.4496,4.4534,4.4534,4.4572,4.461,4.461,4.461,4.461,4.461,4.461,4.461,4.461,4.461,4.461,4.4579,4.4409,4.4348,4.3932,4.3664,4.3578,4.3408,4.2956,4.2694,4.2756,4.2633,4.2586,4.2494,4.2325,4.2125,4.1878,4.1755,4.1571,4.1432,4.1197,4.0828,4.0689,4.0582,4.072,4.0966,4.0889,4.0858,4.0782,4.0612,4.0489,4.0489,4.0489,4.0489,4.0489,4.0489,4.0489,4.0489,4.0489,4.0489,4.0489,4.0775,4.1311,4.1311,4.1311,4.1311,4.1311,4.1311,4.1311,4.1311,4.1311,4.1311,4.1311,4.1311,4.1311,4.1311,4.1311,4.1311,4.1311,4.1411,4.1461,4.1881,4.2373,4.3018,4.3737,4.4551,4.523,4.5956,4.6491,4.6712,4.7077,4.7266,4.7309,4.7309,4.7309,4.7279,4.704,4.698,4.6965,4.6711,4.6471,4.6037,4.5933,4.5663,4.5005,4.4975,4.4646,4.4047,4.3947,4.3798,4.3499,4.3454,4.3379,4.3349,4.3349,4.3344,4.3423,4.3478,4.3542,4.3714,4.391,4.4065,4.4258,4.4435,4.4473,4.4587,4.4572,4.461,4.461,4.461,4.461,4.461,4.461,4.461,4.461,4.461,4.461,4.4533,4.4533,4.4379,4.4332,4.424,4.4163,4.3833,4.351,4.3479,4.334,4.3248,4.291,4.2694,4.2556,4.2371,4.2355,4.2248,4.2155,4.1955,4.1601,4.1524,4.1601,4.1786,4.2048,4.1863,4.1432,4.1247,4.1135,4.0797,4.0489,4.0489,4.0489,4.0489,4.0489,4.0489,4.0489,4.0489,4.0489,4.0489,4.0605,4.1298,4.1311,4.1311,4.1311,4.1311,4.1311,4.1311,4.1311,4.1311,4.1311,4.1311,4.1311,4.1311,4.1311,4.1311,4.1311,4.1311,4.1311,4.1361,4.1832,4.2338,4.2922,4.3737,4.4397,4.5138,4.5911,4.6491,4.6639,4.7077,4.7266,4.7309,4.7309,4.7309,4.7294,4.7264,4.7249,4.7219,4.71,4.7025,4.6741,4.6576,4.6337,4.5858,4.5574,4.5349,4.4855,4.4571,4.4451,4.4007,4.3768,4.3703,4.3604,4.3439,4.3349,4.3305,4.3344,4.3423,4.3518,4.3557,4.3844,4.4391,4.4334,4.4374,4.4511,4.4549,4.4572,4.461,4.461,4.461,4.461,4.461,4.461,4.461,4.461,4.461,4.461,4.461,4.461,4.461,4.461,4.461,4.461,4.4533,4.4279,4.4079,4.3864,4.3494,4.3171,4.3125,4.3017,4.2956,4.2879,4.274,4.2586,4.2355,4.2371,4.2571,4.2694,4.2802,4.2509,4.2032,4.1878,4.1663,4.1309,4.092,4.0597,4.0489,4.0489,4.0489,4.0489,4.0489,4.0489,4.0489,4.0489,4.0265,4.1219,4.1311,4.1311,4.1311,4.1311,4.1311,4.1311,4.1311,4.1311,4.1311,4.1311,4.1311,4.1311,4.1311,4.1311,4.1311,4.1311,4.1311,4.1448,4.1881,4.2239,4.2776,4.3594,4.4364,4.5,4.573,4.6506,4.6639,4.7092,4.7309,4.7309,4.7309,4.7309,4.7309,4.7309,4.7309,4.7309,4.7294,4.7234,4.71,4.7145,4.6845,4.6486,4.6292,4.5963,4.5559,4.5289,4.5229,4.496,4.4661,4.4451,4.4152,4.3708,4.3484,4.3409,4.3499,4.3614,4.3658,4.3758,4.3988,4.4614,4.4558,4.4433,4.4481,4.4672,4.4703,4.4633,4.461,4.461,4.461,4.461,4.461,4.461,4.461,4.461,4.461,4.461,4.461,4.461,4.461,4.461,4.461,4.461,4.4572,4.4449,4.4233,4.4218,4.3972,4.4048,4.3895,4.3602,4.351,4.331,4.3171,4.3125,4.3171,4.3356,4.3171,4.3171,4.2879,4.2725,4.254,4.2263,4.1801,4.1401,4.1012,4.0705,4.0489,4.0505,4.052,4.0489,4.0489,4.0489,4.0489,4.0017,4.0697,4.1091,4.1311,4.1311,4.1311,4.1311,4.1311,4.1311,4.1311,4.1311,4.1311,4.1311,4.1311,4.1311,4.1311,4.1311,4.1311,4.1311,4.1498,4.1845,4.219,4.2825,4.3608,4.4364,4.506,4.5776,4.6491,4.6683,4.7077,4.7309,4.7309,4.7309,4.7309,4.7309,4.7309,4.7309,4.7309,4.7309,4.7309,4.7309,4.7309,4.71,4.701,4.6935,4.6561,4.6187,4.6022,4.5873,4.5349,4.517,4.502,4.4975,4.4825,4.4736,4.4736,4.4751,4.4751,4.4721,4.4721,4.4837,4.5038,4.5132,4.5151,4.5081,4.5024,4.4987,4.4911,4.4864,4.4949,4.4856,4.4795,4.4702,4.4625,4.4625,4.461,4.461,4.461,4.461,4.461,4.461,4.461,4.461,4.4572,4.4534,4.4572,4.4572,4.4534,4.4572,4.4572,4.4548,4.4209,4.4101,4.3864,4.4018,4.4018,4.4048,4.4064,4.3833,4.3725,4.3741,4.3587,4.3264,4.2817,4.2263,4.1817,4.1432,4.1186,4.0966,4.0612,4.0566,4.0536,4.0505,4.0551,4.0536,3.9926,4.0474,4.1013,4.1311,4.1311,4.1311,4.1311,4.1311,4.1311,4.1311,4.1311,4.1311,4.1311,4.1311,4.1311,4.1311,4.1311,4.1311,4.1311,4.1411,4.1746,4.2141,4.2776,4.3546,4.4256,4.5,4.5776,4.6447,4.6683,4.7033,4.7309,4.7309,4.7309,4.7309,4.7309,4.7309,4.7309,4.7309,4.7309,4.7309,4.7309,4.7309,4.7309,4.7309,4.7309,4.704,4.6728,4.6653,4.6441,4.6037,4.5948,4.5708,4.5618,4.5469,4.5259,4.52,4.5185,4.5155,4.514,4.5185,4.5409,4.566,4.5803,4.583,4.5799,4.5782,4.5636,4.5493,4.5456,4.5395,4.5195,4.4995,4.4825,4.4656,4.4625,4.461,4.461,4.461,4.461,4.461,4.461,4.461,4.4572,4.4534,4.4458,4.4419,4.4343,4.4281,4.4396,4.4511,4.4534,4.4456,4.4471,4.4456,4.461,4.461,4.4486,4.4372,4.4341,4.4295,4.4502,4.4332,4.387,4.33,4.2663,4.2294,4.2001,4.1786,4.1586,4.1278,4.1186,4.1401,4.1212,4.0782,4.0705,3.9847,4.0396,4.105,4.1311,4.1311,4.1311,4.1311,4.1311,4.1311,4.1311,4.1311,4.1311,4.1311,4.1311,4.1311,4.1311,4.1311,4.1311,4.1311,4.1311,4.1597,4.1993,4.2533,4.3245,4.4054,4.4847,4.5685,4.6447,4.6756,4.7077,4.7309,4.7309,4.7309,4.7309,4.7309,4.7309,4.7309,4.7309,4.7309,4.7309,4.7309,4.7309,4.7309,4.7309,4.7309,4.7264,4.7264,4.7279,4.7309,4.707,4.6815,4.6411,4.6217,4.5978,4.5693,4.5618,4.5753,4.5768,4.5798,4.5798,4.5992,4.6217,4.6396,4.6464,4.6475,4.6366,4.6203,4.5997,4.5916,4.5926,4.5757,4.5664,4.5526,4.5372,4.5295,4.5126,4.4979,4.4841,4.461,4.461,4.461,4.4572,4.4572,4.4511,4.4381,4.432,4.4205,4.4089,4.4127,4.432,4.4435,4.4534,4.4572,4.4572,4.461,4.461,4.461,4.4579,4.461,4.4594,4.4564,4.4486,4.4379,4.3824,4.3248,4.2925,4.2648,4.2386,4.2202,4.2186,4.2186,4.2417,4.2125,4.1509,4.1274,3.9272,3.9899,4.0893,4.1311,4.1311,4.1311,4.1311,4.1311,4.1311,4.1311,4.1311,4.1311,4.1311,4.1311,4.1311,4.1311,4.1311,4.1311,4.1311,4.1361,4.156,4.1845,4.2338,4.3088,4.3865,4.4662,4.5535,4.6535,4.6931,4.7207,4.7309,4.7309,4.7309,4.7309,4.7309,4.7309,4.7309,4.7309,4.7309,4.7309,4.7309,4.7309,4.7309,4.7309,4.7309,4.7309,4.7309,4.7309,4.7309,4.7219,4.7174,4.707,4.7055,4.6875,4.683,4.683,4.6666,4.6621,4.6606,4.6591,4.6741,4.6875,4.7025,4.7055,4.7074,4.6929,4.6737,4.6559,4.6475,4.6462,4.6419,4.6357,4.6249,4.6111,4.5988,4.568,4.5372,4.5056,4.4718,4.4656,4.4656,4.4572,4.4549,4.4473,4.4358,4.4243,4.4089,4.4026,4.3988,4.4104,4.4205,4.432,4.4534,4.4572,4.4572,4.461,4.461,4.461,4.461,4.461,4.461,4.4548,4.4471,4.4286,4.3917,4.3556,4.3202,4.2817,4.2709,4.2879,4.2925,4.3063,4.2925,4.2402,4.2263,3.9063,3.973,4.084,4.1311,4.1311,4.1311,4.1311,4.1311,4.1311,4.1311,4.1311,4.1311,4.1311,4.1311,4.1311,4.1311,4.1311,4.1311,4.1311,4.1361,4.1461,4.1746,4.2275,4.286,4.3628,4.4476,4.5716,4.6668,4.7166,4.7251,4.7309,4.7369,4.7369,4.7369,4.7354,4.7324,4.7339,4.7309,4.7309,4.7309,4.7309,4.7309,4.7309,4.7309,4.7309,4.7309,4.7309,4.7309,4.7309,4.7309,4.7264,4.7264,4.7249,4.7204,4.7249,4.7249,4.7219,4.7309,4.7309,4.7309,4.7309,4.7309,4.7309,4.7219,4.7291,4.7196,4.746,4.7348,4.7564,4.7609,4.7204,4.7034,4.6711,4.6496,4.6388,4.6188,4.588,4.5541,4.528,4.5141,4.4957,4.4572,4.4496,4.4281,4.4166,4.405,4.3949,4.3738,4.3738,4.3871,4.3988,4.4127,4.4358,4.4534,4.4572,4.461,4.461,4.461,4.461,4.461,4.461,4.461,4.4548,4.4409,4.4317,4.4209,4.3802,4.3448,4.3525,4.3771,4.371,4.3633,4.3433,4.3325,4.3294,3.8985,3.973,4.0749,4.1246,4.1311,4.1311,4.1311,4.1311,4.1311,4.1311,4.1311,4.1311,4.1311,4.1311,4.1311,4.1311,4.1311,4.1311,4.1311,4.1311,4.1311,4.1696,4.2043,4.2498,4.3533,4.4884,4.6243,4.6918,4.7436,4.7656,4.7818,4.7593,4.7534,4.7534,4.7459,4.7429,4.7489,4.7354,4.7309,4.7309,4.7309,4.7309,4.7309,4.7309,4.7309,4.7309,4.7309,4.7309,4.7309,4.7309,4.7309,4.7309,4.7309,4.7309,4.7309,4.7309,4.7309,4.7309,4.7309,4.7309,4.7309,4.7309,4.7309,4.7352,4.7409,4.7593,4.7861,4.8042,4.832,4.8332,4.7912,4.7635,4.7296,4.7034,4.6927,4.6788,4.6465,4.6126,4.5895,4.5695,4.5295,4.4872,4.4626,4.4396,4.408,4.3964,4.3738,4.3488,4.3369,4.3581,4.3738,4.3934,4.4166,4.4343,4.4534,4.461,4.461,4.461,4.461,4.461,4.461,4.461,4.461,4.4594,4.4502,4.4425,4.4456,4.4202,4.4372,4.4387,4.4264,4.4064,4.4125,4.4064,4.4279,3.8671,3.9677,4.0331,4.0853,4.1272,4.1311,4.1311,4.1311,4.1311,4.1311,4.1311,4.1311,4.1311,4.1311,4.1311,4.1311,4.1311,4.1311,4.1311,4.1311,4.1311,4.1647,4.2248,4.2941,4.4001,4.5421,4.6923,4.7917,4.8059,4.8522,4.8835,4.8745,4.879,4.8566,4.8117,4.8042,4.7923,4.7728,4.7534,4.7549,4.7444,4.7414,4.7324,4.7309,4.7309,4.7309,4.7309,4.7309,4.7309,4.7309,4.7309,4.7309,4.7309,4.7309,4.7309,4.7309,4.7309,4.7309,4.7309,4.7309,4.7309,4.7309,4.7309,4.7309,4.7467,4.7709,4.7892,4.8019,4.8297,4.849,4.8281,4.8281,4.8065,4.7912,4.7788,4.7558,4.7296,4.6834,4.6465,4.6203,4.5865,4.5557,4.5387,4.494,4.4303,4.4133,4.3862,4.3651,4.3463,4.3503,4.3596,4.3817,4.4089,4.4266,4.4534,4.4572,4.461,4.461,4.461,4.461,4.461,4.461,4.461,4.461,4.461,4.4548,4.4594,4.461,4.4579,4.4533,4.4564,4.4533,4.461,4.461,4.461]}]]